<?xml version='1.0' encoding='UTF-8'?><gpx version="1.1" creator="JPX - https://github.com/jenetics/jpx" xmlns="http://www.topografix.com/GPX/1/1"><trk><trkseg><trkpt lat="45.84908352453923" lon="10.97872268684337"><ele>205.99999999999997</ele><time>2026-04-28T08:23:03.998Z</time></trkpt><trkpt lat="45.84908270988494" lon="10.97863103035141"><ele>206.0</ele><time>2026-04-28T08:23:07.998Z</time></trkpt><trkpt lat="45.84910024373049" lon="10.97853937319849"><ele>206.0</ele><time>2026-04-28T08:23:14.999Z</time></trkpt><trkpt lat="45.84911165967404" lon="10.978436135612732"><ele>206.0</ele><time>2026-04-28T08:23:22Z</time></trkpt><trkpt lat="45.84917886812726" lon="10.978421161008999"><ele>206.0</ele><time>2026-04-28T08:23:28Z</time></trkpt><trkpt lat="45.849246120527205" lon="10.978398462464128"><ele>205.99999999999997</ele><time>2026-04-28T08:23:34Z</time></trkpt><trkpt lat="45.849316761871705" lon="10.978382457438984"><ele>206.0</ele><time>2026-04-28T08:23:40Z</time></trkpt><trkpt lat="45.849384236773446" lon="10.978352849754495"><ele>205.85714285714283</ele><time>2026-04-28T08:23:46Z</time></trkpt><trkpt lat="45.84944979051255" lon="10.978333314837604"><ele>205.71428571428572</ele><time>2026-04-28T08:23:50Z</time></trkpt><trkpt lat="45.849538043052604" lon="10.97831504927163"><ele>205.57142857142856</ele><time>2026-04-28T08:23:54.001Z</time></trkpt><trkpt lat="45.849614029249494" lon="10.978308280560334"><ele>205.42857142857142</ele><time>2026-04-28T08:23:57.001Z</time></trkpt><trkpt lat="45.84967986675862" lon="10.978289785065725"><ele>205.28571428571428</ele><time>2026-04-28T08:24:01.001Z</time></trkpt><trkpt lat="45.84974517868056" lon="10.978279241229945"><ele>205.14285714285714</ele><time>2026-04-28T08:24:04.001Z</time></trkpt><trkpt lat="45.84981779619388" lon="10.97825904786976"><ele>205.0</ele><time>2026-04-28T08:24:07.001Z</time></trkpt><trkpt lat="45.84988706607293" lon="10.97824980134595"><ele>205.0</ele><time>2026-04-28T08:24:10.001Z</time></trkpt><trkpt lat="45.84995457586725" lon="10.978235768418173"><ele>205.0</ele><time>2026-04-28T08:24:13.001Z</time></trkpt><trkpt lat="45.85002397995739" lon="10.978209420811591"><ele>205.0</ele><time>2026-04-28T08:24:16.001Z</time></trkpt><trkpt lat="45.85008998368275" lon="10.978187209041124"><ele>205.0</ele><time>2026-04-28T08:24:19.001Z</time></trkpt><trkpt lat="45.85015362729399" lon="10.978162670556634"><ele>205.0</ele><time>2026-04-28T08:24:22.001Z</time></trkpt><trkpt lat="45.85021592003634" lon="10.97814163947953"><ele>205.0</ele><time>2026-04-28T08:24:25.001Z</time></trkpt><trkpt lat="45.85028613777368" lon="10.978126825760793"><ele>205.0</ele><time>2026-04-28T08:24:28.001Z</time></trkpt><trkpt lat="45.85037269617896" lon="10.978096454192837"><ele>204.42857142857144</ele><time>2026-04-28T08:24:32.001Z</time></trkpt><trkpt lat="45.85043032168361" lon="10.978051202684345"><ele>203.85714285714283</ele><time>2026-04-28T08:24:35.001Z</time></trkpt><trkpt lat="45.850497234272126" lon="10.97799919202028"><ele>203.28571428571428</ele><time>2026-04-28T08:24:38.001Z</time></trkpt><trkpt lat="45.850561261808885" lon="10.977979414984087"><ele>202.71428571428572</ele><time>2026-04-28T08:24:41.001Z</time></trkpt><trkpt lat="45.85063918789673" lon="10.977948576331983"><ele>202.14285714285717</ele><time>2026-04-28T08:24:45.001Z</time></trkpt><trkpt lat="45.85071813439006" lon="10.977931715711541"><ele>201.57142857142856</ele><time>2026-04-28T08:24:49.001Z</time></trkpt><trkpt lat="45.85077676203674" lon="10.977896884193658"><ele>201.0</ele><time>2026-04-28T08:24:52.001Z</time></trkpt><trkpt lat="45.85083069109456" lon="10.977834154441197"><ele>201.0</ele><time>2026-04-28T08:24:57.001Z</time></trkpt><trkpt lat="45.85082117318897" lon="10.977725306443213"><ele>201.0</ele><time>2026-04-28T08:25:01Z</time></trkpt><trkpt lat="45.850789455654194" lon="10.977592979931448"><ele>201.0</ele><time>2026-04-28T08:25:04Z</time></trkpt><trkpt lat="45.850743818634584" lon="10.977490333336526"><ele>201.0</ele><time>2026-04-28T08:25:06Z</time></trkpt><trkpt lat="45.850709243988156" lon="10.97741029411159"><ele>201.0</ele><time>2026-04-28T08:25:09Z</time></trkpt><trkpt lat="45.85067287566207" lon="10.977328798451726"><ele>201.0</ele><time>2026-04-28T08:25:12Z</time></trkpt><trkpt lat="45.85064272823238" lon="10.977246734881376"><ele>201.33333333333334</ele><time>2026-04-28T08:25:15Z</time></trkpt><trkpt lat="45.850635782289935" lon="10.977136882827107"><ele>201.66666666666669</ele><time>2026-04-28T08:25:18Z</time></trkpt><trkpt lat="45.850636618506904" lon="10.977029538725589"><ele>202.0</ele><time>2026-04-28T08:25:21Z</time></trkpt><trkpt lat="45.85064689725574" lon="10.976927232065412"><ele>202.33333333333334</ele><time>2026-04-28T08:25:24Z</time></trkpt><trkpt lat="45.85068002911119" lon="10.976819808616797"><ele>202.66666666666669</ele><time>2026-04-28T08:25:27Z</time></trkpt><trkpt lat="45.85073156694298" lon="10.976734276497636"><ele>203.0</ele><time>2026-04-28T08:25:31Z</time></trkpt><trkpt lat="45.85077226287368" lon="10.976638814998411"><ele>203.42857142857142</ele><time>2026-04-28T08:25:35Z</time></trkpt><trkpt lat="45.85076804473346" lon="10.976533940978232"><ele>203.85714285714286</ele><time>2026-04-28T08:25:38Z</time></trkpt><trkpt lat="45.85078633491009" lon="10.976446997681945"><ele>204.28571428571428</ele><time>2026-04-28T08:25:41Z</time></trkpt><trkpt lat="45.85079385347175" lon="10.976350106765645"><ele>204.71428571428572</ele><time>2026-04-28T08:25:44Z</time></trkpt><trkpt lat="45.85081202438813" lon="10.97626029033537"><ele>205.14285714285714</ele><time>2026-04-28T08:25:47Z</time></trkpt><trkpt lat="45.850829562014525" lon="10.976162044352638"><ele>205.57142857142856</ele><time>2026-04-28T08:25:50Z</time></trkpt><trkpt lat="45.850864261770305" lon="10.976077807069593"><ele>206.0</ele><time>2026-04-28T08:25:53Z</time></trkpt><trkpt lat="45.850859982414065" lon="10.975971432582304"><ele>205.99999999999997</ele><time>2026-04-28T08:25:56Z</time></trkpt><trkpt lat="45.850875917073864" lon="10.975866065059181"><ele>206.0</ele><time>2026-04-28T08:26:00Z</time></trkpt><trkpt lat="45.85087872224507" lon="10.975761791575726"><ele>206.0</ele><time>2026-04-28T08:26:03Z</time></trkpt><trkpt lat="45.850895402556866" lon="10.975667282354348"><ele>206.0</ele><time>2026-04-28T08:26:06Z</time></trkpt><trkpt lat="45.85090744888456" lon="10.97557749170631"><ele>206.0</ele><time>2026-04-28T08:26:09Z</time></trkpt><trkpt lat="45.85092313166219" lon="10.97548101425881"><ele>205.99999999999997</ele><time>2026-04-28T08:26:12Z</time></trkpt><trkpt lat="45.85093722920115" lon="10.975388320379833"><ele>206.0</ele><time>2026-04-28T08:26:15Z</time></trkpt><trkpt lat="45.85095237686915" lon="10.97529192754605"><ele>205.7142857142857</ele><time>2026-04-28T08:26:18Z</time></trkpt><trkpt lat="45.850961897663396" lon="10.975197585178648"><ele>205.42857142857142</ele><time>2026-04-28T08:26:21Z</time></trkpt><trkpt lat="45.85098354675973" lon="10.975102272641418"><ele>205.14285714285714</ele><time>2026-04-28T08:26:24Z</time></trkpt><trkpt lat="45.851000820198536" lon="10.975005108398623"><ele>204.85714285714283</ele><time>2026-04-28T08:26:27Z</time></trkpt><trkpt lat="45.8510172632191" lon="10.974906544358607"><ele>204.57142857142858</ele><time>2026-04-28T08:26:30Z</time></trkpt><trkpt lat="45.85102930633951" lon="10.974808264605764"><ele>204.28571428571428</ele><time>2026-04-28T08:26:33Z</time></trkpt><trkpt lat="45.851038643810455" lon="10.974712270115559"><ele>204.0</ele><time>2026-04-28T08:26:36Z</time></trkpt><trkpt lat="45.85104970786291" lon="10.974613284484537"><ele>203.83333333333334</ele><time>2026-04-28T08:26:39Z</time></trkpt><trkpt lat="45.85104534933389" lon="10.974492489266199"><ele>203.66666666666669</ele><time>2026-04-28T08:26:43Z</time></trkpt><trkpt lat="45.85102224729338" lon="10.974404384846343"><ele>203.5</ele><time>2026-04-28T08:26:46Z</time></trkpt><trkpt lat="45.85099192861375" lon="10.974325166822096"><ele>203.33333333333334</ele><time>2026-04-28T08:26:50Z</time></trkpt><trkpt lat="45.85094330506173" lon="10.97426628103887"><ele>203.16666666666669</ele><time>2026-04-28T08:26:54Z</time></trkpt><trkpt lat="45.85084485821224" lon="10.97421832809232"><ele>203.0</ele><time>2026-04-28T08:26:57Z</time></trkpt><trkpt lat="45.85081695041414" lon="10.974113509028493"><ele>202.83333333333334</ele><time>2026-04-28T08:27:01Z</time></trkpt><trkpt lat="45.85086881630676" lon="10.974044808975185"><ele>202.66666666666669</ele><time>2026-04-28T08:27:04Z</time></trkpt><trkpt lat="45.85094415574495" lon="10.974078315375335"><ele>202.5</ele><time>2026-04-28T08:27:07Z</time></trkpt><trkpt lat="45.85101764594124" lon="10.974089356645862"><ele>202.33333333333331</ele><time>2026-04-28T08:27:10Z</time></trkpt><trkpt lat="45.85108039429515" lon="10.974065602390299"><ele>202.16666666666666</ele><time>2026-04-28T08:27:13Z</time></trkpt><trkpt lat="45.85114561179587" lon="10.974000532389498"><ele>202.0</ele><time>2026-04-28T08:27:19Z</time></trkpt><trkpt lat="45.85117372140232" lon="10.973847971633647"><ele>202.0</ele><time>2026-04-28T08:27:21Z</time></trkpt><trkpt lat="45.85120117093825" lon="10.973755993575235"><ele>202.0</ele><time>2026-04-28T08:27:24Z</time></trkpt><trkpt lat="45.85122286382085" lon="10.973662104061889"><ele>202.0</ele><time>2026-04-28T08:27:27Z</time></trkpt><trkpt lat="45.85123998006667" lon="10.973561629791751"><ele>202.0</ele><time>2026-04-28T08:27:30Z</time></trkpt><trkpt lat="45.851267257485326" lon="10.973476535149738"><ele>202.0</ele><time>2026-04-28T08:27:33Z</time></trkpt><trkpt lat="45.85129413005679" lon="10.973383365449909"><ele>202.0</ele><time>2026-04-28T08:27:36Z</time></trkpt><trkpt lat="45.85130476581368" lon="10.97327133483657"><ele>202.0</ele><time>2026-04-28T08:27:40Z</time></trkpt><trkpt lat="45.85126424146375" lon="10.97318718654186"><ele>202.0</ele><time>2026-04-28T08:27:43Z</time></trkpt><trkpt lat="45.851301170479005" lon="10.97309342182215"><ele>202.0</ele><time>2026-04-28T08:27:46Z</time></trkpt><trkpt lat="45.85134071911096" lon="10.97300420179032"><ele>202.0</ele><time>2026-04-28T08:27:49Z</time></trkpt><trkpt lat="45.8513871318525" lon="10.972931826783357"><ele>202.0</ele><time>2026-04-28T08:27:52Z</time></trkpt><trkpt lat="45.85144030927228" lon="10.97286280760751"><ele>202.0</ele><time>2026-04-28T08:27:55Z</time></trkpt><trkpt lat="45.85147779867786" lon="10.972779466006187"><ele>202.0</ele><time>2026-04-28T08:27:58Z</time></trkpt><trkpt lat="45.851506456603225" lon="10.97269464820261"><ele>202.0</ele><time>2026-04-28T08:28:01Z</time></trkpt><trkpt lat="45.851544602374204" lon="10.97259778579787"><ele>202.0</ele><time>2026-04-28T08:28:04Z</time></trkpt><trkpt lat="45.85158740690346" lon="10.972491000254797"><ele>202.0</ele><time>2026-04-28T08:28:08Z</time></trkpt><trkpt lat="45.851622521559904" lon="10.972396953114293"><ele>202.0</ele><time>2026-04-28T08:28:11Z</time></trkpt><trkpt lat="45.851649009545945" lon="10.972308920031539"><ele>202.0</ele><time>2026-04-28T08:28:14Z</time></trkpt><trkpt lat="45.85168172863038" lon="10.97221881042434"><ele>202.0</ele><time>2026-04-28T08:28:17Z</time></trkpt><trkpt lat="45.851733368168105" lon="10.972158578476748"><ele>202.0</ele><time>2026-04-28T08:28:20Z</time></trkpt><trkpt lat="45.85174850278854" lon="10.972048836139761"><ele>202.0</ele><time>2026-04-28T08:28:23Z</time></trkpt><trkpt lat="45.85179052243106" lon="10.971973709020745"><ele>202.0</ele><time>2026-04-28T08:28:26Z</time></trkpt><trkpt lat="45.851819342736626" lon="10.97188114802878"><ele>202.0</ele><time>2026-04-28T08:28:29Z</time></trkpt><trkpt lat="45.85184905065725" lon="10.971793920010942"><ele>202.0</ele><time>2026-04-28T08:28:32Z</time></trkpt><trkpt lat="45.85188685649693" lon="10.97170979146435"><ele>202.0</ele><time>2026-04-28T08:28:35Z</time></trkpt><trkpt lat="45.85191773876471" lon="10.971614373680879"><ele>202.0</ele><time>2026-04-28T08:28:38Z</time></trkpt><trkpt lat="45.85195930038939" lon="10.971532134766653"><ele>202.0</ele><time>2026-04-28T08:28:41Z</time></trkpt><trkpt lat="45.85199476146437" lon="10.971443722061295"><ele>202.0</ele><time>2026-04-28T08:28:44Z</time></trkpt><trkpt lat="45.85202765628337" lon="10.971352502749454"><ele>201.85714285714286</ele><time>2026-04-28T08:28:47Z</time></trkpt><trkpt lat="45.852065883124965" lon="10.971272263793592"><ele>201.71428571428572</ele><time>2026-04-28T08:28:50Z</time></trkpt><trkpt lat="45.852095728856256" lon="10.971186818965936"><ele>201.57142857142856</ele><time>2026-04-28T08:28:53Z</time></trkpt><trkpt lat="45.85213054337011" lon="10.971108710815871"><ele>201.42857142857144</ele><time>2026-04-28T08:28:56Z</time></trkpt><trkpt lat="45.85216137537541" lon="10.971026616883986"><ele>201.2857142857143</ele><time>2026-04-28T08:28:59Z</time></trkpt><trkpt lat="45.85219019373754" lon="10.970937545238971"><ele>201.14285714285714</ele><time>2026-04-28T08:29:02Z</time></trkpt><trkpt lat="45.8522317139552" lon="10.970863134577781"><ele>201.0</ele><time>2026-04-28T08:29:05Z</time></trkpt><trkpt lat="45.8522580007591" lon="10.970761353937712"><ele>201.0</ele><time>2026-04-28T08:29:08Z</time></trkpt><trkpt lat="45.852292065050776" lon="10.970673503167307"><ele>201.0</ele><time>2026-04-28T08:29:11Z</time></trkpt><trkpt lat="45.85232521845496" lon="10.970588784557963"><ele>201.0</ele><time>2026-04-28T08:29:14Z</time></trkpt><trkpt lat="45.852339876124326" lon="10.970485892584529"><ele>201.0</ele><time>2026-04-28T08:29:17Z</time></trkpt><trkpt lat="45.85238609310361" lon="10.970402926793346"><ele>201.0</ele><time>2026-04-28T08:29:20Z</time></trkpt><trkpt lat="45.8524139312802" lon="10.97030199623602"><ele>201.0</ele><time>2026-04-28T08:29:23Z</time></trkpt><trkpt lat="45.85242251953486" lon="10.970197765345254"><ele>201.0</ele><time>2026-04-28T08:29:26Z</time></trkpt><trkpt lat="45.85245823950751" lon="10.970103698752736"><ele>200.7142857142857</ele><time>2026-04-28T08:29:29Z</time></trkpt><trkpt lat="45.852494176377895" lon="10.970011155436092"><ele>200.42857142857144</ele><time>2026-04-28T08:29:32Z</time></trkpt><trkpt lat="45.85253064547186" lon="10.969917241528583"><ele>200.14285714285714</ele><time>2026-04-28T08:29:35Z</time></trkpt><trkpt lat="45.85255685022628" lon="10.969802695503867"><ele>199.85714285714283</ele><time>2026-04-28T08:29:39Z</time></trkpt><trkpt lat="45.85255594901012" lon="10.969693901720326"><ele>199.57142857142856</ele><time>2026-04-28T08:29:42Z</time></trkpt><trkpt lat="45.852507666106824" lon="10.969625907461644"><ele>199.28571428571428</ele><time>2026-04-28T08:29:43Z</time></trkpt><trkpt lat="45.852513564135755" lon="10.969523449552677"><ele>199.0</ele><time>2026-04-28T08:29:46Z</time></trkpt><trkpt lat="45.85251573313496" lon="10.969422843255963"><ele>198.99999999999997</ele><time>2026-04-28T08:29:49Z</time></trkpt><trkpt lat="45.852513073979665" lon="10.969325267038643"><ele>199.0</ele><time>2026-04-28T08:29:52Z</time></trkpt><trkpt lat="45.852511117098736" lon="10.969223141712076"><ele>199.0</ele><time>2026-04-28T08:29:55Z</time></trkpt><trkpt lat="45.85250682313382" lon="10.969126589508901"><ele>199.0</ele><time>2026-04-28T08:29:58Z</time></trkpt><trkpt lat="45.85251046589762" lon="10.969018826719395"><ele>199.0</ele><time>2026-04-28T08:30:01Z</time></trkpt><trkpt lat="45.85251032522104" lon="10.968924778134058"><ele>198.99999999999997</ele><time>2026-04-28T08:30:04Z</time></trkpt><trkpt lat="45.852503888071624" lon="10.968822511830025"><ele>199.0</ele><time>2026-04-28T08:30:07Z</time></trkpt><trkpt lat="45.85250523995066" lon="10.968727696474515"><ele>198.99999999999997</ele><time>2026-04-28T08:30:10Z</time></trkpt><trkpt lat="45.85250796899144" lon="10.96862687827238"><ele>199.0</ele><time>2026-04-28T08:30:13Z</time></trkpt><trkpt lat="45.85249944610637" lon="10.968527974266125"><ele>199.0</ele><time>2026-04-28T08:30:16Z</time></trkpt><trkpt lat="45.8525037850581" lon="10.968416579379388"><ele>199.0</ele><time>2026-04-28T08:30:19Z</time></trkpt><trkpt lat="45.85250194560619" lon="10.968317332477794"><ele>199.0</ele><time>2026-04-28T08:30:22Z</time></trkpt><trkpt lat="45.85249674353077" lon="10.968209649960123"><ele>198.99999999999997</ele><time>2026-04-28T08:30:25Z</time></trkpt><trkpt lat="45.8524896959965" lon="10.9681126284804"><ele>199.0</ele><time>2026-04-28T08:30:28Z</time></trkpt><trkpt lat="45.85248800064122" lon="10.968017481419217"><ele>199.14285714285714</ele><time>2026-04-28T08:30:31Z</time></trkpt><trkpt lat="45.85248906589286" lon="10.967918136801925"><ele>199.28571428571428</ele><time>2026-04-28T08:30:34Z</time></trkpt><trkpt lat="45.85247706945424" lon="10.967822995552806"><ele>199.42857142857144</ele><time>2026-04-28T08:30:37Z</time></trkpt><trkpt lat="45.852468146504194" lon="10.96772467450921"><ele>199.57142857142856</ele><time>2026-04-28T08:30:40Z</time></trkpt><trkpt lat="45.85246177353879" lon="10.96762727217594"><ele>199.71428571428572</ele><time>2026-04-28T08:30:43Z</time></trkpt><trkpt lat="45.852462499692834" lon="10.967519204930289"><ele>199.85714285714286</ele><time>2026-04-28T08:30:46Z</time></trkpt><trkpt lat="45.85245022134469" lon="10.967415491529314"><ele>200.0</ele><time>2026-04-28T08:30:49Z</time></trkpt><trkpt lat="45.85243042381918" lon="10.967316218558917"><ele>200.00000000000003</ele><time>2026-04-28T08:30:52Z</time></trkpt><trkpt lat="45.852423194928775" lon="10.96722255408125"><ele>200.0</ele><time>2026-04-28T08:30:55Z</time></trkpt><trkpt lat="45.852409713562274" lon="10.967116054304354"><ele>200.0</ele><time>2026-04-28T08:30:58Z</time></trkpt><trkpt lat="45.852378907992126" lon="10.966992896008739"><ele>200.0</ele><time>2026-04-28T08:31:02Z</time></trkpt><trkpt lat="45.852355319561696" lon="10.966903590812102"><ele>200.0</ele><time>2026-04-28T08:31:05Z</time></trkpt><trkpt lat="45.852329304910874" lon="10.96681863084062"><ele>200.00000000000003</ele><time>2026-04-28T08:31:08Z</time></trkpt><trkpt lat="45.85232242714151" lon="10.966716826193194"><ele>200.0</ele><time>2026-04-28T08:31:11Z</time></trkpt><trkpt lat="45.85232627363704" lon="10.966615303281237"><ele>199.85714285714286</ele><time>2026-04-28T08:31:14Z</time></trkpt><trkpt lat="45.852353560253796" lon="10.966512880530969"><ele>199.71428571428572</ele><time>2026-04-28T08:31:16Z</time></trkpt><trkpt lat="45.85235740637768" lon="10.966417776480517"><ele>199.57142857142856</ele><time>2026-04-28T08:31:19Z</time></trkpt><trkpt lat="45.852346044194256" lon="10.966315480682441"><ele>199.42857142857144</ele><time>2026-04-28T08:31:22Z</time></trkpt><trkpt lat="45.85233977619736" lon="10.96621106533255"><ele>199.28571428571428</ele><time>2026-04-28T08:31:25Z</time></trkpt><trkpt lat="45.85232798961522" lon="10.96611428923376"><ele>199.14285714285714</ele><time>2026-04-28T08:31:28Z</time></trkpt><trkpt lat="45.85231656834625" lon="10.96601502429951"><ele>199.0</ele><time>2026-04-28T08:31:31Z</time></trkpt><trkpt lat="45.8523159277376" lon="10.965908372857326"><ele>198.7142857142857</ele><time>2026-04-28T08:31:34Z</time></trkpt><trkpt lat="45.852321960241916" lon="10.9658065414669"><ele>198.42857142857142</ele><time>2026-04-28T08:31:37Z</time></trkpt><trkpt lat="45.85231121992639" lon="10.965712932688497"><ele>198.14285714285714</ele><time>2026-04-28T08:31:40Z</time></trkpt><trkpt lat="45.85230621563623" lon="10.965617121859365"><ele>197.85714285714283</ele><time>2026-04-28T08:31:43Z</time></trkpt><trkpt lat="45.852310591982274" lon="10.965516379450355"><ele>197.57142857142858</ele><time>2026-04-28T08:31:46Z</time></trkpt><trkpt lat="45.852309769865066" lon="10.965419937450035"><ele>197.28571428571428</ele><time>2026-04-28T08:31:49Z</time></trkpt><trkpt lat="45.85231141990913" lon="10.965318400124227"><ele>197.0</ele><time>2026-04-28T08:31:52Z</time></trkpt><trkpt lat="45.8523151233516" lon="10.965216163142186"><ele>197.0</ele><time>2026-04-28T08:31:55Z</time></trkpt><trkpt lat="45.85232588088872" lon="10.965114647512328"><ele>197.0</ele><time>2026-04-28T08:31:58Z</time></trkpt><trkpt lat="45.852325920916535" lon="10.965016853924006"><ele>197.0</ele><time>2026-04-28T08:32:01Z</time></trkpt><trkpt lat="45.85232608934197" lon="10.964916728343209"><ele>197.0</ele><time>2026-04-28T08:32:04Z</time></trkpt><trkpt lat="45.85232036098565" lon="10.964819997527819"><ele>197.0</ele><time>2026-04-28T08:32:07Z</time></trkpt><trkpt lat="45.852328630129165" lon="10.964714616447482"><ele>197.0</ele><time>2026-04-28T08:32:10Z</time></trkpt><trkpt lat="45.85233134073209" lon="10.964617985405901"><ele>197.0</ele><time>2026-04-28T08:32:13Z</time></trkpt><trkpt lat="45.85233071231937" lon="10.964514691993749"><ele>197.14285714285714</ele><time>2026-04-28T08:32:16Z</time></trkpt><trkpt lat="45.85233651771245" lon="10.964415271111983"><ele>197.28571428571428</ele><time>2026-04-28T08:32:19Z</time></trkpt><trkpt lat="45.85234076907497" lon="10.96431969387665"><ele>197.42857142857144</ele><time>2026-04-28T08:32:22Z</time></trkpt><trkpt lat="45.85235733588229" lon="10.96421288684184"><ele>197.57142857142856</ele><time>2026-04-28T08:32:25Z</time></trkpt><trkpt lat="45.85235258226542" lon="10.96410727189923"><ele>197.7142857142857</ele><time>2026-04-28T08:32:28Z</time></trkpt><trkpt lat="45.85235611549537" lon="10.964005372187524"><ele>197.85714285714286</ele><time>2026-04-28T08:32:31Z</time></trkpt><trkpt lat="45.85235688906545" lon="10.963909517898946"><ele>198.0</ele><time>2026-04-28T08:32:34Z</time></trkpt><trkpt lat="45.85235316407516" lon="10.96380545079769"><ele>198.14285714285714</ele><time>2026-04-28T08:32:37Z</time></trkpt><trkpt lat="45.85235404219656" lon="10.963701254629106"><ele>198.28571428571428</ele><time>2026-04-28T08:32:40Z</time></trkpt><trkpt lat="45.85236197687342" lon="10.963603730803449"><ele>198.42857142857142</ele><time>2026-04-28T08:32:43Z</time></trkpt><trkpt lat="45.85235365670912" lon="10.96350949220384"><ele>198.57142857142856</ele><time>2026-04-28T08:32:46Z</time></trkpt><trkpt lat="45.85235172170215" lon="10.963404830933188"><ele>198.71428571428572</ele><time>2026-04-28T08:32:49Z</time></trkpt><trkpt lat="45.85234845730724" lon="10.963307831751699"><ele>198.85714285714283</ele><time>2026-04-28T08:32:52Z</time></trkpt><trkpt lat="45.85234147674735" lon="10.96321353020964"><ele>199.0</ele><time>2026-04-28T08:32:55Z</time></trkpt><trkpt lat="45.852332079083006" lon="10.96311408019572"><ele>198.99999999999997</ele><time>2026-04-28T08:32:58Z</time></trkpt><trkpt lat="45.85233093752454" lon="10.963012054745048"><ele>199.0</ele><time>2026-04-28T08:33:01Z</time></trkpt><trkpt lat="45.85232543812636" lon="10.96291740132285"><ele>199.0</ele><time>2026-04-28T08:33:04Z</time></trkpt><trkpt lat="45.85231977150575" lon="10.962818900232811"><ele>199.0</ele><time>2026-04-28T08:33:07Z</time></trkpt><trkpt lat="45.852312156521215" lon="10.96272212030879"><ele>199.0</ele><time>2026-04-28T08:33:10Z</time></trkpt><trkpt lat="45.852305101064196" lon="10.962624284722818"><ele>198.99999999999997</ele><time>2026-04-28T08:33:13Z</time></trkpt><trkpt lat="45.8522994828682" lon="10.962523694198014"><ele>199.0</ele><time>2026-04-28T08:33:16Z</time></trkpt><trkpt lat="45.85229150201662" lon="10.962422344099119"><ele>198.99999999999997</ele><time>2026-04-28T08:33:19Z</time></trkpt><trkpt lat="45.85228941046251" lon="10.962327417634095"><ele>199.0</ele><time>2026-04-28T08:33:22Z</time></trkpt><trkpt lat="45.852291057407776" lon="10.962230198649255"><ele>199.0</ele><time>2026-04-28T08:33:25Z</time></trkpt><trkpt lat="45.852278678936344" lon="10.962131131453145"><ele>199.0</ele><time>2026-04-28T08:33:28Z</time></trkpt><trkpt lat="45.85227174362055" lon="10.962030678110288"><ele>199.0</ele><time>2026-04-28T08:33:31Z</time></trkpt><trkpt lat="45.85226060301814" lon="10.961930096948349"><ele>198.99999999999997</ele><time>2026-04-28T08:33:34Z</time></trkpt><trkpt lat="45.852255188472725" lon="10.961831367047415"><ele>199.0</ele><time>2026-04-28T08:33:37Z</time></trkpt><trkpt lat="45.85224425880426" lon="10.961734774248061"><ele>198.99999999999997</ele><time>2026-04-28T08:33:40Z</time></trkpt><trkpt lat="45.85223236868919" lon="10.961643031286616"><ele>199.0</ele><time>2026-04-28T08:33:43Z</time></trkpt><trkpt lat="45.852222113084636" lon="10.961542950665683"><ele>199.0</ele><time>2026-04-28T08:33:46Z</time></trkpt><trkpt lat="45.852219499796526" lon="10.961437249702122"><ele>199.0</ele><time>2026-04-28T08:33:49Z</time></trkpt><trkpt lat="45.85222565968575" lon="10.96133839567278"><ele>198.99999999999997</ele><time>2026-04-28T08:33:52Z</time></trkpt><trkpt lat="45.85222622025636" lon="10.961212181001395"><ele>199.0</ele><time>2026-04-28T08:33:56Z</time></trkpt><trkpt lat="45.85223071057862" lon="10.961080868757028"><ele>198.99999999999997</ele><time>2026-04-28T08:34:00Z</time></trkpt><trkpt lat="45.852240603154414" lon="10.960984088492006"><ele>199.0</ele><time>2026-04-28T08:34:03Z</time></trkpt><trkpt lat="45.8522538962303" lon="10.960880414767033"><ele>199.0</ele><time>2026-04-28T08:34:06Z</time></trkpt><trkpt lat="45.85226876458752" lon="10.960776290493085"><ele>199.0</ele><time>2026-04-28T08:34:09Z</time></trkpt><trkpt lat="45.852277593174215" lon="10.960679399547054"><ele>199.0</ele><time>2026-04-28T08:34:12Z</time></trkpt><trkpt lat="45.85227361031067" lon="10.960579577971064"><ele>198.99999999999997</ele><time>2026-04-28T08:34:15Z</time></trkpt><trkpt lat="45.85228090057349" lon="10.96047548323258"><ele>199.0</ele><time>2026-04-28T08:34:18Z</time></trkpt><trkpt lat="45.852294278272865" lon="10.96037846992563"><ele>198.99999999999997</ele><time>2026-04-28T08:34:21Z</time></trkpt><trkpt lat="45.85230396777846" lon="10.960271393807135"><ele>199.0</ele><time>2026-04-28T08:34:24Z</time></trkpt><trkpt lat="45.85230078373859" lon="10.960172687994726"><ele>199.0</ele><time>2026-04-28T08:34:27Z</time></trkpt><trkpt lat="45.85229148209618" lon="10.960072231312388"><ele>199.0</ele><time>2026-04-28T08:34:30Z</time></trkpt><trkpt lat="45.85230004159497" lon="10.959974974540554"><ele>199.0</ele><time>2026-04-28T08:34:33Z</time></trkpt><trkpt lat="45.852317994743125" lon="10.959879965561019"><ele>198.99999999999997</ele><time>2026-04-28T08:34:36Z</time></trkpt><trkpt lat="45.852332692850375" lon="10.959781418340926"><ele>199.0</ele><time>2026-04-28T08:34:39Z</time></trkpt><trkpt lat="45.8523370401836" lon="10.959680856689193"><ele>199.14285714285714</ele><time>2026-04-28T08:34:42.015Z</time></trkpt><trkpt lat="45.85232119189606" lon="10.95958199886195"><ele>199.28571428571428</ele><time>2026-04-28T08:34:45Z</time></trkpt><trkpt lat="45.85232067433835" lon="10.959483724669042"><ele>199.42857142857144</ele><time>2026-04-28T08:34:47Z</time></trkpt><trkpt lat="45.85233196435029" lon="10.959386422271136"><ele>199.57142857142856</ele><time>2026-04-28T08:34:50Z</time></trkpt><trkpt lat="45.852332405489456" lon="10.959290823845587"><ele>199.71428571428572</ele><time>2026-04-28T08:34:53Z</time></trkpt><trkpt lat="45.852310509614206" lon="10.959203769466532"><ele>199.85714285714286</ele><time>2026-04-28T08:34:57Z</time></trkpt><trkpt lat="45.85233384196096" lon="10.959288427112533"><ele>200.0</ele><time>2026-04-28T08:34:59Z</time></trkpt><trkpt lat="45.852329076136535" lon="10.959404184543914"><ele>200.00000000000003</ele><time>2026-04-28T08:35:02Z</time></trkpt><trkpt lat="45.8523172891328" lon="10.959498097775924"><ele>200.0</ele><time>2026-04-28T08:35:05Z</time></trkpt><trkpt lat="45.85225634480944" lon="10.959582452517491"><ele>200.0</ele><time>2026-04-28T08:35:09Z</time></trkpt><trkpt lat="45.852180369496665" lon="10.959653726763706"><ele>200.0</ele><time>2026-04-28T08:35:12Z</time></trkpt><trkpt lat="45.85209446063861" lon="10.959677375076451"><ele>200.00000000000003</ele><time>2026-04-28T08:35:14Z</time></trkpt><trkpt lat="45.85202038762228" lon="10.959726952964937"><ele>200.0</ele><time>2026-04-28T08:35:17Z</time></trkpt><trkpt lat="45.851960457510415" lon="10.959779914141405"><ele>200.00000000000003</ele><time>2026-04-28T08:35:20Z</time></trkpt><trkpt lat="45.85189473634041" lon="10.959815206097883"><ele>200.0</ele><time>2026-04-28T08:35:23Z</time></trkpt><trkpt lat="45.851830588945674" lon="10.959858901762088"><ele>200.0</ele><time>2026-04-28T08:35:26Z</time></trkpt><trkpt lat="45.85176078133827" lon="10.95988543741878"><ele>200.0</ele><time>2026-04-28T08:35:29Z</time></trkpt><trkpt lat="45.85169025364919" lon="10.959893187872195"><ele>200.0</ele><time>2026-04-28T08:35:32Z</time></trkpt><trkpt lat="45.851620730820244" lon="10.959894263572616"><ele>200.00000000000003</ele><time>2026-04-28T08:35:35Z</time></trkpt><trkpt lat="45.85155288452129" lon="10.959899512811944"><ele>200.0</ele><time>2026-04-28T08:35:38Z</time></trkpt><trkpt lat="45.85148365829807" lon="10.959904948222132"><ele>200.00000000000003</ele><time>2026-04-28T08:35:41Z</time></trkpt><trkpt lat="45.85141529675231" lon="10.959915578767669"><ele>200.0</ele><time>2026-04-28T08:35:44Z</time></trkpt><trkpt lat="45.85134001323614" lon="10.959930582882597"><ele>200.0</ele><time>2026-04-28T08:35:47Z</time></trkpt><trkpt lat="45.85127121853979" lon="10.959966976497922"><ele>200.0</ele><time>2026-04-28T08:35:50Z</time></trkpt><trkpt lat="45.85120176688152" lon="10.959990255461506"><ele>200.0</ele><time>2026-04-28T08:35:53Z</time></trkpt><trkpt lat="45.851132331141585" lon="10.96002111220041"><ele>200.00000000000003</ele><time>2026-04-28T08:35:56Z</time></trkpt><trkpt lat="45.85105995145441" lon="10.960010553906907"><ele>200.0</ele><time>2026-04-28T08:35:59Z</time></trkpt><trkpt lat="45.851004836730425" lon="10.959939883170376"><ele>200.00000000000003</ele><time>2026-04-28T08:36:02Z</time></trkpt><trkpt lat="45.85099244213937" lon="10.959838886506194"><ele>200.0</ele><time>2026-04-28T08:36:05Z</time></trkpt><trkpt lat="45.850978099288604" lon="10.959736497834312"><ele>200.0</ele><time>2026-04-28T08:36:08Z</time></trkpt><trkpt lat="45.85092465723567" lon="10.95966426746053"><ele>200.0</ele><time>2026-04-28T08:36:12Z</time></trkpt><trkpt lat="45.85098725216136" lon="10.959721892701282"><ele>200.0</ele><time>2026-04-28T08:36:16Z</time></trkpt><trkpt lat="45.85100708309112" lon="10.959828429956245"><ele>200.00000000000003</ele><time>2026-04-28T08:36:19Z</time></trkpt><trkpt lat="45.8510317126163" lon="10.959925690030278"><ele>200.0</ele><time>2026-04-28T08:36:22Z</time></trkpt><trkpt lat="45.85108688087177" lon="10.959989058992367"><ele>200.00000000000003</ele><time>2026-04-28T08:36:25Z</time></trkpt><trkpt lat="45.85115725032842" lon="10.959971844190793"><ele>200.0</ele><time>2026-04-28T08:36:28Z</time></trkpt><trkpt lat="45.85121791311891" lon="10.959936556662349"><ele>200.0</ele><time>2026-04-28T08:36:31Z</time></trkpt><trkpt lat="45.85128517599915" lon="10.95991123094927"><ele>200.0</ele><time>2026-04-28T08:36:34Z</time></trkpt><trkpt lat="45.851355628191016" lon="10.959892266548227"><ele>200.0</ele><time>2026-04-28T08:36:37Z</time></trkpt><trkpt lat="45.85142386652258" lon="10.95988974110364"><ele>200.00000000000003</ele><time>2026-04-28T08:36:40Z</time></trkpt><trkpt lat="45.85149167579659" lon="10.959881093386795"><ele>200.0</ele><time>2026-04-28T08:36:43Z</time></trkpt><trkpt lat="45.851562379864546" lon="10.959862702552789"><ele>200.00000000000003</ele><time>2026-04-28T08:36:46Z</time></trkpt><trkpt lat="45.85163694663573" lon="10.95986035225993"><ele>200.0</ele><time>2026-04-28T08:36:49Z</time></trkpt><trkpt lat="45.85170739848821" lon="10.959851637949393"><ele>200.0</ele><time>2026-04-28T08:36:52Z</time></trkpt><trkpt lat="45.85177690112205" lon="10.95982680699843"><ele>200.0</ele><time>2026-04-28T08:36:55Z</time></trkpt><trkpt lat="45.85184970773101" lon="10.959806616575158"><ele>200.0</ele><time>2026-04-28T08:36:58Z</time></trkpt><trkpt lat="45.85191365983536" lon="10.959767303167329"><ele>200.00000000000003</ele><time>2026-04-28T08:37:01Z</time></trkpt><trkpt lat="45.851982506776" lon="10.959731057675334"><ele>200.0</ele><time>2026-04-28T08:37:04Z</time></trkpt><trkpt lat="45.85204572888794" lon="10.959679098858349"><ele>200.00000000000003</ele><time>2026-04-28T08:37:07Z</time></trkpt><trkpt lat="45.852102908987824" lon="10.95961500752845"><ele>200.0</ele><time>2026-04-28T08:37:10Z</time></trkpt><trkpt lat="45.8521594329933" lon="10.959558776016255"><ele>200.0</ele><time>2026-04-28T08:37:13Z</time></trkpt><trkpt lat="45.85219321622757" lon="10.959470542449179"><ele>200.0</ele><time>2026-04-28T08:37:16Z</time></trkpt><trkpt lat="45.85226177396212" lon="10.959423663618857"><ele>200.0</ele><time>2026-04-28T08:37:19Z</time></trkpt><trkpt lat="45.85228459036116" lon="10.959335367125902"><ele>200.00000000000003</ele><time>2026-04-28T08:37:22Z</time></trkpt><trkpt lat="45.85229735417855" lon="10.959242720432883"><ele>200.0</ele><time>2026-04-28T08:37:25Z</time></trkpt><trkpt lat="45.852340925591605" lon="10.959138197483632"><ele>200.14285714285717</ele><time>2026-04-28T08:37:29Z</time></trkpt><trkpt lat="45.8523421733381" lon="10.959040506128485"><ele>200.28571428571428</ele><time>2026-04-28T08:37:32Z</time></trkpt><trkpt lat="45.852335206553654" lon="10.958938550497956"><ele>200.42857142857144</ele><time>2026-04-28T08:37:35Z</time></trkpt><trkpt lat="45.852336737301115" lon="10.95883797901214"><ele>200.57142857142858</ele><time>2026-04-28T08:37:38Z</time></trkpt><trkpt lat="45.852340151101274" lon="10.958730383587964"><ele>200.71428571428572</ele><time>2026-04-28T08:37:41Z</time></trkpt><trkpt lat="45.85234105500778" lon="10.958634528430352"><ele>200.85714285714286</ele><time>2026-04-28T08:37:44Z</time></trkpt><trkpt lat="45.85235032249044" lon="10.95852867929241"><ele>201.0</ele><time>2026-04-28T08:37:47Z</time></trkpt><trkpt lat="45.85235397070032" lon="10.958433516878657"><ele>200.85714285714286</ele><time>2026-04-28T08:37:50Z</time></trkpt><trkpt lat="45.85236116629495" lon="10.958328144122053"><ele>200.71428571428572</ele><time>2026-04-28T08:37:53Z</time></trkpt><trkpt lat="45.85236287105309" lon="10.958235772454447"><ele>200.57142857142858</ele><time>2026-04-28T08:37:56Z</time></trkpt><trkpt lat="45.85236128339734" lon="10.958135056501261"><ele>200.42857142857144</ele><time>2026-04-28T08:37:59Z</time></trkpt><trkpt lat="45.852362603861216" lon="10.958039268476432"><ele>200.28571428571428</ele><time>2026-04-28T08:38:02Z</time></trkpt><trkpt lat="45.85236879618718" lon="10.957940794860946"><ele>200.14285714285717</ele><time>2026-04-28T08:38:05Z</time></trkpt><trkpt lat="45.85237707927656" lon="10.957841620265512"><ele>200.0</ele><time>2026-04-28T08:38:08Z</time></trkpt><trkpt lat="45.85238398201647" lon="10.957741144349772"><ele>200.00000000000003</ele><time>2026-04-28T08:38:11Z</time></trkpt><trkpt lat="45.85239214254616" lon="10.957641810313874"><ele>200.0</ele><time>2026-04-28T08:38:14Z</time></trkpt><trkpt lat="45.85240065167075" lon="10.95753512802395"><ele>200.0</ele><time>2026-04-28T08:38:17Z</time></trkpt><trkpt lat="45.852406509150214" lon="10.957436146752777"><ele>200.0</ele><time>2026-04-28T08:38:20Z</time></trkpt><trkpt lat="45.852406587028185" lon="10.957339719909047"><ele>200.0</ele><time>2026-04-28T08:38:23Z</time></trkpt><trkpt lat="45.85241845931056" lon="10.957235446683748"><ele>200.00000000000003</ele><time>2026-04-28T08:38:26Z</time></trkpt><trkpt lat="45.852424170467955" lon="10.957139096941686"><ele>200.0</ele><time>2026-04-28T08:38:29Z</time></trkpt><trkpt lat="45.85243695378899" lon="10.957042518729647"><ele>200.2857142857143</ele><time>2026-04-28T08:38:32Z</time></trkpt><trkpt lat="45.852444294539346" lon="10.956945140565843"><ele>200.57142857142858</ele><time>2026-04-28T08:38:35Z</time></trkpt><trkpt lat="45.852454434334426" lon="10.956838490018626"><ele>200.85714285714286</ele><time>2026-04-28T08:38:38Z</time></trkpt><trkpt lat="45.852460124316615" lon="10.956737413675443"><ele>201.14285714285717</ele><time>2026-04-28T08:38:41Z</time></trkpt><trkpt lat="45.852467589748954" lon="10.956634178736545"><ele>201.42857142857142</ele><time>2026-04-28T08:38:44Z</time></trkpt><trkpt lat="45.85247482584304" lon="10.956529137379045"><ele>201.71428571428572</ele><time>2026-04-28T08:38:47Z</time></trkpt><trkpt lat="45.85248164206509" lon="10.956424796661585"><ele>202.0</ele><time>2026-04-28T08:38:50Z</time></trkpt><trkpt lat="45.85249280214321" lon="10.956326674012116"><ele>202.0</ele><time>2026-04-28T08:38:53Z</time></trkpt><trkpt lat="45.852501950253966" lon="10.956224420058971"><ele>202.0</ele><time>2026-04-28T08:38:56Z</time></trkpt><trkpt lat="45.85249099337348" lon="10.95612859898118"><ele>202.0</ele><time>2026-04-28T08:38:59Z</time></trkpt><trkpt lat="45.85250605217712" lon="10.956034320061304"><ele>202.0</ele><time>2026-04-28T08:39:02Z</time></trkpt><trkpt lat="45.85250904725013" lon="10.955930483873258"><ele>202.0</ele><time>2026-04-28T08:39:05Z</time></trkpt><trkpt lat="45.852515119714376" lon="10.95582963080483"><ele>202.0</ele><time>2026-04-28T08:39:08Z</time></trkpt><trkpt lat="45.85252016252164" lon="10.955725103758793"><ele>202.0</ele><time>2026-04-28T08:39:11Z</time></trkpt><trkpt lat="45.85252898439295" lon="10.955630602298141"><ele>201.85714285714286</ele><time>2026-04-28T08:39:14Z</time></trkpt><trkpt lat="45.852537858815005" lon="10.955529193093698"><ele>201.71428571428572</ele><time>2026-04-28T08:39:17Z</time></trkpt><trkpt lat="45.852537538613056" lon="10.955433950144746"><ele>201.57142857142856</ele><time>2026-04-28T08:39:20Z</time></trkpt><trkpt lat="45.85254046646731" lon="10.955337194923818"><ele>201.42857142857144</ele><time>2026-04-28T08:39:23Z</time></trkpt><trkpt lat="45.85253809531715" lon="10.955237686163736"><ele>201.2857142857143</ele><time>2026-04-28T08:39:26Z</time></trkpt><trkpt lat="45.85253505502958" lon="10.955139739820178"><ele>201.14285714285714</ele><time>2026-04-28T08:39:29Z</time></trkpt><trkpt lat="45.852536842722806" lon="10.955042180249828"><ele>201.0</ele><time>2026-04-28T08:39:32Z</time></trkpt><trkpt lat="45.85252652246653" lon="10.954944899403207"><ele>201.0</ele><time>2026-04-28T08:39:35Z</time></trkpt><trkpt lat="45.85253356006479" lon="10.954838856736616"><ele>201.0</ele><time>2026-04-28T08:39:38Z</time></trkpt><trkpt lat="45.85253762549198" lon="10.954747182774783"><ele>201.0</ele><time>2026-04-28T08:39:41Z</time></trkpt><trkpt lat="45.85255137727697" lon="10.954647678861917"><ele>201.0</ele><time>2026-04-28T08:39:44Z</time></trkpt><trkpt lat="45.852581868234054" lon="10.954554036486451"><ele>201.0</ele><time>2026-04-28T08:39:47Z</time></trkpt><trkpt lat="45.852604106807256" lon="10.954460090641902"><ele>201.0</ele><time>2026-04-28T08:39:50Z</time></trkpt><trkpt lat="45.852642308434845" lon="10.95437323839303"><ele>201.0</ele><time>2026-04-28T08:39:53Z</time></trkpt><trkpt lat="45.85267116048543" lon="10.954284430167716"><ele>201.28571428571428</ele><time>2026-04-28T08:39:56Z</time></trkpt><trkpt lat="45.852708872658745" lon="10.95419870369297"><ele>201.57142857142858</ele><time>2026-04-28T08:39:59Z</time></trkpt><trkpt lat="45.85274370005142" lon="10.954113740794106"><ele>201.85714285714286</ele><time>2026-04-28T08:40:02Z</time></trkpt><trkpt lat="45.85278502609552" lon="10.954040352232598"><ele>202.14285714285714</ele><time>2026-04-28T08:40:05Z</time></trkpt><trkpt lat="45.852827077346646" lon="10.953955911281358"><ele>202.42857142857144</ele><time>2026-04-28T08:40:08Z</time></trkpt><trkpt lat="45.852864160879115" lon="10.953865701524228"><ele>202.71428571428572</ele><time>2026-04-28T08:40:11Z</time></trkpt><trkpt lat="45.852896424120736" lon="10.953779161165821"><ele>203.0</ele><time>2026-04-28T08:40:14Z</time></trkpt><trkpt lat="45.852927892101604" lon="10.953684730898285"><ele>203.0</ele><time>2026-04-28T08:40:17Z</time></trkpt><trkpt lat="45.85296700632229" lon="10.953599499998807"><ele>203.0</ele><time>2026-04-28T08:40:20Z</time></trkpt><trkpt lat="45.85300532995611" lon="10.95351792487251"><ele>203.0</ele><time>2026-04-28T08:40:23Z</time></trkpt><trkpt lat="45.853038233238166" lon="10.953436440443582"><ele>203.0</ele><time>2026-04-28T08:40:26Z</time></trkpt><trkpt lat="45.85308251858803" lon="10.953354259268739"><ele>203.0</ele><time>2026-04-28T08:40:29Z</time></trkpt><trkpt lat="45.85313114856801" lon="10.953283788995481"><ele>203.0</ele><time>2026-04-28T08:40:32Z</time></trkpt><trkpt lat="45.85317374321806" lon="10.953216973496124"><ele>203.0</ele><time>2026-04-28T08:40:35Z</time></trkpt><trkpt lat="45.853224058042194" lon="10.953151870842584"><ele>203.0</ele><time>2026-04-28T08:40:38Z</time></trkpt><trkpt lat="45.85327478173203" lon="10.953081569890116"><ele>203.0</ele><time>2026-04-28T08:40:41Z</time></trkpt><trkpt lat="45.85332497946918" lon="10.953016019338143"><ele>203.0</ele><time>2026-04-28T08:40:44Z</time></trkpt><trkpt lat="45.853370003561395" lon="10.952941302573874"><ele>203.0</ele><time>2026-04-28T08:40:47Z</time></trkpt><trkpt lat="45.853416042620125" lon="10.9528754237978"><ele>203.0</ele><time>2026-04-28T08:40:50Z</time></trkpt><trkpt lat="45.85346332249437" lon="10.952797886055409"><ele>203.0</ele><time>2026-04-28T08:40:53Z</time></trkpt><trkpt lat="45.85350756234615" lon="10.952716926414977"><ele>203.0</ele><time>2026-04-28T08:40:56Z</time></trkpt><trkpt lat="45.85354590933712" lon="10.952635216152963"><ele>203.71428571428572</ele><time>2026-04-28T08:40:59Z</time></trkpt><trkpt lat="45.85357935498224" lon="10.952545663062935"><ele>204.42857142857144</ele><time>2026-04-28T08:41:02Z</time></trkpt><trkpt lat="45.85361200914672" lon="10.952452509661063"><ele>205.14285714285714</ele><time>2026-04-28T08:41:05Z</time></trkpt><trkpt lat="45.853637455158086" lon="10.952358050132354"><ele>205.85714285714286</ele><time>2026-04-28T08:41:08Z</time></trkpt><trkpt lat="45.85365579895298" lon="10.95226501327715"><ele>206.57142857142858</ele><time>2026-04-28T08:41:11Z</time></trkpt><trkpt lat="45.85367212234245" lon="10.952166759579688"><ele>207.28571428571428</ele><time>2026-04-28T08:41:14Z</time></trkpt><trkpt lat="45.853692525313306" lon="10.952076594287826"><ele>208.0</ele><time>2026-04-28T08:41:17Z</time></trkpt><trkpt lat="45.853715534780534" lon="10.95198096564616"><ele>208.0</ele><time>2026-04-28T08:41:20Z</time></trkpt><trkpt lat="45.85373159223256" lon="10.951885378309976"><ele>208.0</ele><time>2026-04-28T08:41:23Z</time></trkpt><trkpt lat="45.85375045198847" lon="10.951788592913502"><ele>208.0</ele><time>2026-04-28T08:41:26Z</time></trkpt><trkpt lat="45.853765694931205" lon="10.95169147505636"><ele>208.0</ele><time>2026-04-28T08:41:29Z</time></trkpt><trkpt lat="45.85378543264053" lon="10.951594116954224"><ele>208.0</ele><time>2026-04-28T08:41:32Z</time></trkpt><trkpt lat="45.85379788712656" lon="10.951496614179186"><ele>208.0</ele><time>2026-04-28T08:41:35Z</time></trkpt><trkpt lat="45.85380571479898" lon="10.951397648109863"><ele>208.0</ele><time>2026-04-28T08:41:38Z</time></trkpt><trkpt lat="45.85382082858945" lon="10.951306139081929"><ele>208.0</ele><time>2026-04-28T08:41:41Z</time></trkpt><trkpt lat="45.853825863007735" lon="10.95120962754911"><ele>208.0</ele><time>2026-04-28T08:41:44Z</time></trkpt><trkpt lat="45.853834277809405" lon="10.951115191957491"><ele>208.0</ele><time>2026-04-28T08:41:47Z</time></trkpt><trkpt lat="45.85384340640758" lon="10.95102271003767"><ele>208.0</ele><time>2026-04-28T08:41:50Z</time></trkpt><trkpt lat="45.85385194714287" lon="10.950924238985577"><ele>208.0</ele><time>2026-04-28T08:41:53Z</time></trkpt><trkpt lat="45.853860995403274" lon="10.950823670709202"><ele>208.0</ele><time>2026-04-28T08:41:56Z</time></trkpt><trkpt lat="45.85387053093548" lon="10.950726315970082"><ele>208.0</ele><time>2026-04-28T08:41:59Z</time></trkpt><trkpt lat="45.85387803041783" lon="10.95062720606563"><ele>207.85714285714286</ele><time>2026-04-28T08:42:02Z</time></trkpt><trkpt lat="45.853887284117896" lon="10.9505261025545"><ele>207.71428571428572</ele><time>2026-04-28T08:42:05Z</time></trkpt><trkpt lat="45.85390033758207" lon="10.950428214464225"><ele>207.57142857142858</ele><time>2026-04-28T08:42:08Z</time></trkpt><trkpt lat="45.85391272567156" lon="10.95033247204572"><ele>207.42857142857144</ele><time>2026-04-28T08:42:11Z</time></trkpt><trkpt lat="45.85392152501851" lon="10.950234938355697"><ele>207.28571428571428</ele><time>2026-04-28T08:42:14Z</time></trkpt><trkpt lat="45.85393500179526" lon="10.950141151775076"><ele>207.14285714285717</ele><time>2026-04-28T08:42:17Z</time></trkpt><trkpt lat="45.85393895606499" lon="10.950038366224073"><ele>207.0</ele><time>2026-04-28T08:42:20Z</time></trkpt><trkpt lat="45.853951901699894" lon="10.94994228363777"><ele>207.2857142857143</ele><time>2026-04-28T08:42:23Z</time></trkpt><trkpt lat="45.85396425824541" lon="10.949838893210975"><ele>207.57142857142858</ele><time>2026-04-28T08:42:26Z</time></trkpt><trkpt lat="45.85397460875766" lon="10.94973825368309"><ele>207.85714285714286</ele><time>2026-04-28T08:42:29Z</time></trkpt><trkpt lat="45.85398577193349" lon="10.94963458486375"><ele>208.14285714285717</ele><time>2026-04-28T08:42:32Z</time></trkpt><trkpt lat="45.85399471411954" lon="10.949534634062067"><ele>208.42857142857142</ele><time>2026-04-28T08:42:35Z</time></trkpt><trkpt lat="45.85400196208559" lon="10.94943284819439"><ele>208.71428571428572</ele><time>2026-04-28T08:42:38Z</time></trkpt><trkpt lat="45.8540140782734" lon="10.94933140321504"><ele>209.0</ele><time>2026-04-28T08:42:41Z</time></trkpt><trkpt lat="45.85401956271448" lon="10.949228245950787"><ele>208.85714285714286</ele><time>2026-04-28T08:42:44Z</time></trkpt><trkpt lat="45.85403464178373" lon="10.949125760348576"><ele>208.71428571428572</ele><time>2026-04-28T08:42:47Z</time></trkpt><trkpt lat="45.85403995310599" lon="10.949023223314182"><ele>208.57142857142856</ele><time>2026-04-28T08:42:50Z</time></trkpt><trkpt lat="45.85405200143749" lon="10.94891746430615"><ele>208.42857142857144</ele><time>2026-04-28T08:42:53Z</time></trkpt><trkpt lat="45.85405850768043" lon="10.948814954475923"><ele>208.2857142857143</ele><time>2026-04-28T08:42:56Z</time></trkpt><trkpt lat="45.85406182944257" lon="10.948711016495482"><ele>208.14285714285714</ele><time>2026-04-28T08:42:59Z</time></trkpt><trkpt lat="45.85407700874777" lon="10.948608557820828"><ele>208.0</ele><time>2026-04-28T08:43:02Z</time></trkpt><trkpt lat="45.854080307182365" lon="10.948502179553055"><ele>208.0</ele><time>2026-04-28T08:43:05Z</time></trkpt><trkpt lat="45.854088959306196" lon="10.948401160860495"><ele>208.0</ele><time>2026-04-28T08:43:08Z</time></trkpt><trkpt lat="45.85408848714982" lon="10.948299277445802"><ele>208.0</ele><time>2026-04-28T08:43:11Z</time></trkpt><trkpt lat="45.85409252377744" lon="10.948190373253702"><ele>208.0</ele><time>2026-04-28T08:43:14Z</time></trkpt><trkpt lat="45.854085613412536" lon="10.948083816612266"><ele>208.0</ele><time>2026-04-28T08:43:17Z</time></trkpt><trkpt lat="45.8540783081897" lon="10.947990152734643"><ele>208.0</ele><time>2026-04-28T08:43:20Z</time></trkpt><trkpt lat="45.85406665379027" lon="10.947868420551254"><ele>208.0</ele><time>2026-04-28T08:43:24Z</time></trkpt><trkpt lat="45.85406107520043" lon="10.94777015510755"><ele>208.0</ele><time>2026-04-28T08:43:27Z</time></trkpt><trkpt lat="45.85404915611092" lon="10.947668419274324"><ele>208.0</ele><time>2026-04-28T08:43:30Z</time></trkpt><trkpt lat="45.85403718839107" lon="10.947569246564415"><ele>208.0</ele><time>2026-04-28T08:43:33Z</time></trkpt><trkpt lat="45.85403209522856" lon="10.947472959317569"><ele>208.0</ele><time>2026-04-28T08:43:36Z</time></trkpt><trkpt lat="45.85402397353367" lon="10.947368289368335"><ele>208.0</ele><time>2026-04-28T08:43:39Z</time></trkpt><trkpt lat="45.85401119625599" lon="10.947263969964498"><ele>208.0</ele><time>2026-04-28T08:43:42Z</time></trkpt><trkpt lat="45.85399802874698" lon="10.947169643393634"><ele>208.0</ele><time>2026-04-28T08:43:45Z</time></trkpt><trkpt lat="45.85398918728476" lon="10.947073945692766"><ele>208.0</ele><time>2026-04-28T08:43:48Z</time></trkpt><trkpt lat="45.8539826735979" lon="10.94697763814257"><ele>208.0</ele><time>2026-04-28T08:43:51Z</time></trkpt><trkpt lat="45.85397234772917" lon="10.946875542108733"><ele>208.0</ele><time>2026-04-28T08:43:54Z</time></trkpt><trkpt lat="45.85396331080764" lon="10.946778195817046"><ele>208.0</ele><time>2026-04-28T08:43:57Z</time></trkpt><trkpt lat="45.853959362979715" lon="10.946682523127377"><ele>208.0</ele><time>2026-04-28T08:44:00Z</time></trkpt><trkpt lat="45.85395013313991" lon="10.946584644705931"><ele>208.0</ele><time>2026-04-28T08:44:03Z</time></trkpt><trkpt lat="45.85393847739931" lon="10.946485885033308"><ele>208.0</ele><time>2026-04-28T08:44:06Z</time></trkpt><trkpt lat="45.85393116166341" lon="10.946382425062257"><ele>208.0</ele><time>2026-04-28T08:44:09Z</time></trkpt><trkpt lat="45.8539184765274" lon="10.9462839521454"><ele>208.0</ele><time>2026-04-28T08:44:12Z</time></trkpt><trkpt lat="45.85391583811728" lon="10.946178114033058"><ele>208.0</ele><time>2026-04-28T08:44:15Z</time></trkpt><trkpt lat="45.85390492014505" lon="10.946080562605653"><ele>208.0</ele><time>2026-04-28T08:44:18Z</time></trkpt><trkpt lat="45.85389680999813" lon="10.945977512048243"><ele>208.0</ele><time>2026-04-28T08:44:21Z</time></trkpt><trkpt lat="45.85388956982102" lon="10.945873237938157"><ele>208.0</ele><time>2026-04-28T08:44:24Z</time></trkpt><trkpt lat="45.85388328285478" lon="10.945777666443359"><ele>208.0</ele><time>2026-04-28T08:44:27Z</time></trkpt><trkpt lat="45.8538747448501" lon="10.945672629201251"><ele>208.0</ele><time>2026-04-28T08:44:30Z</time></trkpt><trkpt lat="45.85388317312029" lon="10.945572820793101"><ele>208.0</ele><time>2026-04-28T08:44:33Z</time></trkpt><trkpt lat="45.85387640817807" lon="10.94548094349426"><ele>208.0</ele><time>2026-04-28T08:44:36Z</time></trkpt><trkpt lat="45.853870022243406" lon="10.94537542902859"><ele>208.0</ele><time>2026-04-28T08:44:39Z</time></trkpt><trkpt lat="45.853866969861585" lon="10.945275278403468"><ele>208.0</ele><time>2026-04-28T08:44:42Z</time></trkpt><trkpt lat="45.853865422661784" lon="10.945178826239394"><ele>208.0</ele><time>2026-04-28T08:44:45Z</time></trkpt><trkpt lat="45.85386162463505" lon="10.945079168607057"><ele>208.0</ele><time>2026-04-28T08:44:48Z</time></trkpt><trkpt lat="45.853859325434414" lon="10.944976456114741"><ele>207.7142857142857</ele><time>2026-04-28T08:44:51Z</time></trkpt><trkpt lat="45.85385201605989" lon="10.944872776283333"><ele>207.42857142857144</ele><time>2026-04-28T08:44:54Z</time></trkpt><trkpt lat="45.85384743142961" lon="10.94477844954449"><ele>207.14285714285714</ele><time>2026-04-28T08:44:57Z</time></trkpt><trkpt lat="45.85384571981226" lon="10.944678966667288"><ele>206.85714285714283</ele><time>2026-04-28T08:45:00Z</time></trkpt><trkpt lat="45.85385371773248" lon="10.944585203422612"><ele>206.57142857142856</ele><time>2026-04-28T08:45:03Z</time></trkpt><trkpt lat="45.85384963003345" lon="10.944484725434886"><ele>206.28571428571428</ele><time>2026-04-28T08:45:06Z</time></trkpt><trkpt lat="45.85384717766129" lon="10.944387235896693"><ele>206.0</ele><time>2026-04-28T08:45:09Z</time></trkpt><trkpt lat="45.85384641736271" lon="10.94428734966673"><ele>206.14285714285714</ele><time>2026-04-28T08:45:12Z</time></trkpt><trkpt lat="45.85384059010777" lon="10.94418468110753"><ele>206.28571428571428</ele><time>2026-04-28T08:45:15Z</time></trkpt><trkpt lat="45.85383504638374" lon="10.944083469016698"><ele>206.42857142857144</ele><time>2026-04-28T08:45:18Z</time></trkpt><trkpt lat="45.85383923776939" lon="10.943973168255377"><ele>206.57142857142856</ele><time>2026-04-28T08:45:21Z</time></trkpt><trkpt lat="45.8538417838549" lon="10.94387660056953"><ele>206.71428571428572</ele><time>2026-04-28T08:45:24Z</time></trkpt><trkpt lat="45.8538375737827" lon="10.9437773696778"><ele>206.85714285714286</ele><time>2026-04-28T08:45:27Z</time></trkpt><trkpt lat="45.85383513910947" lon="10.94367729945768"><ele>207.0</ele><time>2026-04-28T08:45:30Z</time></trkpt><trkpt lat="45.85383673463287" lon="10.943568566282947"><ele>207.00000000000003</ele><time>2026-04-28T08:45:33Z</time></trkpt><trkpt lat="45.85384474960929" lon="10.943471209886562"><ele>207.0</ele><time>2026-04-28T08:45:36Z</time></trkpt><trkpt lat="45.8538503031139" lon="10.943377346634163"><ele>207.0</ele><time>2026-04-28T08:45:39Z</time></trkpt><trkpt lat="45.853850551682335" lon="10.943279553028924"><ele>207.0</ele><time>2026-04-28T08:45:42Z</time></trkpt><trkpt lat="45.85386784393605" lon="10.943176674742059"><ele>207.0</ele><time>2026-04-28T08:45:45Z</time></trkpt><trkpt lat="45.85388209966942" lon="10.94308082843694"><ele>207.00000000000003</ele><time>2026-04-28T08:45:48Z</time></trkpt><trkpt lat="45.85389272131497" lon="10.942984388493276"><ele>207.0</ele><time>2026-04-28T08:45:51Z</time></trkpt><trkpt lat="45.85390412737043" lon="10.942888237597113"><ele>207.14285714285717</ele><time>2026-04-28T08:45:54Z</time></trkpt><trkpt lat="45.85391304136498" lon="10.942791911896185"><ele>207.28571428571428</ele><time>2026-04-28T08:45:57Z</time></trkpt><trkpt lat="45.853920339950676" lon="10.942694289921318"><ele>207.42857142857144</ele><time>2026-04-28T08:46:00Z</time></trkpt><trkpt lat="45.85392841073436" lon="10.942596773264887"><ele>207.57142857142858</ele><time>2026-04-28T08:46:03Z</time></trkpt><trkpt lat="45.853928617733665" lon="10.942498545280838"><ele>207.71428571428572</ele><time>2026-04-28T08:46:06Z</time></trkpt><trkpt lat="45.853949115370675" lon="10.942404165531997"><ele>207.85714285714286</ele><time>2026-04-28T08:46:09Z</time></trkpt><trkpt lat="45.85395912420623" lon="10.942310628512594"><ele>208.0</ele><time>2026-04-28T08:46:12Z</time></trkpt><trkpt lat="45.85397087730594" lon="10.94221363650883"><ele>208.14285714285714</ele><time>2026-04-28T08:46:15Z</time></trkpt><trkpt lat="45.8539793160232" lon="10.942117996497648"><ele>208.2857142857143</ele><time>2026-04-28T08:46:18Z</time></trkpt><trkpt lat="45.853996817299766" lon="10.942026605309337"><ele>208.42857142857144</ele><time>2026-04-28T08:46:21Z</time></trkpt><trkpt lat="45.85401456239812" lon="10.9419349849967"><ele>208.57142857142856</ele><time>2026-04-28T08:46:24Z</time></trkpt><trkpt lat="45.85402677797906" lon="10.941837869122297"><ele>208.71428571428572</ele><time>2026-04-28T08:46:27Z</time></trkpt><trkpt lat="45.85405524924802" lon="10.941742548845145"><ele>208.85714285714286</ele><time>2026-04-28T08:46:30Z</time></trkpt><trkpt lat="45.85408193528281" lon="10.941651691266019"><ele>209.0</ele><time>2026-04-28T08:46:33Z</time></trkpt><trkpt lat="45.85410132881141" lon="10.941558977533978"><ele>209.0</ele><time>2026-04-28T08:46:36Z</time></trkpt><trkpt lat="45.85412374999504" lon="10.941467072129372"><ele>209.0</ele><time>2026-04-28T08:46:39Z</time></trkpt><trkpt lat="45.85414700464496" lon="10.941372224937723"><ele>209.0</ele><time>2026-04-28T08:46:42Z</time></trkpt><trkpt lat="45.85416280640775" lon="10.941279853181342"><ele>209.0</ele><time>2026-04-28T08:46:45Z</time></trkpt><trkpt lat="45.854189766189876" lon="10.941192440406446"><ele>209.0</ele><time>2026-04-28T08:46:48Z</time></trkpt><trkpt lat="45.85420552855344" lon="10.941095929028105"><ele>209.0</ele><time>2026-04-28T08:46:51Z</time></trkpt><trkpt lat="45.854227622681215" lon="10.941004316167797"><ele>209.0</ele><time>2026-04-28T08:46:54Z</time></trkpt><trkpt lat="45.854243538219386" lon="10.940904325356964"><ele>209.0</ele><time>2026-04-28T08:46:57Z</time></trkpt><trkpt lat="45.854266220605055" lon="10.94081652286582"><ele>209.0</ele><time>2026-04-28T08:47:00Z</time></trkpt><trkpt lat="45.85428506954524" lon="10.94071079744972"><ele>209.0</ele><time>2026-04-28T08:47:03Z</time></trkpt><trkpt lat="45.85430491234983" lon="10.940619419875786"><ele>209.0</ele><time>2026-04-28T08:47:06Z</time></trkpt><trkpt lat="45.85432209088657" lon="10.94052998714211"><ele>209.0</ele><time>2026-04-28T08:47:09Z</time></trkpt><trkpt lat="45.854337138047896" lon="10.940431867696908"><ele>209.0</ele><time>2026-04-28T08:47:12Z</time></trkpt><trkpt lat="45.854360121908265" lon="10.9403398984385"><ele>209.0</ele><time>2026-04-28T08:47:15Z</time></trkpt><trkpt lat="45.85438141342542" lon="10.940241420201469"><ele>209.71428571428572</ele><time>2026-04-28T08:47:18Z</time></trkpt><trkpt lat="45.85440358859661" lon="10.940153956714388"><ele>210.42857142857142</ele><time>2026-04-28T08:47:21Z</time></trkpt><trkpt lat="45.85442970893321" lon="10.94006322204661"><ele>211.14285714285717</ele><time>2026-04-28T08:47:24Z</time></trkpt><trkpt lat="45.85445077517499" lon="10.939973633429606"><ele>211.85714285714286</ele><time>2026-04-28T08:47:27Z</time></trkpt><trkpt lat="45.85447621691615" lon="10.93988407613685"><ele>212.57142857142858</ele><time>2026-04-28T08:47:30Z</time></trkpt><trkpt lat="45.85449877846948" lon="10.939792843506194"><ele>213.2857142857143</ele><time>2026-04-28T08:47:33Z</time></trkpt><trkpt lat="45.854512386397495" lon="10.939702071405732"><ele>214.0</ele><time>2026-04-28T08:47:36Z</time></trkpt><trkpt lat="45.854528074958765" lon="10.939608801882091"><ele>214.57142857142858</ele><time>2026-04-28T08:47:39Z</time></trkpt><trkpt lat="45.85454433051172" lon="10.93951835820343"><ele>215.14285714285714</ele><time>2026-04-28T08:47:42Z</time></trkpt><trkpt lat="45.85455906435999" lon="10.939426358160942"><ele>215.71428571428572</ele><time>2026-04-28T08:47:45Z</time></trkpt><trkpt lat="45.85456794780759" lon="10.939326051092703"><ele>216.28571428571428</ele><time>2026-04-28T08:47:48Z</time></trkpt><trkpt lat="45.854574384438784" lon="10.939232659120323"><ele>216.85714285714286</ele><time>2026-04-28T08:47:51Z</time></trkpt><trkpt lat="45.85458761681849" lon="10.939140895099348"><ele>217.42857142857144</ele><time>2026-04-28T08:47:54Z</time></trkpt><trkpt lat="45.85458856506092" lon="10.939043537466556"><ele>218.0</ele><time>2026-04-28T08:47:57Z</time></trkpt><trkpt lat="45.8545781791877" lon="10.93895211535328"><ele>218.0</ele><time>2026-04-28T08:48:00Z</time></trkpt><trkpt lat="45.854556687265706" lon="10.938855931903936"><ele>218.0</ele><time>2026-04-28T08:48:03Z</time></trkpt><trkpt lat="45.85453821206337" lon="10.938766978637451"><ele>218.0</ele><time>2026-04-28T08:48:06Z</time></trkpt><trkpt lat="45.85451102008537" lon="10.938674706116124"><ele>218.0</ele><time>2026-04-28T08:48:09Z</time></trkpt><trkpt lat="45.854481976437086" lon="10.938586227583695"><ele>218.0</ele><time>2026-04-28T08:48:12Z</time></trkpt><trkpt lat="45.85445303522447" lon="10.938496332130212"><ele>218.0</ele><time>2026-04-28T08:48:15Z</time></trkpt><trkpt lat="45.85442450820312" lon="10.938406401168328"><ele>218.0</ele><time>2026-04-28T08:48:18Z</time></trkpt><trkpt lat="45.854397851911074" lon="10.938315338662807"><ele>218.14285714285714</ele><time>2026-04-28T08:48:21Z</time></trkpt><trkpt lat="45.85436628990318" lon="10.938236679191515"><ele>218.28571428571428</ele><time>2026-04-28T08:48:24Z</time></trkpt><trkpt lat="45.854335584040626" lon="10.938149488808625"><ele>218.42857142857144</ele><time>2026-04-28T08:48:27Z</time></trkpt><trkpt lat="45.854303133115515" lon="10.938066960061025"><ele>218.57142857142856</ele><time>2026-04-28T08:48:30Z</time></trkpt><trkpt lat="45.85427005568811" lon="10.937984957905195"><ele>218.7142857142857</ele><time>2026-04-28T08:48:33Z</time></trkpt><trkpt lat="45.85424495997699" lon="10.93789721285564"><ele>218.85714285714286</ele><time>2026-04-28T08:48:36Z</time></trkpt><trkpt lat="45.85421014332557" lon="10.937813388162061"><ele>219.0</ele><time>2026-04-28T08:48:39Z</time></trkpt><trkpt lat="45.854178952688336" lon="10.93772580058214"><ele>218.85714285714286</ele><time>2026-04-28T08:48:42Z</time></trkpt><trkpt lat="45.85415025863449" lon="10.93763800256582"><ele>218.7142857142857</ele><time>2026-04-28T08:48:45Z</time></trkpt><trkpt lat="45.85411324319885" lon="10.93752304576336"><ele>218.57142857142856</ele><time>2026-04-28T08:48:49Z</time></trkpt><trkpt lat="45.854084417198905" lon="10.93743157308175"><ele>218.42857142857144</ele><time>2026-04-28T08:48:52Z</time></trkpt><trkpt lat="45.85406180701436" lon="10.937340554670623"><ele>218.28571428571428</ele><time>2026-04-28T08:48:55Z</time></trkpt><trkpt lat="45.85406923496699" lon="10.937238386715538"><ele>218.14285714285714</ele><time>2026-04-28T08:48:58Z</time></trkpt><trkpt lat="45.854073492608556" lon="10.937135811555166"><ele>218.0</ele><time>2026-04-28T08:49:01Z</time></trkpt><trkpt lat="45.85408168439847" lon="10.937039704323919"><ele>218.0</ele><time>2026-04-28T08:49:04Z</time></trkpt><trkpt lat="45.85408928217311" lon="10.936942692492888"><ele>218.0</ele><time>2026-04-28T08:49:07Z</time></trkpt><trkpt lat="45.854094788863215" lon="10.936841203509521"><ele>218.0</ele><time>2026-04-28T08:49:10Z</time></trkpt><trkpt lat="45.85409886603414" lon="10.936737548137147"><ele>218.0</ele><time>2026-04-28T08:49:13Z</time></trkpt><trkpt lat="45.854096738364305" lon="10.936643392110167"><ele>218.0</ele><time>2026-04-28T08:49:16Z</time></trkpt><trkpt lat="45.85408954491123" lon="10.936541286972572"><ele>218.0</ele><time>2026-04-28T08:49:19Z</time></trkpt><trkpt lat="45.85408533573535" lon="10.936441439361062"><ele>218.0</ele><time>2026-04-28T08:49:22Z</time></trkpt><trkpt lat="45.85409251327246" lon="10.93634140513281"><ele>218.28571428571428</ele><time>2026-04-28T08:49:25Z</time></trkpt><trkpt lat="45.85410934453557" lon="10.936246858810067"><ele>218.57142857142858</ele><time>2026-04-28T08:49:28Z</time></trkpt><trkpt lat="45.8541239209544" lon="10.936149806720925"><ele>218.85714285714283</ele><time>2026-04-28T08:49:31Z</time></trkpt><trkpt lat="45.85414030607589" lon="10.936056940872412"><ele>219.14285714285714</ele><time>2026-04-28T08:49:34Z</time></trkpt><trkpt lat="45.85416065537193" lon="10.935957912163293"><ele>219.42857142857142</ele><time>2026-04-28T08:49:37Z</time></trkpt><trkpt lat="45.85418122196708" lon="10.935860708533921"><ele>219.7142857142857</ele><time>2026-04-28T08:49:40Z</time></trkpt><trkpt lat="45.85419984416443" lon="10.935772694697086"><ele>220.0</ele><time>2026-04-28T08:49:43Z</time></trkpt><trkpt lat="45.85421933963499" lon="10.935680553505481"><ele>220.28571428571428</ele><time>2026-04-28T08:49:46Z</time></trkpt><trkpt lat="45.85424015604639" lon="10.935583956622496"><ele>220.57142857142856</ele><time>2026-04-28T08:49:49Z</time></trkpt><trkpt lat="45.85425984530524" lon="10.935493118485692"><ele>220.85714285714283</ele><time>2026-04-28T08:49:52Z</time></trkpt><trkpt lat="45.85428050190942" lon="10.935397817650824"><ele>221.14285714285714</ele><time>2026-04-28T08:49:55Z</time></trkpt><trkpt lat="45.85430063260866" lon="10.935304943121722"><ele>221.42857142857144</ele><time>2026-04-28T08:49:58Z</time></trkpt><trkpt lat="45.85432739533778" lon="10.935208721551872"><ele>221.7142857142857</ele><time>2026-04-28T08:50:01Z</time></trkpt><trkpt lat="45.85434281669536" lon="10.935110825524891"><ele>222.0</ele><time>2026-04-28T08:50:04Z</time></trkpt><trkpt lat="45.85436255038619" lon="10.935019280696427"><ele>222.14285714285714</ele><time>2026-04-28T08:50:07Z</time></trkpt><trkpt lat="45.85438225875293" lon="10.934928354769523"><ele>222.2857142857143</ele><time>2026-04-28T08:50:10Z</time></trkpt><trkpt lat="45.85440478383947" lon="10.934824148674684"><ele>222.42857142857144</ele><time>2026-04-28T08:50:13Z</time></trkpt><trkpt lat="45.85442631809871" lon="10.934718561316819"><ele>222.57142857142856</ele><time>2026-04-28T08:50:16Z</time></trkpt><trkpt lat="45.85444584073631" lon="10.934617147926577"><ele>222.71428571428572</ele><time>2026-04-28T08:50:19Z</time></trkpt><trkpt lat="45.85446280914114" lon="10.934529002878783"><ele>222.85714285714286</ele><time>2026-04-28T08:50:23Z</time></trkpt><trkpt lat="45.854398961018155" lon="10.934530984398464"><ele>223.0</ele><time>2026-04-28T08:50:27Z</time></trkpt><trkpt lat="45.85426285332171" lon="10.934476565774393"><ele>223.0</ele><time>2026-04-28T08:50:29Z</time></trkpt><trkpt lat="45.85419598380609" lon="10.934469494025508"><ele>223.0</ele><time>2026-04-28T08:50:32Z</time></trkpt><trkpt lat="45.85413059387972" lon="10.934454760205458"><ele>223.0</ele><time>2026-04-28T08:50:35Z</time></trkpt><trkpt lat="45.85405060116892" lon="10.934426612970643"><ele>223.0</ele><time>2026-04-28T08:50:39Z</time></trkpt><trkpt lat="45.85398094960411" lon="10.93440797098977"><ele>223.0</ele><time>2026-04-28T08:50:42Z</time></trkpt><trkpt lat="45.85391677178628" lon="10.934401018235233"><ele>223.0</ele><time>2026-04-28T08:50:45Z</time></trkpt><trkpt lat="45.853849083770825" lon="10.934377143089433"><ele>223.0</ele><time>2026-04-28T08:50:48Z</time></trkpt><trkpt lat="45.85378038907452" lon="10.934370352955867"><ele>223.0</ele><time>2026-04-28T08:50:51Z</time></trkpt><trkpt lat="45.85371480611103" lon="10.934357313172434"><ele>223.0</ele><time>2026-04-28T08:50:54Z</time></trkpt><trkpt lat="45.85364176216772" lon="10.934347877981946"><ele>223.0</ele><time>2026-04-28T08:50:57Z</time></trkpt><trkpt lat="45.8535723528079" lon="10.934333874627713"><ele>223.0</ele><time>2026-04-28T08:51:00Z</time></trkpt><trkpt lat="45.853507931893894" lon="10.934312860685779"><ele>223.0</ele><time>2026-04-28T08:51:03Z</time></trkpt><trkpt lat="45.853437934570444" lon="10.934296201125386"><ele>223.0</ele><time>2026-04-28T08:51:06Z</time></trkpt><trkpt lat="45.85335381886459" lon="10.934266789263063"><ele>223.0</ele><time>2026-04-28T08:51:09Z</time></trkpt><trkpt lat="45.853283987763504" lon="10.93427280131877"><ele>222.71428571428572</ele><time>2026-04-28T08:51:12Z</time></trkpt><trkpt lat="45.85322173394931" lon="10.934255378342462"><ele>222.42857142857142</ele><time>2026-04-28T08:51:15Z</time></trkpt><trkpt lat="45.8531500066263" lon="10.93423676326555"><ele>222.14285714285717</ele><time>2026-04-28T08:51:18Z</time></trkpt><trkpt lat="45.8530821264345" lon="10.934228274682726"><ele>221.85714285714286</ele><time>2026-04-28T08:51:21Z</time></trkpt><trkpt lat="45.85301229327213" lon="10.93421588625629"><ele>221.57142857142858</ele><time>2026-04-28T08:51:24Z</time></trkpt><trkpt lat="45.85294041270973" lon="10.934210876164528"><ele>221.2857142857143</ele><time>2026-04-28T08:51:27Z</time></trkpt><trkpt lat="45.8528691031834" lon="10.934184500167163"><ele>221.0</ele><time>2026-04-28T08:51:30Z</time></trkpt><trkpt lat="45.852796993221425" lon="10.934179816998737"><ele>221.00000000000003</ele><time>2026-04-28T08:51:33Z</time></trkpt><trkpt lat="45.8527188753939" lon="10.934165721153793"><ele>221.0</ele><time>2026-04-28T08:51:36Z</time></trkpt><trkpt lat="45.852655919370726" lon="10.93414048984915"><ele>221.0</ele><time>2026-04-28T08:51:39Z</time></trkpt><trkpt lat="45.85258618798585" lon="10.934131134818815"><ele>221.0</ele><time>2026-04-28T08:51:42Z</time></trkpt><trkpt lat="45.85251488127355" lon="10.934116708817205"><ele>221.0</ele><time>2026-04-28T08:51:45Z</time></trkpt><trkpt lat="45.852438933211495" lon="10.93408860611196"><ele>221.00000000000003</ele><time>2026-04-28T08:51:48Z</time></trkpt><trkpt lat="45.852371972159915" lon="10.934069354703217"><ele>221.0</ele><time>2026-04-28T08:51:51Z</time></trkpt><trkpt lat="45.85230507007864" lon="10.934052017305305"><ele>220.33333333333334</ele><time>2026-04-28T08:51:54Z</time></trkpt><trkpt lat="45.85222927522232" lon="10.934024969408373"><ele>219.66666666666669</ele><time>2026-04-28T08:51:57Z</time></trkpt><trkpt lat="45.85215985191903" lon="10.933994185225748"><ele>219.0</ele><time>2026-04-28T08:52:00Z</time></trkpt><trkpt lat="45.85208219664326" lon="10.933985772387226"><ele>218.33333333333331</ele><time>2026-04-28T08:52:03Z</time></trkpt><trkpt lat="45.85200821417194" lon="10.93395666852914"><ele>217.66666666666666</ele><time>2026-04-28T08:52:06Z</time></trkpt><trkpt lat="45.85194074861428" lon="10.933930128352603"><ele>217.0</ele><time>2026-04-28T08:52:09Z</time></trkpt><trkpt lat="45.85186673436352" lon="10.933909257960202"><ele>217.0</ele><time>2026-04-28T08:52:12Z</time></trkpt><trkpt lat="45.85179413091816" lon="10.933888096726704"><ele>217.0</ele><time>2026-04-28T08:52:15Z</time></trkpt><trkpt lat="45.85172406564825" lon="10.933858741506807"><ele>217.0</ele><time>2026-04-28T08:52:18Z</time></trkpt><trkpt lat="45.851645992643476" lon="10.933848961121626"><ele>217.0</ele><time>2026-04-28T08:52:21Z</time></trkpt><trkpt lat="45.85157766360441" lon="10.933819667238051"><ele>217.0</ele><time>2026-04-28T08:52:24Z</time></trkpt><trkpt lat="45.85150579280789" lon="10.933792212789673"><ele>217.0</ele><time>2026-04-28T08:52:27Z</time></trkpt><trkpt lat="45.85143568869124" lon="10.933771252930919"><ele>217.0</ele><time>2026-04-28T08:52:30Z</time></trkpt><trkpt lat="45.851366673213" lon="10.933754754677734"><ele>216.57142857142858</ele><time>2026-04-28T08:52:33Z</time></trkpt><trkpt lat="45.8512978705143" lon="10.933730035245937"><ele>216.14285714285714</ele><time>2026-04-28T08:52:36Z</time></trkpt><trkpt lat="45.85122828430897" lon="10.933708159722078"><ele>215.71428571428572</ele><time>2026-04-28T08:52:39Z</time></trkpt><trkpt lat="45.85115704946466" lon="10.933685837276432"><ele>215.28571428571428</ele><time>2026-04-28T08:52:42Z</time></trkpt><trkpt lat="45.85108412642045" lon="10.933649409153748"><ele>214.85714285714286</ele><time>2026-04-28T08:52:45Z</time></trkpt><trkpt lat="45.8510207251417" lon="10.933627667346249"><ele>214.42857142857144</ele><time>2026-04-28T08:52:48Z</time></trkpt><trkpt lat="45.85095157401215" lon="10.933603577206224"><ele>214.0</ele><time>2026-04-28T08:52:51Z</time></trkpt><trkpt lat="45.8508851294412" lon="10.933582526663885"><ele>213.99999999999997</ele><time>2026-04-28T08:52:54Z</time></trkpt><trkpt lat="45.850812483529076" lon="10.933552305397896"><ele>214.0</ele><time>2026-04-28T08:52:57Z</time></trkpt><trkpt lat="45.850746931549075" lon="10.933547383148285"><ele>214.0</ele><time>2026-04-28T08:53:00Z</time></trkpt><trkpt lat="45.85082855834654" lon="10.933523384844126"><ele>214.0</ele><time>2026-04-28T08:53:06Z</time></trkpt><trkpt lat="45.8508985092927" lon="10.933548954107394"><ele>213.99999999999997</ele><time>2026-04-28T08:53:09Z</time></trkpt><trkpt lat="45.85101325739888" lon="10.933593149880357"><ele>214.0</ele><time>2026-04-28T08:53:14Z</time></trkpt><trkpt lat="45.85107379333702" lon="10.933624221054473"><ele>214.00000000000003</ele><time>2026-04-28T08:53:17Z</time></trkpt><trkpt lat="45.851146780123706" lon="10.93363460114469"><ele>214.0</ele><time>2026-04-28T08:53:20Z</time></trkpt><trkpt lat="45.8512167731505" lon="10.933661919526033"><ele>214.0</ele><time>2026-04-28T08:53:23Z</time></trkpt><trkpt lat="45.85129889544695" lon="10.933673009583517"><ele>214.0</ele><time>2026-04-28T08:53:27Z</time></trkpt><trkpt lat="45.85137611780354" lon="10.933709263002466"><ele>214.0</ele><time>2026-04-28T08:53:30Z</time></trkpt><trkpt lat="45.851438683321526" lon="10.933725486634927"><ele>214.00000000000003</ele><time>2026-04-28T08:53:33Z</time></trkpt><trkpt lat="45.85150772323271" lon="10.933747914325293"><ele>214.0</ele><time>2026-04-28T08:53:36Z</time></trkpt><trkpt lat="45.851570682373044" lon="10.933762433782617"><ele>214.00000000000003</ele><time>2026-04-28T08:53:39Z</time></trkpt><trkpt lat="45.85163726044618" lon="10.933790324068632"><ele>214.0</ele><time>2026-04-28T08:53:42Z</time></trkpt><trkpt lat="45.85171193842022" lon="10.933830842293466"><ele>214.0</ele><time>2026-04-28T08:53:46Z</time></trkpt><trkpt lat="45.85177676489599" lon="10.933848933187534"><ele>214.0</ele><time>2026-04-28T08:53:49Z</time></trkpt><trkpt lat="45.85183966626087" lon="10.933863995586163"><ele>214.0</ele><time>2026-04-28T08:53:52Z</time></trkpt><trkpt lat="45.8519068338877" lon="10.933886856556974"><ele>214.00000000000003</ele><time>2026-04-28T08:53:55Z</time></trkpt><trkpt lat="45.8519916565209" lon="10.933901674712347"><ele>214.0</ele><time>2026-04-28T08:53:59Z</time></trkpt><trkpt lat="45.852055607378475" lon="10.933929842469094"><ele>214.42857142857144</ele><time>2026-04-28T08:54:02Z</time></trkpt><trkpt lat="45.852121727584304" lon="10.933953310221053"><ele>214.85714285714286</ele><time>2026-04-28T08:54:05Z</time></trkpt><trkpt lat="45.85218795228471" lon="10.933966538440666"><ele>215.28571428571428</ele><time>2026-04-28T08:54:08Z</time></trkpt><trkpt lat="45.85225159116088" lon="10.933995363656226"><ele>215.71428571428572</ele><time>2026-04-28T08:54:11Z</time></trkpt><trkpt lat="45.852318984676245" lon="10.934021887347487"><ele>216.14285714285714</ele><time>2026-04-28T08:54:14Z</time></trkpt><trkpt lat="45.85240404438851" lon="10.934036660009019"><ele>216.57142857142858</ele><time>2026-04-28T08:54:18Z</time></trkpt><trkpt lat="45.85246637691324" lon="10.934059396055966"><ele>217.0</ele><time>2026-04-28T08:54:21Z</time></trkpt><trkpt lat="45.852537658362" lon="10.934069731081596"><ele>217.0</ele><time>2026-04-28T08:54:24Z</time></trkpt><trkpt lat="45.85260705000474" lon="10.934078491592258"><ele>217.0</ele><time>2026-04-28T08:54:27Z</time></trkpt><trkpt lat="45.85267676891125" lon="10.93409664991445"><ele>217.0</ele><time>2026-04-28T08:54:30Z</time></trkpt><trkpt lat="45.85274560033441" lon="10.934113240559109"><ele>217.0</ele><time>2026-04-28T08:54:33Z</time></trkpt><trkpt lat="45.85281304595626" lon="10.934123639427286"><ele>217.0</ele><time>2026-04-28T08:54:36Z</time></trkpt><trkpt lat="45.8528836794693" lon="10.93413712530137"><ele>217.0</ele><time>2026-04-28T08:54:39Z</time></trkpt><trkpt lat="45.852951888839776" lon="10.934150156625918"><ele>217.0</ele><time>2026-04-28T08:54:42Z</time></trkpt><trkpt lat="45.85302129010638" lon="10.934166268642155"><ele>217.42857142857142</ele><time>2026-04-28T08:54:45Z</time></trkpt><trkpt lat="45.8530885712091" lon="10.934181253848307"><ele>217.85714285714286</ele><time>2026-04-28T08:54:48Z</time></trkpt><trkpt lat="45.853160464711074" lon="10.934190883380204"><ele>218.28571428571428</ele><time>2026-04-28T08:54:51Z</time></trkpt><trkpt lat="45.85324405299878" lon="10.934200584777944"><ele>218.71428571428572</ele><time>2026-04-28T08:54:55Z</time></trkpt><trkpt lat="45.85331931372157" lon="10.93422001826136"><ele>219.14285714285714</ele><time>2026-04-28T08:54:58Z</time></trkpt><trkpt lat="45.85338750193087" lon="10.934232055722783"><ele>219.57142857142856</ele><time>2026-04-28T08:55:01Z</time></trkpt><trkpt lat="45.853452773490496" lon="10.934247922004829"><ele>220.0</ele><time>2026-04-28T08:55:04Z</time></trkpt><trkpt lat="45.85352479176764" lon="10.934255143830246"><ele>220.42857142857142</ele><time>2026-04-28T08:55:07Z</time></trkpt><trkpt lat="45.853597773015025" lon="10.934266384779187"><ele>220.85714285714286</ele><time>2026-04-28T08:55:10Z</time></trkpt><trkpt lat="45.85366377563152" lon="10.934292369997625"><ele>221.28571428571428</ele><time>2026-04-28T08:55:13Z</time></trkpt><trkpt lat="45.8537295051364" lon="10.934293112435217"><ele>221.71428571428572</ele><time>2026-04-28T08:55:16Z</time></trkpt><trkpt lat="45.853795132506626" lon="10.934318584783018"><ele>222.14285714285714</ele><time>2026-04-28T08:55:19Z</time></trkpt><trkpt lat="45.853863399213104" lon="10.934319637360437"><ele>222.57142857142856</ele><time>2026-04-28T08:55:22Z</time></trkpt><trkpt lat="45.85394124445063" lon="10.934339679761406"><ele>223.0</ele><time>2026-04-28T08:55:25Z</time></trkpt><trkpt lat="45.854007864152685" lon="10.934353435825074"><ele>223.0</ele><time>2026-04-28T08:55:28Z</time></trkpt><trkpt lat="45.85408181425841" lon="10.934367235011168"><ele>223.0</ele><time>2026-04-28T08:55:31Z</time></trkpt><trkpt lat="45.854149739690776" lon="10.93438327010101"><ele>223.0</ele><time>2026-04-28T08:55:34Z</time></trkpt><trkpt lat="45.854223806978204" lon="10.93440488250552"><ele>223.0</ele><time>2026-04-28T08:55:37Z</time></trkpt><trkpt lat="45.85429299322063" lon="10.934414521605657"><ele>223.0</ele><time>2026-04-28T08:55:40Z</time></trkpt><trkpt lat="45.8543562349944" lon="10.934427424961985"><ele>223.0</ele><time>2026-04-28T08:55:43Z</time></trkpt><trkpt lat="45.854427427670124" lon="10.934436444730801"><ele>223.0</ele><time>2026-04-28T08:55:46Z</time></trkpt><trkpt lat="45.85448972983058" lon="10.93438887587763"><ele>223.71428571428572</ele><time>2026-04-28T08:55:49Z</time></trkpt><trkpt lat="45.854530129728445" lon="10.934313850900411"><ele>224.42857142857142</ele><time>2026-04-28T08:55:54Z</time></trkpt><trkpt lat="45.854543193525856" lon="10.934198621891394"><ele>225.14285714285714</ele><time>2026-04-28T08:55:55Z</time></trkpt><trkpt lat="45.854570387140036" lon="10.934099263583176"><ele>225.85714285714283</ele><time>2026-04-28T08:55:58Z</time></trkpt><trkpt lat="45.85459145419024" lon="10.934002958351451"><ele>226.57142857142856</ele><time>2026-04-28T08:56:01Z</time></trkpt><trkpt lat="45.85461417723676" lon="10.933898151307964"><ele>227.28571428571428</ele><time>2026-04-28T08:56:04Z</time></trkpt><trkpt lat="45.85463413201539" lon="10.93380611251683"><ele>228.0</ele><time>2026-04-28T08:56:07Z</time></trkpt><trkpt lat="45.85465762083922" lon="10.933702790133236"><ele>228.0</ele><time>2026-04-28T08:56:10Z</time></trkpt><trkpt lat="45.854679090566144" lon="10.933608860080193"><ele>227.99999999999997</ele><time>2026-04-28T08:56:13Z</time></trkpt><trkpt lat="45.85470073833001" lon="10.933509702178025"><ele>228.0</ele><time>2026-04-28T08:56:16Z</time></trkpt><trkpt lat="45.8547256403102" lon="10.93340520494703"><ele>228.0</ele><time>2026-04-28T08:56:19Z</time></trkpt><trkpt lat="45.854747376453666" lon="10.933310109314487"><ele>227.99999999999997</ele><time>2026-04-28T08:56:22Z</time></trkpt><trkpt lat="45.85476882430363" lon="10.933214500506294"><ele>228.0</ele><time>2026-04-28T08:56:25Z</time></trkpt><trkpt lat="45.85479203989375" lon="10.933110282018607"><ele>228.0</ele><time>2026-04-28T08:56:28Z</time></trkpt><trkpt lat="45.854814647108064" lon="10.933008794622177"><ele>228.0</ele><time>2026-04-28T08:56:31Z</time></trkpt><trkpt lat="45.854838170941335" lon="10.932901929066512"><ele>227.99999999999997</ele><time>2026-04-28T08:56:34Z</time></trkpt><trkpt lat="45.85485754054556" lon="10.932799510670987"><ele>228.0</ele><time>2026-04-28T08:56:37Z</time></trkpt><trkpt lat="45.85488141748825" lon="10.932701224057867"><ele>228.0</ele><time>2026-04-28T08:56:40Z</time></trkpt><trkpt lat="45.85489995756392" lon="10.93260252896055"><ele>227.99999999999997</ele><time>2026-04-28T08:56:43Z</time></trkpt><trkpt lat="45.854908970522935" lon="10.932498913974637"><ele>228.0</ele><time>2026-04-28T08:56:46Z</time></trkpt><trkpt lat="45.85490419801138" lon="10.9324053967895"><ele>228.0</ele><time>2026-04-28T08:56:49Z</time></trkpt><trkpt lat="45.854892915972236" lon="10.932306581994954"><ele>228.0</ele><time>2026-04-28T08:56:52Z</time></trkpt><trkpt lat="45.85486538429158" lon="10.932219362381037"><ele>228.0</ele><time>2026-04-28T08:56:55Z</time></trkpt><trkpt lat="45.854842252557425" lon="10.93211923084504"><ele>228.0</ele><time>2026-04-28T08:56:58Z</time></trkpt><trkpt lat="45.854816697792884" lon="10.93200603534527"><ele>228.0</ele><time>2026-04-28T08:57:01Z</time></trkpt><trkpt lat="45.854832017223266" lon="10.931888088211021"><ele>228.0</ele><time>2026-04-28T08:57:05Z</time></trkpt><trkpt lat="45.85485333854239" lon="10.931776642195638"><ele>228.0</ele><time>2026-04-28T08:57:08Z</time></trkpt><trkpt lat="45.85487753508861" lon="10.931680424693111"><ele>228.0</ele><time>2026-04-28T08:57:11Z</time></trkpt><trkpt lat="45.85490484829649" lon="10.931585897477433"><ele>228.0</ele><time>2026-04-28T08:57:14Z</time></trkpt><trkpt lat="45.85494926489223" lon="10.931483380072278"><ele>228.0</ele><time>2026-04-28T08:57:18Z</time></trkpt><trkpt lat="45.85500148087703" lon="10.931407657518113"><ele>228.0</ele><time>2026-04-28T08:57:21Z</time></trkpt><trkpt lat="45.85505980931041" lon="10.931330369842971"><ele>228.0</ele><time>2026-04-28T08:57:24Z</time></trkpt><trkpt lat="45.85511403029225" lon="10.931259173813983"><ele>228.0</ele><time>2026-04-28T08:57:27Z</time></trkpt><trkpt lat="45.855164581056925" lon="10.931192797050693"><ele>228.4</ele><time>2026-04-28T08:57:30Z</time></trkpt><trkpt lat="45.85521699193772" lon="10.931125787539166"><ele>228.8</ele><time>2026-04-28T08:57:33Z</time></trkpt><trkpt lat="45.85527729789213" lon="10.931055568539117"><ele>229.2</ele><time>2026-04-28T08:57:36Z</time></trkpt><trkpt lat="45.85534211157177" lon="10.931008653562579"><ele>229.6</ele><time>2026-04-28T08:57:39Z</time></trkpt><trkpt lat="45.855398634278686" lon="10.930944311635288"><ele>230.0</ele><time>2026-04-28T08:57:43.02Z</time></trkpt><trkpt lat="45.855474525750154" lon="10.930655803849001"><ele>229.99999999999997</ele><time>2026-04-28T08:57:46Z</time></trkpt><trkpt lat="45.855496763796936" lon="10.930553066313715"><ele>230.0</ele><time>2026-04-28T08:57:56Z</time></trkpt><trkpt lat="45.85551746168031" lon="10.930466117825583"><ele>229.99999999999997</ele><time>2026-04-28T08:57:59Z</time></trkpt><trkpt lat="45.85554660146882" lon="10.930368966169617"><ele>229.99999999999997</ele><time>2026-04-28T08:58:02Z</time></trkpt><trkpt lat="45.855578964124305" lon="10.930280544484718"><ele>230.0</ele><time>2026-04-28T08:58:05Z</time></trkpt><trkpt lat="45.85560717139461" lon="10.93018680477762"><ele>229.99999999999997</ele><time>2026-04-28T08:58:08Z</time></trkpt><trkpt lat="45.85563272810881" lon="10.930097156386545"><ele>229.99999999999997</ele><time>2026-04-28T08:58:11Z</time></trkpt><trkpt lat="45.85565021426343" lon="10.930001214624216"><ele>229.4285714285714</ele><time>2026-04-28T08:58:14Z</time></trkpt><trkpt lat="45.8556739430384" lon="10.929901613601226"><ele>228.85714285714283</ele><time>2026-04-28T08:58:17Z</time></trkpt><trkpt lat="45.85568903191973" lon="10.929808684196775"><ele>228.28571428571428</ele><time>2026-04-28T08:58:20Z</time></trkpt><trkpt lat="45.85571023565114" lon="10.929711783057058"><ele>227.7142857142857</ele><time>2026-04-28T08:58:23Z</time></trkpt><trkpt lat="45.85573185168352" lon="10.92961299769227"><ele>227.1428571428571</ele><time>2026-04-28T08:58:26Z</time></trkpt><trkpt lat="45.855753054276136" lon="10.929516101745865"><ele>226.57142857142858</ele><time>2026-04-28T08:58:29Z</time></trkpt><trkpt lat="45.855775138925274" lon="10.929415174811304"><ele>226.0</ele><time>2026-04-28T08:58:32Z</time></trkpt><trkpt lat="45.855796041406506" lon="10.929319650372461"><ele>226.0</ele><time>2026-04-28T08:58:35Z</time></trkpt><trkpt lat="45.855818108100685" lon="10.929218805483314"><ele>226.0</ele><time>2026-04-28T08:58:38Z</time></trkpt><trkpt lat="45.85584336156068" lon="10.929116163649946"><ele>226.0</ele><time>2026-04-28T08:58:41Z</time></trkpt><trkpt lat="45.855866612857106" lon="10.929014743705093"><ele>226.0</ele><time>2026-04-28T08:58:44Z</time></trkpt><trkpt lat="45.85588520872863" lon="10.928912192290017"><ele>226.0</ele><time>2026-04-28T08:58:47Z</time></trkpt><trkpt lat="45.85590670598859" lon="10.928814027601092"><ele>226.0</ele><time>2026-04-28T08:58:50Z</time></trkpt><trkpt lat="45.85592973697959" lon="10.928708859318622"><ele>226.0</ele><time>2026-04-28T08:58:53Z</time></trkpt><trkpt lat="45.85595107675651" lon="10.928611413760484"><ele>227.42857142857144</ele><time>2026-04-28T08:58:56Z</time></trkpt><trkpt lat="45.85597348043983" lon="10.928506438661968"><ele>228.85714285714283</ele><time>2026-04-28T08:58:59Z</time></trkpt><trkpt lat="45.85599260440233" lon="10.928404643960743"><ele>230.28571428571428</ele><time>2026-04-28T08:59:02Z</time></trkpt><trkpt lat="45.85601167816029" lon="10.928301543153925"><ele>231.71428571428572</ele><time>2026-04-28T08:59:05Z</time></trkpt><trkpt lat="45.85602935091798" lon="10.928197815456446"><ele>233.14285714285717</ele><time>2026-04-28T08:59:08Z</time></trkpt><trkpt lat="45.8560485526199" lon="10.928101076021347"><ele>234.57142857142856</ele><time>2026-04-28T08:59:11Z</time></trkpt><trkpt lat="45.856070158957294" lon="10.928004053217323"><ele>236.0</ele><time>2026-04-28T08:59:14Z</time></trkpt><trkpt lat="45.85609170103891" lon="10.927907020416587"><ele>236.0</ele><time>2026-04-28T08:59:17Z</time></trkpt><trkpt lat="45.856114570389394" lon="10.92780416784988"><ele>236.0</ele><time>2026-04-28T08:59:20Z</time></trkpt><trkpt lat="45.85613679959776" lon="10.927704194253998"><ele>236.0</ele><time>2026-04-28T08:59:23Z</time></trkpt><trkpt lat="45.85615830468225" lon="10.927607477340214"><ele>236.0</ele><time>2026-04-28T08:59:26Z</time></trkpt><trkpt lat="45.8561817630388" lon="10.927502015961132"><ele>236.0</ele><time>2026-04-28T08:59:29Z</time></trkpt><trkpt lat="45.85621072895405" lon="10.927407925783816"><ele>236.0</ele><time>2026-04-28T08:59:32Z</time></trkpt><trkpt lat="45.85623322919913" lon="10.927306647665135"><ele>236.0</ele><time>2026-04-28T08:59:35Z</time></trkpt><trkpt lat="45.856251258521056" lon="10.927197577097468"><ele>235.42857142857142</ele><time>2026-04-28T08:59:38Z</time></trkpt><trkpt lat="45.85627380302052" lon="10.927098816417233"><ele>234.8571428571429</ele><time>2026-04-28T08:59:41Z</time></trkpt><trkpt lat="45.85629965580234" lon="10.926993618709295"><ele>234.2857142857143</ele><time>2026-04-28T08:59:44Z</time></trkpt><trkpt lat="45.85632085893546" lon="10.926895679287872"><ele>233.71428571428572</ele><time>2026-04-28T08:59:47Z</time></trkpt><trkpt lat="45.856342449152635" lon="10.926798337261403"><ele>233.14285714285717</ele><time>2026-04-28T08:59:50Z</time></trkpt><trkpt lat="45.85636512241669" lon="10.926699093707997"><ele>232.5714285714286</ele><time>2026-04-28T08:59:53Z</time></trkpt><trkpt lat="45.85638789159683" lon="10.926600882965246"><ele>232.00000000000003</ele><time>2026-04-28T08:59:56Z</time></trkpt><trkpt lat="45.8564113530555" lon="10.926500108046897"><ele>231.28571428571433</ele><time>2026-04-28T08:59:59Z</time></trkpt><trkpt lat="45.85643427133444" lon="10.926401666278245"><ele>230.57142857142858</ele><time>2026-04-28T09:00:02Z</time></trkpt><trkpt lat="45.856458440866305" lon="10.92630121468487"><ele>229.8571428571429</ele><time>2026-04-28T09:00:05Z</time></trkpt><trkpt lat="45.85648649437775" lon="10.92620483451193"><ele>229.14285714285717</ele><time>2026-04-28T09:00:08Z</time></trkpt><trkpt lat="45.85650309781918" lon="10.926106033179448"><ele>228.42857142857144</ele><time>2026-04-28T09:00:11Z</time></trkpt><trkpt lat="45.856527899180385" lon="10.92600819356537"><ele>227.71428571428572</ele><time>2026-04-28T09:00:14Z</time></trkpt><trkpt lat="45.85654934028292" lon="10.92591021868255"><ele>227.0</ele><time>2026-04-28T09:00:17Z</time></trkpt><trkpt lat="45.85657249115323" lon="10.925807965267895"><ele>226.14285714285717</ele><time>2026-04-28T09:00:20Z</time></trkpt><trkpt lat="45.85659644150399" lon="10.925704967822941"><ele>225.2857142857143</ele><time>2026-04-28T09:00:23Z</time></trkpt><trkpt lat="45.85661801074042" lon="10.925612045518983"><ele>224.42857142857144</ele><time>2026-04-28T09:00:26Z</time></trkpt><trkpt lat="45.85664009451852" lon="10.925513894472045"><ele>223.57142857142858</ele><time>2026-04-28T09:00:29Z</time></trkpt><trkpt lat="45.85666268564592" lon="10.925412025237156"><ele>222.71428571428572</ele><time>2026-04-28T09:00:32Z</time></trkpt><trkpt lat="45.856684232273686" lon="10.925314865896759"><ele>221.8571428571429</ele><time>2026-04-28T09:00:35Z</time></trkpt><trkpt lat="45.85670578620632" lon="10.92521767363622"><ele>221.0</ele><time>2026-04-28T09:00:38Z</time></trkpt><trkpt lat="45.85672681130051" lon="10.925122866026076"><ele>221.00000000000003</ele><time>2026-04-28T09:00:41Z</time></trkpt><trkpt lat="45.85674939352681" lon="10.92502656816349"><ele>221.0</ele><time>2026-04-28T09:00:44Z</time></trkpt><trkpt lat="45.85677124302953" lon="10.924926868786894"><ele>221.0</ele><time>2026-04-28T09:00:47Z</time></trkpt><trkpt lat="45.85679222874085" lon="10.924827881830904"><ele>221.0</ele><time>2026-04-28T09:00:50Z</time></trkpt><trkpt lat="45.85681540896206" lon="10.924734440353923"><ele>221.0</ele><time>2026-04-28T09:00:53Z</time></trkpt><trkpt lat="45.856837915094644" lon="10.924626016224918"><ele>221.00000000000003</ele><time>2026-04-28T09:00:56Z</time></trkpt><trkpt lat="45.856860170593116" lon="10.924527967307126"><ele>221.0</ele><time>2026-04-28T09:00:59Z</time></trkpt><trkpt lat="45.856883493871415" lon="10.924425214187044"><ele>221.14285714285717</ele><time>2026-04-28T09:01:02Z</time></trkpt><trkpt lat="45.85690678806104" lon="10.924327449776426"><ele>221.28571428571428</ele><time>2026-04-28T09:01:05Z</time></trkpt><trkpt lat="45.85692827491132" lon="10.924227926648882"><ele>221.42857142857144</ele><time>2026-04-28T09:01:08Z</time></trkpt><trkpt lat="45.85695393030598" lon="10.924128480456746"><ele>221.57142857142858</ele><time>2026-04-28T09:01:11Z</time></trkpt><trkpt lat="45.85697535819238" lon="10.924032773195291"><ele>221.71428571428572</ele><time>2026-04-28T09:01:14Z</time></trkpt><trkpt lat="45.856998179773846" lon="10.92393122685075"><ele>221.85714285714286</ele><time>2026-04-28T09:01:17Z</time></trkpt><trkpt lat="45.85701737603673" lon="10.923835395387306"><ele>222.0</ele><time>2026-04-28T09:01:20Z</time></trkpt><trkpt lat="45.85704170324356" lon="10.923732412617333"><ele>222.0</ele><time>2026-04-28T09:01:23Z</time></trkpt><trkpt lat="45.857063340684974" lon="10.923636342438835"><ele>222.0</ele><time>2026-04-28T09:01:26Z</time></trkpt><trkpt lat="45.85708544314327" lon="10.923536023767305"><ele>222.0</ele><time>2026-04-28T09:01:29Z</time></trkpt><trkpt lat="45.85710847930848" lon="10.92343470647492"><ele>222.0</ele><time>2026-04-28T09:01:32Z</time></trkpt><trkpt lat="45.85713051208996" lon="10.923337802254776"><ele>222.0</ele><time>2026-04-28T09:01:35Z</time></trkpt><trkpt lat="45.85715644833771" lon="10.923223729881686"><ele>222.0</ele><time>2026-04-28T09:01:38Z</time></trkpt><trkpt lat="45.85717673927767" lon="10.923134486615389"><ele>222.0</ele><time>2026-04-28T09:01:41Z</time></trkpt><trkpt lat="45.857198616262025" lon="10.923042362106061"><ele>222.0</ele><time>2026-04-28T09:01:44Z</time></trkpt><trkpt lat="45.85722508668613" lon="10.922942531534634"><ele>222.0</ele><time>2026-04-28T09:01:47Z</time></trkpt><trkpt lat="45.85724402889278" lon="10.922837033761008"><ele>222.0</ele><time>2026-04-28T09:01:50Z</time></trkpt><trkpt lat="45.85726390227293" lon="10.922748074416695"><ele>222.0</ele><time>2026-04-28T09:01:53Z</time></trkpt><trkpt lat="45.8572874568406" lon="10.92264375475601"><ele>222.0</ele><time>2026-04-28T09:01:56Z</time></trkpt><trkpt lat="45.85731050209277" lon="10.922539479319152"><ele>222.0</ele><time>2026-04-28T09:01:59Z</time></trkpt><trkpt lat="45.857331104721574" lon="10.922447255613625"><ele>222.0</ele><time>2026-04-28T09:02:02Z</time></trkpt><trkpt lat="45.85735769725281" lon="10.922343735582409"><ele>222.14285714285714</ele><time>2026-04-28T09:02:05Z</time></trkpt><trkpt lat="45.85737942821139" lon="10.9222453978426"><ele>222.2857142857143</ele><time>2026-04-28T09:02:08Z</time></trkpt><trkpt lat="45.857402086882985" lon="10.92214983187509"><ele>222.42857142857144</ele><time>2026-04-28T09:02:11Z</time></trkpt><trkpt lat="45.85742165207277" lon="10.922052346305753"><ele>222.57142857142856</ele><time>2026-04-28T09:02:14Z</time></trkpt><trkpt lat="45.85744974546379" lon="10.921958463042957"><ele>222.71428571428572</ele><time>2026-04-28T09:02:17Z</time></trkpt><trkpt lat="45.857472957658445" lon="10.9218545581455"><ele>222.85714285714286</ele><time>2026-04-28T09:02:20Z</time></trkpt><trkpt lat="45.85749647174032" lon="10.921751978374116"><ele>223.0</ele><time>2026-04-28T09:02:23Z</time></trkpt><trkpt lat="45.85751892810662" lon="10.921654742321394"><ele>223.16666666666666</ele><time>2026-04-28T09:02:26Z</time></trkpt><trkpt lat="45.85754123280741" lon="10.921552302014756"><ele>223.33333333333331</ele><time>2026-04-28T09:02:29Z</time></trkpt><trkpt lat="45.8575641072703" lon="10.921449083034238"><ele>223.5</ele><time>2026-04-28T09:02:32Z</time></trkpt><trkpt lat="45.857599599087074" lon="10.921349490306715"><ele>223.66666666666669</ele><time>2026-04-28T09:02:35Z</time></trkpt><trkpt lat="45.85763160407294" lon="10.9212588113894"><ele>223.83333333333334</ele><time>2026-04-28T09:02:38Z</time></trkpt><trkpt lat="45.85767412956723" lon="10.921162743748463"><ele>224.0</ele><time>2026-04-28T09:02:41Z</time></trkpt><trkpt lat="45.857748476607455" lon="10.921143173377216"><ele>222.85714285714286</ele><time>2026-04-28T09:02:44Z</time></trkpt><trkpt lat="45.857810513599105" lon="10.921219548105032"><ele>221.71428571428572</ele><time>2026-04-28T09:02:47Z</time></trkpt><trkpt lat="45.857823787034235" lon="10.921341934157924"><ele>220.57142857142856</ele><time>2026-04-28T09:02:50Z</time></trkpt><trkpt lat="45.85784383440723" lon="10.921429400712382"><ele>219.42857142857144</ele><time>2026-04-28T09:02:53Z</time></trkpt><trkpt lat="45.85788831927662" lon="10.921512222075691"><ele>218.28571428571428</ele><time>2026-04-28T09:02:56Z</time></trkpt><trkpt lat="45.85795197661438" lon="10.921518885899202"><ele>217.14285714285714</ele><time>2026-04-28T09:02:59Z</time></trkpt><trkpt lat="45.85801013695424" lon="10.921465130132908"><ele>216.0</ele><time>2026-04-28T09:03:02Z</time></trkpt><trkpt lat="45.85802575683059" lon="10.9213612469834"><ele>216.0</ele><time>2026-04-28T09:03:05Z</time></trkpt><trkpt lat="45.85801567047369" lon="10.92126001557949"><ele>216.0</ele><time>2026-04-28T09:03:08Z</time></trkpt><trkpt lat="45.85799084639751" lon="10.921162769703084"><ele>216.0</ele><time>2026-04-28T09:03:11Z</time></trkpt><trkpt lat="45.857973864471525" lon="10.921057080599555"><ele>216.0</ele><time>2026-04-28T09:03:14Z</time></trkpt><trkpt lat="45.85796545453851" lon="10.920966590693453"><ele>216.0</ele><time>2026-04-28T09:03:17Z</time></trkpt><trkpt lat="45.8579486590572" lon="10.92086848279172"><ele>216.0</ele><time>2026-04-28T09:03:20Z</time></trkpt><trkpt lat="45.85793511265734" lon="10.920765724871693"><ele>216.0</ele><time>2026-04-28T09:03:23Z</time></trkpt><trkpt lat="45.857951737708845" lon="10.920678027898548"><ele>216.57142857142856</ele><time>2026-04-28T09:03:26Z</time></trkpt><trkpt lat="45.858009321437265" lon="10.920609466179998"><ele>217.14285714285714</ele><time>2026-04-28T09:03:29Z</time></trkpt><trkpt lat="45.85806793674794" lon="10.920547686808797"><ele>217.71428571428572</ele><time>2026-04-28T09:03:32Z</time></trkpt><trkpt lat="45.85812067518062" lon="10.920497537686694"><ele>218.28571428571428</ele><time>2026-04-28T09:03:35Z</time></trkpt><trkpt lat="45.85819018006426" lon="10.920450526747175"><ele>218.85714285714286</ele><time>2026-04-28T09:03:38Z</time></trkpt><trkpt lat="45.85824397712426" lon="10.920399300453667"><ele>219.42857142857142</ele><time>2026-04-28T09:03:41Z</time></trkpt><trkpt lat="45.8583076200717" lon="10.920346570495882"><ele>220.0</ele><time>2026-04-28T09:03:44Z</time></trkpt><trkpt lat="45.85836330135707" lon="10.920298438974823"><ele>219.99999999999997</ele><time>2026-04-28T09:03:47Z</time></trkpt><trkpt lat="45.85842283984162" lon="10.920247162201338"><ele>220.0</ele><time>2026-04-28T09:03:50Z</time></trkpt><trkpt lat="45.85848284873362" lon="10.920194875302599"><ele>220.0</ele><time>2026-04-28T09:03:53Z</time></trkpt><trkpt lat="45.858540540549946" lon="10.920144897066454"><ele>220.0</ele><time>2026-04-28T09:03:56Z</time></trkpt><trkpt lat="45.85859499429046" lon="10.920097723850155"><ele>220.0</ele><time>2026-04-28T09:03:59Z</time></trkpt><trkpt lat="45.85865044705575" lon="10.920049685309994"><ele>219.99999999999997</ele><time>2026-04-28T09:04:02Z</time></trkpt><trkpt lat="45.85871889436609" lon="10.91999080517704"><ele>220.0</ele><time>2026-04-28T09:04:06Z</time></trkpt><trkpt lat="45.858777850558795" lon="10.91994204681523"><ele>220.85714285714283</ele><time>2026-04-28T09:04:09Z</time></trkpt><trkpt lat="45.85883507762547" lon="10.919896490913827"><ele>221.71428571428572</ele><time>2026-04-28T09:04:12Z</time></trkpt><trkpt lat="45.85889444502276" lon="10.919854194094466"><ele>222.57142857142856</ele><time>2026-04-28T09:04:15Z</time></trkpt><trkpt lat="45.858951515782536" lon="10.919806539750315"><ele>223.42857142857142</ele><time>2026-04-28T09:04:18Z</time></trkpt><trkpt lat="45.85900822242228" lon="10.91976288765107"><ele>224.28571428571428</ele><time>2026-04-28T09:04:21Z</time></trkpt><trkpt lat="45.859064739182486" lon="10.919719381209493"><ele>225.14285714285714</ele><time>2026-04-28T09:04:24Z</time></trkpt><trkpt lat="45.85912471144883" lon="10.919670554677163"><ele>226.0</ele><time>2026-04-28T09:04:27Z</time></trkpt><trkpt lat="45.85918141429722" lon="10.919623947229171"><ele>226.0</ele><time>2026-04-28T09:04:30Z</time></trkpt><trkpt lat="45.85923996053073" lon="10.91957582460615"><ele>226.0</ele><time>2026-04-28T09:04:33Z</time></trkpt><trkpt lat="45.8593098531061" lon="10.919518375756523"><ele>226.0</ele><time>2026-04-28T09:04:37Z</time></trkpt><trkpt lat="45.85936893009188" lon="10.919469816874724"><ele>226.0</ele><time>2026-04-28T09:04:40Z</time></trkpt><trkpt lat="45.859431904639116" lon="10.919417045589173"><ele>226.0</ele><time>2026-04-28T09:04:43Z</time></trkpt><trkpt lat="45.85949355326021" lon="10.919363438852226"><ele>226.0</ele><time>2026-04-28T09:04:46Z</time></trkpt><trkpt lat="45.859552918972774" lon="10.919311817169477"><ele>226.0</ele><time>2026-04-28T09:04:49Z</time></trkpt><trkpt lat="45.85960859053823" lon="10.919263407753137"><ele>226.0</ele><time>2026-04-28T09:04:52Z</time></trkpt><trkpt lat="45.85966370865084" lon="10.919215479600194"><ele>226.0</ele><time>2026-04-28T09:04:55Z</time></trkpt><trkpt lat="45.85972274817271" lon="10.919164141587686"><ele>226.0</ele><time>2026-04-28T09:04:58Z</time></trkpt><trkpt lat="45.85978158512403" lon="10.919112979749206"><ele>226.0</ele><time>2026-04-28T09:05:01Z</time></trkpt><trkpt lat="45.859839162708056" lon="10.919063923675424"><ele>226.0</ele><time>2026-04-28T09:05:04Z</time></trkpt><trkpt lat="45.85991556377529" lon="10.919001069357405"><ele>226.0</ele><time>2026-04-28T09:05:08Z</time></trkpt><trkpt lat="45.85996973525874" lon="10.918952675830788"><ele>226.0</ele><time>2026-04-28T09:05:11Z</time></trkpt><trkpt lat="45.86004151612786" lon="10.918891518527957"><ele>226.0</ele><time>2026-04-28T09:05:15Z</time></trkpt><trkpt lat="45.86011355290752" lon="10.918830143198097"><ele>226.0</ele><time>2026-04-28T09:05:19Z</time></trkpt><trkpt lat="45.86016972765354" lon="10.918782282319329"><ele>226.0</ele><time>2026-04-28T09:05:22Z</time></trkpt><trkpt lat="45.86022415155079" lon="10.91873657848358"><ele>226.0</ele><time>2026-04-28T09:05:25Z</time></trkpt><trkpt lat="45.860282129822615" lon="10.91869033430672"><ele>226.0</ele><time>2026-04-28T09:05:28Z</time></trkpt><trkpt lat="45.86034207892769" lon="10.918640584339606"><ele>226.0</ele><time>2026-04-28T09:05:31Z</time></trkpt><trkpt lat="45.860415284366596" lon="10.918580994372167"><ele>226.0</ele><time>2026-04-28T09:05:35Z</time></trkpt><trkpt lat="45.86048324085577" lon="10.918531021653099"><ele>226.28571428571428</ele><time>2026-04-28T09:05:39Z</time></trkpt><trkpt lat="45.86054321671045" lon="10.91848654483107"><ele>226.57142857142856</ele><time>2026-04-28T09:05:42Z</time></trkpt><trkpt lat="45.860604010762195" lon="10.918441461266479"><ele>226.85714285714283</ele><time>2026-04-28T09:05:45Z</time></trkpt><trkpt lat="45.860664715647275" lon="10.91839319741792"><ele>227.14285714285714</ele><time>2026-04-28T09:05:48Z</time></trkpt><trkpt lat="45.86073267157809" lon="10.918339224230529"><ele>227.4285714285714</ele><time>2026-04-28T09:05:52Z</time></trkpt><trkpt lat="45.86080390888925" lon="10.918278070272859"><ele>227.7142857142857</ele><time>2026-04-28T09:05:56Z</time></trkpt><trkpt lat="45.86086177569817" lon="10.918221113710493"><ele>228.0</ele><time>2026-04-28T09:05:59Z</time></trkpt><trkpt lat="45.86091480886552" lon="10.918161851054515"><ele>225.66666666666666</ele><time>2026-04-28T09:06:02Z</time></trkpt><trkpt lat="45.860982888736096" lon="10.918093792494291"><ele>223.33333333333331</ele><time>2026-04-28T09:06:06Z</time></trkpt><trkpt lat="45.86103913214042" lon="10.918044145561828"><ele>221.0</ele><time>2026-04-28T09:06:09Z</time></trkpt><trkpt lat="45.86109448670853" lon="10.917998102986262"><ele>218.66666666666666</ele><time>2026-04-28T09:06:12Z</time></trkpt><trkpt lat="45.86116824568786" lon="10.91793737054822"><ele>216.33333333333331</ele><time>2026-04-28T09:06:16Z</time></trkpt><trkpt lat="45.86123374296329" lon="10.9178844689018"><ele>214.0</ele><time>2026-04-28T09:06:20Z</time></trkpt><trkpt lat="45.861304594723826" lon="10.91782841884087"><ele>214.00000000000003</ele><time>2026-04-28T09:06:24Z</time></trkpt><trkpt lat="45.86137267097199" lon="10.91777532395388"><ele>214.0</ele><time>2026-04-28T09:06:27Z</time></trkpt><trkpt lat="45.86143525439324" lon="10.91772788097474"><ele>214.0</ele><time>2026-04-28T09:06:30Z</time></trkpt><trkpt lat="45.86149099376083" lon="10.917685810074923"><ele>214.0</ele><time>2026-04-28T09:06:33Z</time></trkpt><trkpt lat="45.86154949965948" lon="10.917641651062137"><ele>214.0</ele><time>2026-04-28T09:06:36Z</time></trkpt><trkpt lat="45.861612429915844" lon="10.917596534275368"><ele>214.00000000000003</ele><time>2026-04-28T09:06:39Z</time></trkpt><trkpt lat="45.86167699592417" lon="10.917550980116522"><ele>214.0</ele><time>2026-04-28T09:06:42Z</time></trkpt><trkpt lat="45.86174877717067" lon="10.917507172139254"><ele>214.42857142857144</ele><time>2026-04-28T09:06:45Z</time></trkpt><trkpt lat="45.86181496975548" lon="10.917475159154591"><ele>214.85714285714286</ele><time>2026-04-28T09:06:48Z</time></trkpt><trkpt lat="45.86188302019739" lon="10.9174493446531"><ele>215.28571428571428</ele><time>2026-04-28T09:06:51Z</time></trkpt><trkpt lat="45.861957930128746" lon="10.917423208127076"><ele>215.71428571428572</ele><time>2026-04-28T09:06:54Z</time></trkpt><trkpt lat="45.86202077924861" lon="10.9174011082123"><ele>216.14285714285714</ele><time>2026-04-28T09:06:57Z</time></trkpt><trkpt lat="45.86209249290761" lon="10.917375502457801"><ele>216.57142857142858</ele><time>2026-04-28T09:07:00Z</time></trkpt><trkpt lat="45.86216220234265" lon="10.91734954925842"><ele>217.0</ele><time>2026-04-28T09:07:03Z</time></trkpt><trkpt lat="45.862230346765784" lon="10.917321878493874"><ele>217.0</ele><time>2026-04-28T09:07:06Z</time></trkpt><trkpt lat="45.86230228937863" lon="10.917292665443114"><ele>217.0</ele><time>2026-04-28T09:07:09Z</time></trkpt><trkpt lat="45.86236614990408" lon="10.91726298745611"><ele>217.0</ele><time>2026-04-28T09:07:12Z</time></trkpt><trkpt lat="45.862437229354036" lon="10.917230082250638"><ele>217.0</ele><time>2026-04-28T09:07:15Z</time></trkpt><trkpt lat="45.86250322202723" lon="10.91719808870179"><ele>217.0</ele><time>2026-04-28T09:07:18Z</time></trkpt><trkpt lat="45.86257483171443" lon="10.91716337199558"><ele>217.0</ele><time>2026-04-28T09:07:21Z</time></trkpt><trkpt lat="45.862641683796106" lon="10.917126603508025"><ele>217.0</ele><time>2026-04-28T09:07:24Z</time></trkpt><trkpt lat="45.862704324675136" lon="10.91709287135026"><ele>216.83333333333331</ele><time>2026-04-28T09:07:27Z</time></trkpt><trkpt lat="45.862774740644724" lon="10.917062639588194"><ele>216.66666666666666</ele><time>2026-04-28T09:07:30Z</time></trkpt><trkpt lat="45.862843016446085" lon="10.91703585933973"><ele>216.5</ele><time>2026-04-28T09:07:33Z</time></trkpt><trkpt lat="45.86291270768802" lon="10.917012544630449"><ele>216.33333333333331</ele><time>2026-04-28T09:07:36Z</time></trkpt><trkpt lat="45.86300223881411" lon="10.916990441774525"><ele>216.16666666666666</ele><time>2026-04-28T09:07:40Z</time></trkpt><trkpt lat="45.86307682318684" lon="10.916986877710679"><ele>216.0</ele><time>2026-04-28T09:07:43Z</time></trkpt><trkpt lat="45.86314853688796" lon="10.916975625161662"><ele>216.0</ele><time>2026-04-28T09:07:46Z</time></trkpt><trkpt lat="45.863220377898365" lon="10.916975461890322"><ele>216.0</ele><time>2026-04-28T09:07:49Z</time></trkpt><trkpt lat="45.86329852760825" lon="10.916979653590207"><ele>216.0</ele><time>2026-04-28T09:07:52Z</time></trkpt><trkpt lat="45.86336567997438" lon="10.916983340748041"><ele>216.0</ele><time>2026-04-28T09:07:55Z</time></trkpt><trkpt lat="45.86344097549382" lon="10.916987015902338"><ele>216.0</ele><time>2026-04-28T09:07:58Z</time></trkpt><trkpt lat="45.863517945896064" lon="10.916982180159795"><ele>216.0</ele><time>2026-04-28T09:08:01Z</time></trkpt><trkpt lat="45.86358116696106" lon="10.916985092806602"><ele>216.0</ele><time>2026-04-28T09:08:04Z</time></trkpt><trkpt lat="45.863666395737845" lon="10.916973174986758"><ele>217.14285714285714</ele><time>2026-04-28T09:08:08Z</time></trkpt><trkpt lat="45.86373164629293" lon="10.916959158694185"><ele>218.28571428571428</ele><time>2026-04-28T09:08:11Z</time></trkpt><trkpt lat="45.86380299538448" lon="10.916933119475058"><ele>219.42857142857144</ele><time>2026-04-28T09:08:14Z</time></trkpt><trkpt lat="45.86386602781315" lon="10.916904197876951"><ele>220.57142857142856</ele><time>2026-04-28T09:08:17Z</time></trkpt><trkpt lat="45.86393397788441" lon="10.916867687569717"><ele>221.71428571428572</ele><time>2026-04-28T09:08:20Z</time></trkpt><trkpt lat="45.86399938762366" lon="10.916833735781061"><ele>222.85714285714286</ele><time>2026-04-28T09:08:23Z</time></trkpt><trkpt lat="45.86406056656534" lon="10.916793083848987"><ele>224.0</ele><time>2026-04-28T09:08:26Z</time></trkpt><trkpt lat="45.86412178959558" lon="10.916750678446185"><ele>225.57142857142856</ele><time>2026-04-28T09:08:29Z</time></trkpt><trkpt lat="45.86419598938641" lon="10.91670022328657"><ele>227.14285714285714</ele><time>2026-04-28T09:08:33Z</time></trkpt><trkpt lat="45.864266046587026" lon="10.916654209522271"><ele>228.71428571428572</ele><time>2026-04-28T09:08:36Z</time></trkpt><trkpt lat="45.86433283405718" lon="10.91661180840093"><ele>230.28571428571428</ele><time>2026-04-28T09:08:39Z</time></trkpt><trkpt lat="45.864394031760874" lon="10.916573098316569"><ele>231.85714285714283</ele><time>2026-04-28T09:08:42Z</time></trkpt><trkpt lat="45.86445391312655" lon="10.916526795549812"><ele>233.42857142857142</ele><time>2026-04-28T09:08:45Z</time></trkpt><trkpt lat="45.864518932547476" lon="10.916472849852022"><ele>235.0</ele><time>2026-04-28T09:08:48Z</time></trkpt><trkpt lat="45.86457627716743" lon="10.916424122572183"><ele>235.0</ele><time>2026-04-28T09:08:51Z</time></trkpt><trkpt lat="45.864636070858886" lon="10.916368574190717"><ele>234.99999999999997</ele><time>2026-04-28T09:08:54Z</time></trkpt><trkpt lat="45.86469041099153" lon="10.916320116896657"><ele>235.0</ele><time>2026-04-28T09:08:57Z</time></trkpt><trkpt lat="45.864751778377546" lon="10.916267479928953"><ele>235.0</ele><time>2026-04-28T09:09:00Z</time></trkpt><trkpt lat="45.8648181216283" lon="10.916220372576387"><ele>234.99999999999997</ele><time>2026-04-28T09:09:03Z</time></trkpt><trkpt lat="45.864880112235575" lon="10.916171773067402"><ele>235.0</ele><time>2026-04-28T09:09:06Z</time></trkpt><trkpt lat="45.86494104904476" lon="10.916132816824934"><ele>235.0</ele><time>2026-04-28T09:09:09Z</time></trkpt><trkpt lat="45.864998962201234" lon="10.916090315537609"><ele>235.0</ele><time>2026-04-28T09:09:12Z</time></trkpt><trkpt lat="45.86505805919057" lon="10.916030295995943"><ele>234.99999999999997</ele><time>2026-04-28T09:09:15Z</time></trkpt><trkpt lat="45.865115184485575" lon="10.91596586836136"><ele>235.0</ele><time>2026-04-28T09:09:18Z</time></trkpt><trkpt lat="45.8651686439415" lon="10.915904894142479"><ele>235.0</ele><time>2026-04-28T09:09:21Z</time></trkpt><trkpt lat="45.865222736514525" lon="10.91584319775923"><ele>234.99999999999997</ele><time>2026-04-28T09:09:24Z</time></trkpt><trkpt lat="45.865276164709606" lon="10.915782516253422"><ele>235.0</ele><time>2026-04-28T09:09:27Z</time></trkpt><trkpt lat="45.8653285140325" lon="10.915724835698722"><ele>235.0</ele><time>2026-04-28T09:09:30Z</time></trkpt><trkpt lat="45.865379594902606" lon="10.915668552784226"><ele>232.85714285714283</ele><time>2026-04-28T09:09:33Z</time></trkpt><trkpt lat="45.86543811914839" lon="10.915604877050862"><ele>230.7142857142857</ele><time>2026-04-28T09:09:36Z</time></trkpt><trkpt lat="45.86549789920794" lon="10.915541970276484"><ele>228.57142857142856</ele><time>2026-04-28T09:09:39Z</time></trkpt><trkpt lat="45.865552351399614" lon="10.915486578944114"><ele>226.42857142857142</ele><time>2026-04-28T09:09:42Z</time></trkpt><trkpt lat="45.865613643417596" lon="10.915427069507729"><ele>224.28571428571428</ele><time>2026-04-28T09:09:45Z</time></trkpt><trkpt lat="45.86566778821295" lon="10.915379407940305"><ele>222.1428571428571</ele><time>2026-04-28T09:09:48Z</time></trkpt><trkpt lat="45.86572858871676" lon="10.915333933381536"><ele>220.0</ele><time>2026-04-28T09:09:51Z</time></trkpt><trkpt lat="45.86579195770128" lon="10.915303807350499"><ele>219.99999999999997</ele><time>2026-04-28T09:09:54Z</time></trkpt><trkpt lat="45.86585056444442" lon="10.915255263233822"><ele>220.0</ele><time>2026-04-28T09:09:57Z</time></trkpt><trkpt lat="45.865915107487965" lon="10.915218622570604"><ele>220.0</ele><time>2026-04-28T09:10:00Z</time></trkpt><trkpt lat="45.86597449459445" lon="10.915184908858505"><ele>220.0</ele><time>2026-04-28T09:10:03Z</time></trkpt><trkpt lat="45.86604852146546" lon="10.91514288427102"><ele>220.0</ele><time>2026-04-28T09:10:06Z</time></trkpt><trkpt lat="45.86611018699873" lon="10.915107877132412"><ele>219.99999999999997</ele><time>2026-04-28T09:10:09Z</time></trkpt><trkpt lat="45.86617667232299" lon="10.915073833142383"><ele>220.0</ele><time>2026-04-28T09:10:12Z</time></trkpt><trkpt lat="45.866241854061705" lon="10.915047364166059"><ele>221.1428571428571</ele><time>2026-04-28T09:10:15Z</time></trkpt><trkpt lat="45.866315729943786" lon="10.915027384131077"><ele>222.28571428571428</ele><time>2026-04-28T09:10:18Z</time></trkpt><trkpt lat="45.86638600513845" lon="10.915014136145178"><ele>223.42857142857142</ele><time>2026-04-28T09:10:21Z</time></trkpt><trkpt lat="45.86646007713612" lon="10.915000768267138"><ele>224.57142857142856</ele><time>2026-04-28T09:10:24Z</time></trkpt><trkpt lat="45.866527511760374" lon="10.914990535795475"><ele>225.7142857142857</ele><time>2026-04-28T09:10:27Z</time></trkpt><trkpt lat="45.866598444114885" lon="10.914981805989354"><ele>226.85714285714283</ele><time>2026-04-28T09:10:30Z</time></trkpt><trkpt lat="45.86668611354384" lon="10.914969134535692"><ele>228.0</ele><time>2026-04-28T09:10:34Z</time></trkpt><trkpt lat="45.866758802292345" lon="10.914961253804558"><ele>227.5</ele><time>2026-04-28T09:10:37Z</time></trkpt><trkpt lat="45.86684631924844" lon="10.914953369735601"><ele>227.0</ele><time>2026-04-28T09:10:41Z</time></trkpt><trkpt lat="45.86691308154005" lon="10.914947007758228"><ele>226.5</ele><time>2026-04-28T09:10:44Z</time></trkpt><trkpt lat="45.8669827585584" lon="10.914943867019634"><ele>226.0</ele><time>2026-04-28T09:10:47Z</time></trkpt><trkpt lat="45.86704835900627" lon="10.914942351227689"><ele>225.5</ele><time>2026-04-28T09:10:50Z</time></trkpt><trkpt lat="45.86712874955598" lon="10.91494342928301"><ele>225.0</ele><time>2026-04-28T09:10:53Z</time></trkpt><trkpt lat="45.867208908475824" lon="10.914945090288745"><ele>225.00000000000003</ele><time>2026-04-28T09:10:57Z</time></trkpt><trkpt lat="45.86728264075736" lon="10.914946618124846"><ele>225.0</ele><time>2026-04-28T09:11:01Z</time></trkpt><trkpt lat="45.86734921273327" lon="10.914947461315604"><ele>225.00000000000003</ele><time>2026-04-28T09:11:04Z</time></trkpt><trkpt lat="45.86742026654484" lon="10.914945843941881"><ele>225.00000000000003</ele><time>2026-04-28T09:11:07Z</time></trkpt><trkpt lat="45.86749798887953" lon="10.91494204884201"><ele>225.0</ele><time>2026-04-28T09:11:10Z</time></trkpt><trkpt lat="45.86757191126316" lon="10.914940756967772"><ele>225.00000000000003</ele><time>2026-04-28T09:11:13Z</time></trkpt><trkpt lat="45.867635961203575" lon="10.91492819942486"><ele>225.00000000000003</ele><time>2026-04-28T09:11:16Z</time></trkpt><trkpt lat="45.86770663512304" lon="10.91490721794064"><ele>223.8571428571429</ele><time>2026-04-28T09:11:19Z</time></trkpt><trkpt lat="45.867774043780486" lon="10.91489165621392"><ele>222.71428571428572</ele><time>2026-04-28T09:11:22Z</time></trkpt><trkpt lat="45.867843778976024" lon="10.914831019411782"><ele>221.57142857142858</ele><time>2026-04-28T09:11:25Z</time></trkpt><trkpt lat="45.86790992398557" lon="10.91477947871425"><ele>220.42857142857144</ele><time>2026-04-28T09:11:28Z</time></trkpt><trkpt lat="45.8679730181557" lon="10.914715996548574"><ele>219.28571428571428</ele><time>2026-04-28T09:11:31Z</time></trkpt><trkpt lat="45.868022194108526" lon="10.914642194234894"><ele>218.14285714285714</ele><time>2026-04-28T09:11:34Z</time></trkpt><trkpt lat="45.86807419409759" lon="10.914568782819494"><ele>217.0</ele><time>2026-04-28T09:11:37Z</time></trkpt><trkpt lat="45.86811547452912" lon="10.914481964150086"><ele>217.0</ele><time>2026-04-28T09:11:40Z</time></trkpt><trkpt lat="45.868154570395454" lon="10.91440670167042"><ele>217.0</ele><time>2026-04-28T09:11:43Z</time></trkpt><trkpt lat="45.86820146712564" lon="10.914323701413256"><ele>217.0</ele><time>2026-04-28T09:11:46Z</time></trkpt><trkpt lat="45.86823772055713" lon="10.914233579751825"><ele>217.0</ele><time>2026-04-28T09:11:49Z</time></trkpt><trkpt lat="45.86826052431892" lon="10.914135039143144"><ele>217.0</ele><time>2026-04-28T09:11:52Z</time></trkpt><trkpt lat="45.86827031955136" lon="10.914009797707502"><ele>217.0</ele><time>2026-04-28T09:11:56Z</time></trkpt><trkpt lat="45.86827095193521" lon="10.91391614760665"><ele>217.0</ele><time>2026-04-28T09:11:59Z</time></trkpt><trkpt lat="45.868280195307726" lon="10.913815611352437"><ele>217.71428571428572</ele><time>2026-04-28T09:12:02Z</time></trkpt><trkpt lat="45.86826608628389" lon="10.913722383264373"><ele>218.42857142857144</ele><time>2026-04-28T09:12:05Z</time></trkpt><trkpt lat="45.86824507796968" lon="10.913619786359813"><ele>219.14285714285714</ele><time>2026-04-28T09:12:08Z</time></trkpt><trkpt lat="45.86824303560808" lon="10.913522967706013"><ele>219.85714285714286</ele><time>2026-04-28T09:12:11Z</time></trkpt><trkpt lat="45.868233218327376" lon="10.913401335932749"><ele>220.57142857142858</ele><time>2026-04-28T09:12:15Z</time></trkpt><trkpt lat="45.8682334111725" lon="10.913306853114499"><ele>221.28571428571428</ele><time>2026-04-28T09:12:18Z</time></trkpt><trkpt lat="45.86824083772217" lon="10.913215751422584"><ele>222.0</ele><time>2026-04-28T09:12:21Z</time></trkpt><trkpt lat="45.86826208363416" lon="10.913104865704806"><ele>221.85714285714286</ele><time>2026-04-28T09:12:25Z</time></trkpt><trkpt lat="45.868295239273046" lon="10.913018884757028"><ele>221.71428571428572</ele><time>2026-04-28T09:12:28Z</time></trkpt><trkpt lat="45.86833634818327" lon="10.912940493183328"><ele>221.57142857142858</ele><time>2026-04-28T09:12:31Z</time></trkpt><trkpt lat="45.86837156781163" lon="10.912854075247798"><ele>221.42857142857144</ele><time>2026-04-28T09:12:34Z</time></trkpt><trkpt lat="45.86841089769696" lon="10.912770415502568"><ele>221.28571428571428</ele><time>2026-04-28T09:12:37Z</time></trkpt><trkpt lat="45.868446374372546" lon="10.912686959577963"><ele>221.14285714285717</ele><time>2026-04-28T09:12:40Z</time></trkpt><trkpt lat="45.86848113781916" lon="10.912605383406442"><ele>221.0</ele><time>2026-04-28T09:12:43Z</time></trkpt><trkpt lat="45.86853248297874" lon="10.912504738546916"><ele>220.85714285714286</ele><time>2026-04-28T09:12:47Z</time></trkpt><trkpt lat="45.8685668907016" lon="10.912418155314128"><ele>220.71428571428572</ele><time>2026-04-28T09:12:50Z</time></trkpt><trkpt lat="45.86860463432148" lon="10.912342803600799"><ele>220.57142857142856</ele><time>2026-04-28T09:12:53Z</time></trkpt><trkpt lat="45.868647086227" lon="10.912261135998625"><ele>220.42857142857144</ele><time>2026-04-28T09:12:56Z</time></trkpt><trkpt lat="45.86868975551478" lon="10.912181640726924"><ele>220.28571428571428</ele><time>2026-04-28T09:12:59Z</time></trkpt><trkpt lat="45.868736306078546" lon="10.912118524025928"><ele>220.14285714285714</ele><time>2026-04-28T09:13:02Z</time></trkpt><trkpt lat="45.86877965317179" lon="10.912047584989182"><ele>220.0</ele><time>2026-04-28T09:13:05Z</time></trkpt><trkpt lat="45.86883550632159" lon="10.911973969563864"><ele>219.99999999999997</ele><time>2026-04-28T09:13:08Z</time></trkpt><trkpt lat="45.86887969321877" lon="10.911901801474626"><ele>220.0</ele><time>2026-04-28T09:13:11Z</time></trkpt><trkpt lat="45.868923983871866" lon="10.911819459446138"><ele>220.0</ele><time>2026-04-28T09:13:14Z</time></trkpt><trkpt lat="45.86896643758319" lon="10.91170477975487"><ele>220.0</ele><time>2026-04-28T09:13:18Z</time></trkpt><trkpt lat="45.8689840266691" lon="10.911607480623001"><ele>220.0</ele><time>2026-04-28T09:13:21Z</time></trkpt><trkpt lat="45.86901485421198" lon="10.911509923070192"><ele>219.99999999999997</ele><time>2026-04-28T09:13:25Z</time></trkpt><trkpt lat="45.86906117373936" lon="10.911427116925696"><ele>220.0</ele><time>2026-04-28T09:13:28Z</time></trkpt><trkpt lat="45.86911696080873" lon="10.911362274876527"><ele>220.42857142857142</ele><time>2026-04-28T09:13:31Z</time></trkpt><trkpt lat="45.86916543000574" lon="10.911279710827719"><ele>220.85714285714286</ele><time>2026-04-28T09:13:34Z</time></trkpt><trkpt lat="45.86919551073926" lon="10.91119411733725"><ele>221.28571428571428</ele><time>2026-04-28T09:13:37Z</time></trkpt><trkpt lat="45.86923835052082" lon="10.911117150579866"><ele>221.71428571428572</ele><time>2026-04-28T09:13:40Z</time></trkpt><trkpt lat="45.86926832273392" lon="10.911025388979766"><ele>222.14285714285714</ele><time>2026-04-28T09:13:43Z</time></trkpt><trkpt lat="45.86928610350986" lon="10.910922512783955"><ele>222.57142857142856</ele><time>2026-04-28T09:13:46Z</time></trkpt><trkpt lat="45.86930592379033" lon="10.91082449043316"><ele>223.0</ele><time>2026-04-28T09:13:49Z</time></trkpt><trkpt lat="45.869311990706315" lon="10.910720600578845"><ele>223.0</ele><time>2026-04-28T09:13:53Z</time></trkpt><trkpt lat="45.869351709353595" lon="10.9107980390747"><ele>223.0</ele><time>2026-04-28T09:13:58Z</time></trkpt><trkpt lat="45.869316768972816" lon="10.910900975526502"><ele>223.0</ele><time>2026-04-28T09:14:01Z</time></trkpt><trkpt lat="45.869299460259306" lon="10.910994674527032"><ele>223.0</ele><time>2026-04-28T09:14:04Z</time></trkpt><trkpt lat="45.86927115692256" lon="10.911091083777455"><ele>223.0</ele><time>2026-04-28T09:14:07Z</time></trkpt><trkpt lat="45.8692338591499" lon="10.911200842017314"><ele>223.0</ele><time>2026-04-28T09:14:11Z</time></trkpt><trkpt lat="45.869185872482404" lon="10.911266010303622"><ele>223.0</ele><time>2026-04-28T09:14:14Z</time></trkpt><trkpt lat="45.86914246077226" lon="10.911334420837612"><ele>223.28571428571428</ele><time>2026-04-28T09:14:17Z</time></trkpt><trkpt lat="45.869102240430976" lon="10.91141437589029"><ele>223.57142857142856</ele><time>2026-04-28T09:14:20Z</time></trkpt><trkpt lat="45.869051202236584" lon="10.9114787454588"><ele>223.8571428571429</ele><time>2026-04-28T09:14:23Z</time></trkpt><trkpt lat="45.86901813856549" lon="10.91156194163173"><ele>224.14285714285717</ele><time>2026-04-28T09:14:26Z</time></trkpt><trkpt lat="45.868998179826896" lon="10.911652092529307"><ele>224.42857142857144</ele><time>2026-04-28T09:14:29Z</time></trkpt><trkpt lat="45.86896208104204" lon="10.911735798678572"><ele>224.71428571428575</ele><time>2026-04-28T09:14:32Z</time></trkpt><trkpt lat="45.868937609189416" lon="10.911839041903127"><ele>225.00000000000003</ele><time>2026-04-28T09:14:35Z</time></trkpt><trkpt lat="45.868882191259" lon="10.911926453474294"><ele>224.16666666666666</ele><time>2026-04-28T09:14:39Z</time></trkpt><trkpt lat="45.868838015768176" lon="10.911994005267502"><ele>223.33333333333331</ele><time>2026-04-28T09:14:42Z</time></trkpt><trkpt lat="45.868775894958446" lon="10.912074442608581"><ele>222.5</ele><time>2026-04-28T09:14:46Z</time></trkpt><trkpt lat="45.86873475874646" lon="10.912159573663171"><ele>221.66666666666666</ele><time>2026-04-28T09:14:50Z</time></trkpt><trkpt lat="45.86867311893446" lon="10.912234662012704"><ele>220.83333333333331</ele><time>2026-04-28T09:14:54Z</time></trkpt><trkpt lat="45.868633094355644" lon="10.912325128297889"><ele>220.0</ele><time>2026-04-28T09:14:58Z</time></trkpt><trkpt lat="45.86858529374901" lon="10.912406735592683"><ele>219.99999999999997</ele><time>2026-04-28T09:15:02Z</time></trkpt><trkpt lat="45.868545781075696" lon="10.912481460576918"><ele>220.0</ele><time>2026-04-28T09:15:05Z</time></trkpt><trkpt lat="45.86849619181287" lon="10.912577156074773"><ele>220.0</ele><time>2026-04-28T09:15:09Z</time></trkpt><trkpt lat="45.868469735630065" lon="10.912662289415497"><ele>220.0</ele><time>2026-04-28T09:15:12Z</time></trkpt><trkpt lat="45.86843256913374" lon="10.912747046800222"><ele>220.0</ele><time>2026-04-28T09:15:15Z</time></trkpt><trkpt lat="45.86839209057235" lon="10.912830000612187"><ele>219.99999999999997</ele><time>2026-04-28T09:15:18Z</time></trkpt><trkpt lat="45.868353586175346" lon="10.91291910503041"><ele>220.0</ele><time>2026-04-28T09:15:21Z</time></trkpt><trkpt lat="45.86831921119467" lon="10.912999686540726"><ele>220.28571428571428</ele><time>2026-04-28T09:15:24Z</time></trkpt><trkpt lat="45.868289359238005" lon="10.913107048000068"><ele>220.57142857142856</ele><time>2026-04-28T09:15:27Z</time></trkpt><trkpt lat="45.86826704756221" lon="10.913194104018867"><ele>220.85714285714283</ele><time>2026-04-28T09:15:30Z</time></trkpt><trkpt lat="45.868253028301574" lon="10.913296864420149"><ele>221.14285714285714</ele><time>2026-04-28T09:15:33Z</time></trkpt><trkpt lat="45.86824986967285" lon="10.913397204646246"><ele>221.42857142857144</ele><time>2026-04-28T09:15:36Z</time></trkpt><trkpt lat="45.868263434428435" lon="10.913486142910005"><ele>221.7142857142857</ele><time>2026-04-28T09:15:39Z</time></trkpt><trkpt lat="45.868257342729635" lon="10.913603815157575"><ele>222.0</ele><time>2026-04-28T09:15:43Z</time></trkpt><trkpt lat="45.86827797241473" lon="10.913696387237865"><ele>222.0</ele><time>2026-04-28T09:15:46Z</time></trkpt><trkpt lat="45.86829634979284" lon="10.913809894338348"><ele>222.0</ele><time>2026-04-28T09:15:49Z</time></trkpt><trkpt lat="45.868305380099585" lon="10.913906617920142"><ele>222.0</ele><time>2026-04-28T09:15:52Z</time></trkpt><trkpt lat="45.86829992733906" lon="10.914011148382338"><ele>222.0</ele><time>2026-04-28T09:15:55Z</time></trkpt><trkpt lat="45.86827235734014" lon="10.914110015743299"><ele>222.0</ele><time>2026-04-28T09:15:58Z</time></trkpt><trkpt lat="45.86826494360575" lon="10.914200750024037"><ele>222.0</ele><time>2026-04-28T09:16:01Z</time></trkpt><trkpt lat="45.86823083012645" lon="10.91428663458777"><ele>222.0</ele><time>2026-04-28T09:16:04Z</time></trkpt><trkpt lat="45.86819902843932" lon="10.914402615187909"><ele>221.28571428571428</ele><time>2026-04-28T09:16:08Z</time></trkpt><trkpt lat="45.868157932659265" lon="10.914491498771298"><ele>220.57142857142858</ele><time>2026-04-28T09:16:11Z</time></trkpt><trkpt lat="45.86811623929112" lon="10.914565763600562"><ele>219.85714285714286</ele><time>2026-04-28T09:16:14Z</time></trkpt><trkpt lat="45.8680694402528" lon="10.914638217522382"><ele>219.14285714285714</ele><time>2026-04-28T09:16:17Z</time></trkpt><trkpt lat="45.86802549772321" lon="10.914712177407845"><ele>218.42857142857144</ele><time>2026-04-28T09:16:20Z</time></trkpt><trkpt lat="45.867971078957815" lon="10.91477778213046"><ele>217.71428571428572</ele><time>2026-04-28T09:16:23Z</time></trkpt><trkpt lat="45.86790673562539" lon="10.914840115546285"><ele>217.0</ele><time>2026-04-28T09:16:27Z</time></trkpt><trkpt lat="45.86784274960229" lon="10.914884363336416"><ele>217.0</ele><time>2026-04-28T09:16:30Z</time></trkpt><trkpt lat="45.86777464486305" lon="10.914918122586082"><ele>217.0</ele><time>2026-04-28T09:16:33Z</time></trkpt><trkpt lat="45.86770514598531" lon="10.914920683952811"><ele>217.0</ele><time>2026-04-28T09:16:36Z</time></trkpt><trkpt lat="45.86762963445919" lon="10.914937370119382"><ele>217.0</ele><time>2026-04-28T09:16:39Z</time></trkpt><trkpt lat="45.86756209470132" lon="10.914937233572836"><ele>217.0</ele><time>2026-04-28T09:16:42Z</time></trkpt><trkpt lat="45.86749495868695" lon="10.914951705269331"><ele>217.0</ele><time>2026-04-28T09:16:45Z</time></trkpt><trkpt lat="45.86742863188198" lon="10.914948067616276"><ele>217.0</ele><time>2026-04-28T09:16:48Z</time></trkpt><trkpt lat="45.867358783498574" lon="10.91495493405876"><ele>218.14285714285714</ele><time>2026-04-28T09:16:51Z</time></trkpt><trkpt lat="45.867292473090146" lon="10.914950142640201"><ele>219.28571428571428</ele><time>2026-04-28T09:16:54Z</time></trkpt><trkpt lat="45.867223563713914" lon="10.914950607824467"><ele>220.42857142857144</ele><time>2026-04-28T09:16:57Z</time></trkpt><trkpt lat="45.867157797157645" lon="10.914956910487005"><ele>221.57142857142858</ele><time>2026-04-28T09:17:00Z</time></trkpt><trkpt lat="45.86707069543328" lon="10.914946742767231"><ele>222.71428571428572</ele><time>2026-04-28T09:17:04Z</time></trkpt><trkpt lat="45.86700277381896" lon="10.91495615404463"><ele>223.8571428571429</ele><time>2026-04-28T09:17:07Z</time></trkpt><trkpt lat="45.86692003606661" lon="10.914956301147036"><ele>225.00000000000003</ele><time>2026-04-28T09:17:11Z</time></trkpt><trkpt lat="45.86685276900158" lon="10.914964965215523"><ele>225.00000000000003</ele><time>2026-04-28T09:17:14Z</time></trkpt><trkpt lat="45.866789534069234" lon="10.914958088070769"><ele>225.0</ele><time>2026-04-28T09:17:17Z</time></trkpt><trkpt lat="45.86672208187043" lon="10.914971274311162"><ele>225.00000000000003</ele><time>2026-04-28T09:17:20Z</time></trkpt><trkpt lat="45.86664703005934" lon="10.914973773465"><ele>225.00000000000003</ele><time>2026-04-28T09:17:23Z</time></trkpt><trkpt lat="45.86658238117596" lon="10.914982889478209"><ele>225.0</ele><time>2026-04-28T09:17:26Z</time></trkpt><trkpt lat="45.86651324623132" lon="10.914997159593407"><ele>225.00000000000003</ele><time>2026-04-28T09:17:29Z</time></trkpt><trkpt lat="45.86644237638785" lon="10.915008015549942"><ele>225.00000000000003</ele><time>2026-04-28T09:17:32Z</time></trkpt><trkpt lat="45.8663669031366" lon="10.915027411717514"><ele>225.42857142857144</ele><time>2026-04-28T09:17:35Z</time></trkpt><trkpt lat="45.86630343241831" lon="10.915043059856485"><ele>225.85714285714286</ele><time>2026-04-28T09:17:38Z</time></trkpt><trkpt lat="45.866236459183575" lon="10.915062405700798"><ele>226.28571428571428</ele><time>2026-04-28T09:17:41Z</time></trkpt><trkpt lat="45.866150871326525" lon="10.91509906153451"><ele>226.71428571428572</ele><time>2026-04-28T09:17:45Z</time></trkpt><trkpt lat="45.866085279480956" lon="10.915135870719125"><ele>227.1428571428571</ele><time>2026-04-28T09:17:48Z</time></trkpt><trkpt lat="45.86600792835707" lon="10.915179782503637"><ele>227.57142857142856</ele><time>2026-04-28T09:17:52Z</time></trkpt><trkpt lat="45.86594839819008" lon="10.915213577366828"><ele>228.0</ele><time>2026-04-28T09:17:55Z</time></trkpt><trkpt lat="45.865875248212355" lon="10.915255104156891"><ele>226.85714285714283</ele><time>2026-04-28T09:17:58Z</time></trkpt><trkpt lat="45.86581055141539" lon="10.915290130115645"><ele>225.7142857142857</ele><time>2026-04-28T09:18:01Z</time></trkpt><trkpt lat="45.86574388312446" lon="10.91532545055465"><ele>224.57142857142856</ele><time>2026-04-28T09:18:04Z</time></trkpt><trkpt lat="45.865681697085876" lon="10.91537296353933"><ele>223.42857142857142</ele><time>2026-04-28T09:18:07Z</time></trkpt><trkpt lat="45.86561812803806" lon="10.915423401550223"><ele>222.28571428571428</ele><time>2026-04-28T09:18:10Z</time></trkpt><trkpt lat="45.865564269339515" lon="10.915474490539076"><ele>221.1428571428571</ele><time>2026-04-28T09:18:13Z</time></trkpt><trkpt lat="45.865500677363706" lon="10.915539046334684"><ele>220.0</ele><time>2026-04-28T09:18:17Z</time></trkpt><trkpt lat="45.8654435911687" lon="10.915608452905314"><ele>219.99999999999997</ele><time>2026-04-28T09:18:20Z</time></trkpt><trkpt lat="45.86539289487462" lon="10.915670149713165"><ele>220.0</ele><time>2026-04-28T09:18:23Z</time></trkpt><trkpt lat="45.86533287425215" lon="10.915736282724373"><ele>220.0</ele><time>2026-04-28T09:18:26Z</time></trkpt><trkpt lat="45.86527920415818" lon="10.915795418606049"><ele>220.0</ele><time>2026-04-28T09:18:29Z</time></trkpt><trkpt lat="45.86522543843728" lon="10.915856582232287"><ele>220.0</ele><time>2026-04-28T09:18:32Z</time></trkpt><trkpt lat="45.86516534999314" lon="10.91592511732827"><ele>219.99999999999997</ele><time>2026-04-28T09:18:35Z</time></trkpt><trkpt lat="45.86510930663422" lon="10.915985501137628"><ele>220.0</ele><time>2026-04-28T09:18:38Z</time></trkpt><trkpt lat="45.8650582129357" lon="10.91604625031829"><ele>222.49999999999997</ele><time>2026-04-28T09:18:41Z</time></trkpt><trkpt lat="45.86499261442238" lon="10.916110146241918"><ele>225.0</ele><time>2026-04-28T09:18:44Z</time></trkpt><trkpt lat="45.86491579863198" lon="10.916160343100941"><ele>227.5</ele><time>2026-04-28T09:18:48Z</time></trkpt><trkpt lat="45.86484867327739" lon="10.91620017107159"><ele>230.0</ele><time>2026-04-28T09:18:51Z</time></trkpt><trkpt lat="45.8647864062881" lon="10.9162455600803"><ele>232.49999999999997</ele><time>2026-04-28T09:18:55Z</time></trkpt><trkpt lat="45.8647192674485" lon="10.916309796258743"><ele>235.0</ele><time>2026-04-28T09:18:58Z</time></trkpt><trkpt lat="45.86465019415226" lon="10.916370954871917"><ele>235.0</ele><time>2026-04-28T09:19:01Z</time></trkpt><trkpt lat="45.864585473184675" lon="10.916430039536163"><ele>234.99999999999997</ele><time>2026-04-28T09:19:04Z</time></trkpt><trkpt lat="45.864522812367426" lon="10.916484519736407"><ele>235.0</ele><time>2026-04-28T09:19:07Z</time></trkpt><trkpt lat="45.86446274083751" lon="10.916533418204057"><ele>235.0</ele><time>2026-04-28T09:19:10Z</time></trkpt><trkpt lat="45.86439995066336" lon="10.916582058868356"><ele>234.99999999999997</ele><time>2026-04-28T09:19:13Z</time></trkpt><trkpt lat="45.864334614041184" lon="10.91662476618089"><ele>235.0</ele><time>2026-04-28T09:19:16Z</time></trkpt><trkpt lat="45.86425431657221" lon="10.916670586167681"><ele>235.0</ele><time>2026-04-28T09:19:20Z</time></trkpt><trkpt lat="45.86418876507175" lon="10.916712076653914"><ele>233.16666666666666</ele><time>2026-04-28T09:19:23Z</time></trkpt><trkpt lat="45.86411777972585" lon="10.916767782240726"><ele>231.33333333333331</ele><time>2026-04-28T09:19:27Z</time></trkpt><trkpt lat="45.86404413436116" lon="10.916818891059826"><ele>229.5</ele><time>2026-04-28T09:19:31Z</time></trkpt><trkpt lat="45.86397682028478" lon="10.91685693703801"><ele>227.66666666666669</ele><time>2026-04-28T09:19:34Z</time></trkpt><trkpt lat="45.86391174467683" lon="10.916893440648243"><ele>225.83333333333334</ele><time>2026-04-28T09:19:37Z</time></trkpt><trkpt lat="45.863839398175585" lon="10.91693010804571"><ele>224.0</ele><time>2026-04-28T09:19:40Z</time></trkpt><trkpt lat="45.86377108623963" lon="10.916959737293647"><ele>224.0</ele><time>2026-04-28T09:19:43Z</time></trkpt><trkpt lat="45.86370275966511" lon="10.916979492802183"><ele>224.0</ele><time>2026-04-28T09:19:46Z</time></trkpt><trkpt lat="45.86363414182057" lon="10.916990343111634"><ele>224.0</ele><time>2026-04-28T09:19:49Z</time></trkpt><trkpt lat="45.863561244790446" lon="10.91699395807667"><ele>224.0</ele><time>2026-04-28T09:19:52Z</time></trkpt><trkpt lat="45.863488757146506" lon="10.91699530634416"><ele>224.0</ele><time>2026-04-28T09:19:55Z</time></trkpt><trkpt lat="45.86341121774352" lon="10.916995505010192"><ele>224.0</ele><time>2026-04-28T09:19:58Z</time></trkpt><trkpt lat="45.86334104331215" lon="10.916991476656937"><ele>224.0</ele><time>2026-04-28T09:20:01Z</time></trkpt><trkpt lat="45.863271695842" lon="10.916985729761828"><ele>222.85714285714286</ele><time>2026-04-28T09:20:04Z</time></trkpt><trkpt lat="45.863203741829444" lon="10.916983433447909"><ele>221.71428571428572</ele><time>2026-04-28T09:20:07Z</time></trkpt><trkpt lat="45.863124977008226" lon="10.916990015519868"><ele>220.57142857142856</ele><time>2026-04-28T09:20:10Z</time></trkpt><trkpt lat="45.863059366221115" lon="10.916994195018843"><ele>219.42857142857144</ele><time>2026-04-28T09:20:13Z</time></trkpt><trkpt lat="45.86297277289994" lon="10.9170068547633"><ele>218.28571428571428</ele><time>2026-04-28T09:20:17Z</time></trkpt><trkpt lat="45.862899852125146" lon="10.917027288763498"><ele>217.14285714285714</ele><time>2026-04-28T09:20:20Z</time></trkpt><trkpt lat="45.86283664590022" lon="10.917050260922217"><ele>216.0</ele><time>2026-04-28T09:20:23Z</time></trkpt><trkpt lat="45.86277447148134" lon="10.917074497774035"><ele>216.0</ele><time>2026-04-28T09:20:26Z</time></trkpt><trkpt lat="45.86270492875262" lon="10.917106155468378"><ele>216.0</ele><time>2026-04-28T09:20:29Z</time></trkpt><trkpt lat="45.862637947867185" lon="10.917132987188381"><ele>216.0</ele><time>2026-04-28T09:20:32Z</time></trkpt><trkpt lat="45.862572427737284" lon="10.917174112138952"><ele>216.0</ele><time>2026-04-28T09:20:35Z</time></trkpt><trkpt lat="45.86250160601558" lon="10.91720713910237"><ele>216.0</ele><time>2026-04-28T09:20:38Z</time></trkpt><trkpt lat="45.862433244383546" lon="10.917238884709246"><ele>216.0</ele><time>2026-04-28T09:20:41Z</time></trkpt><trkpt lat="45.862367338775265" lon="10.917275970165438"><ele>216.0</ele><time>2026-04-28T09:20:44Z</time></trkpt><trkpt lat="45.86230288999863" lon="10.917305784807084"><ele>216.14285714285714</ele><time>2026-04-28T09:20:47Z</time></trkpt><trkpt lat="45.86223795572876" lon="10.917332173781267"><ele>216.28571428571428</ele><time>2026-04-28T09:20:50Z</time></trkpt><trkpt lat="45.86217546183159" lon="10.917357550041258"><ele>216.42857142857144</ele><time>2026-04-28T09:20:53Z</time></trkpt><trkpt lat="45.862105178146265" lon="10.917383904840275"><ele>216.57142857142856</ele><time>2026-04-28T09:20:56Z</time></trkpt><trkpt lat="45.86204347498584" lon="10.917406191273024"><ele>216.71428571428572</ele><time>2026-04-28T09:20:59Z</time></trkpt><trkpt lat="45.861978849999666" lon="10.917429162943597"><ele>216.85714285714286</ele><time>2026-04-28T09:21:02Z</time></trkpt><trkpt lat="45.86191002429286" lon="10.917453176655556"><ele>217.0</ele><time>2026-04-28T09:21:05Z</time></trkpt><trkpt lat="45.86184014869875" lon="10.917476302511169"><ele>216.49999999999997</ele><time>2026-04-28T09:21:08Z</time></trkpt><trkpt lat="45.86177510588996" lon="10.917503222238778"><ele>216.0</ele><time>2026-04-28T09:21:11Z</time></trkpt><trkpt lat="45.861715416107515" lon="10.917539946638449"><ele>215.5</ele><time>2026-04-28T09:21:14Z</time></trkpt><trkpt lat="45.86164749356941" lon="10.917586151586308"><ele>215.0</ele><time>2026-04-28T09:21:17Z</time></trkpt><trkpt lat="45.86157217442406" lon="10.917639292671387"><ele>214.49999999999997</ele><time>2026-04-28T09:21:21Z</time></trkpt><trkpt lat="45.86150507415425" lon="10.917689740061263"><ele>214.0</ele><time>2026-04-28T09:21:24Z</time></trkpt><trkpt lat="45.861429251386284" lon="10.917746969482153"><ele>214.00000000000003</ele><time>2026-04-28T09:21:28Z</time></trkpt><trkpt lat="45.861362958392995" lon="10.91779129607857"><ele>214.0</ele><time>2026-04-28T09:21:31Z</time></trkpt><trkpt lat="45.86130285801669" lon="10.9178444378586"><ele>214.0</ele><time>2026-04-28T09:21:34Z</time></trkpt><trkpt lat="45.861240163593486" lon="10.91789406864272"><ele>214.0</ele><time>2026-04-28T09:21:37Z</time></trkpt><trkpt lat="45.861175723822754" lon="10.917946116034212"><ele>214.0</ele><time>2026-04-28T09:21:40Z</time></trkpt><trkpt lat="45.86111541343458" lon="10.917995589929903"><ele>214.00000000000003</ele><time>2026-04-28T09:21:43Z</time></trkpt><trkpt lat="45.86105166041832" lon="10.918048618114566"><ele>214.0</ele><time>2026-04-28T09:21:46Z</time></trkpt><trkpt lat="45.86099723794776" lon="10.9180960874177"><ele>214.14285714285717</ele><time>2026-04-28T09:21:49Z</time></trkpt><trkpt lat="45.860922007666595" lon="10.918167889099914"><ele>214.28571428571428</ele><time>2026-04-28T09:21:53Z</time></trkpt><trkpt lat="45.860866639569636" lon="10.918231976667702"><ele>214.42857142857144</ele><time>2026-04-28T09:21:56Z</time></trkpt><trkpt lat="45.86080994563064" lon="10.91828785375189"><ele>214.57142857142858</ele><time>2026-04-28T09:21:59Z</time></trkpt><trkpt lat="45.86075136958739" lon="10.918339220259046"><ele>214.71428571428572</ele><time>2026-04-28T09:22:02Z</time></trkpt><trkpt lat="45.86068233359678" lon="10.918393865426312"><ele>214.85714285714286</ele><time>2026-04-28T09:22:05Z</time></trkpt><trkpt lat="45.8606200817702" lon="10.918443616645737"><ele>215.0</ele><time>2026-04-28T09:22:08Z</time></trkpt><trkpt lat="45.860557233640925" lon="10.918490652715413"><ele>215.0</ele><time>2026-04-28T09:22:11Z</time></trkpt><trkpt lat="45.86049516515368" lon="10.918529303060568"><ele>215.0</ele><time>2026-04-28T09:22:14Z</time></trkpt><trkpt lat="45.860431019855625" lon="10.918584250203073"><ele>215.0</ele><time>2026-04-28T09:22:17Z</time></trkpt><trkpt lat="45.86036873056874" lon="10.918633703219907"><ele>215.0</ele><time>2026-04-28T09:22:20Z</time></trkpt><trkpt lat="45.86030796771564" lon="10.918683164875887"><ele>215.0</ele><time>2026-04-28T09:22:23Z</time></trkpt><trkpt lat="45.86024891202673" lon="10.918731236831428"><ele>215.0</ele><time>2026-04-28T09:22:26Z</time></trkpt><trkpt lat="45.86019194821986" lon="10.918778335898931"><ele>215.0</ele><time>2026-04-28T09:22:29Z</time></trkpt><trkpt lat="45.86013427639733" lon="10.918827472346004"><ele>216.83333333333334</ele><time>2026-04-28T09:22:32Z</time></trkpt><trkpt lat="45.860070948917695" lon="10.91886644132552"><ele>218.66666666666669</ele><time>2026-04-28T09:22:35Z</time></trkpt><trkpt lat="45.860010467377364" lon="10.918927733758242"><ele>220.5</ele><time>2026-04-28T09:22:38Z</time></trkpt><trkpt lat="45.85995431725961" lon="10.918980797492415"><ele>222.33333333333331</ele><time>2026-04-28T09:22:41Z</time></trkpt><trkpt lat="45.85988952078359" lon="10.919036004079995"><ele>224.16666666666666</ele><time>2026-04-28T09:22:44Z</time></trkpt><trkpt lat="45.85981447838346" lon="10.919099940174478"><ele>226.0</ele><time>2026-04-28T09:22:48Z</time></trkpt><trkpt lat="45.859746013283946" lon="10.919158978250511"><ele>225.99999999999997</ele><time>2026-04-28T09:22:51Z</time></trkpt><trkpt lat="45.85966814211382" lon="10.919226691368142"><ele>226.0</ele><time>2026-04-28T09:22:55Z</time></trkpt><trkpt lat="45.8596086901704" lon="10.919278388027859"><ele>226.0</ele><time>2026-04-28T09:22:58Z</time></trkpt><trkpt lat="45.85954477512868" lon="10.919333965583842"><ele>226.0</ele><time>2026-04-28T09:23:02Z</time></trkpt><trkpt lat="45.85947226094191" lon="10.91938195310768"><ele>225.99999999999997</ele><time>2026-04-28T09:23:05Z</time></trkpt><trkpt lat="45.859417791553696" lon="10.919444384614266"><ele>226.0</ele><time>2026-04-28T09:23:08Z</time></trkpt><trkpt lat="45.859351451382835" lon="10.91949903295679"><ele>226.0</ele><time>2026-04-28T09:23:11Z</time></trkpt><trkpt lat="45.85929428242965" lon="10.919546023397132"><ele>226.0</ele><time>2026-04-28T09:23:14Z</time></trkpt><trkpt lat="45.85923686153399" lon="10.91959322094716"><ele>226.0</ele><time>2026-04-28T09:23:17Z</time></trkpt><trkpt lat="45.85917826668892" lon="10.919641383578393"><ele>226.0</ele><time>2026-04-28T09:23:20Z</time></trkpt><trkpt lat="45.85911966211281" lon="10.919689554230501"><ele>226.0</ele><time>2026-04-28T09:23:23Z</time></trkpt><trkpt lat="45.85905808628354" lon="10.919739123057122"><ele>226.0</ele><time>2026-04-28T09:23:26Z</time></trkpt><trkpt lat="45.858992093342025" lon="10.919789923642728"><ele>226.0</ele><time>2026-04-28T09:23:29Z</time></trkpt><trkpt lat="45.858930401041476" lon="10.919837413640526"><ele>226.0</ele><time>2026-04-28T09:23:32Z</time></trkpt><trkpt lat="45.85886788513984" lon="10.919879280003585"><ele>226.0</ele><time>2026-04-28T09:23:35Z</time></trkpt><trkpt lat="45.85880510624561" lon="10.919934376496073"><ele>226.0</ele><time>2026-04-28T09:23:38Z</time></trkpt><trkpt lat="45.85874459740159" lon="10.919984418930552"><ele>226.0</ele><time>2026-04-28T09:23:41Z</time></trkpt><trkpt lat="45.8586843830728" lon="10.920035337303966"><ele>226.0</ele><time>2026-04-28T09:23:44Z</time></trkpt><trkpt lat="45.858624043821294" lon="10.92008760907943"><ele>226.0</ele><time>2026-04-28T09:23:47Z</time></trkpt><trkpt lat="45.85855771866195" lon="10.9201450664423"><ele>226.0</ele><time>2026-04-28T09:23:50Z</time></trkpt><trkpt lat="45.858494790055296" lon="10.92019958135354"><ele>225.14285714285714</ele><time>2026-04-28T09:23:53Z</time></trkpt><trkpt lat="45.85843891589777" lon="10.920247985040783"><ele>224.28571428571428</ele><time>2026-04-28T09:23:56Z</time></trkpt><trkpt lat="45.858371790447805" lon="10.92030613573617"><ele>223.42857142857142</ele><time>2026-04-28T09:23:59Z</time></trkpt><trkpt lat="45.85831043742284" lon="10.920359285649612"><ele>222.57142857142856</ele><time>2026-04-28T09:24:02Z</time></trkpt><trkpt lat="45.85824610747297" lon="10.920412524480232"><ele>221.71428571428572</ele><time>2026-04-28T09:24:05Z</time></trkpt><trkpt lat="45.85818585049913" lon="10.92046059541047"><ele>220.85714285714283</ele><time>2026-04-28T09:24:08Z</time></trkpt><trkpt lat="45.85812441248422" lon="10.920508739721416"><ele>220.0</ele><time>2026-04-28T09:24:11Z</time></trkpt><trkpt lat="45.85806685079504" lon="10.920564506911367"><ele>219.99999999999997</ele><time>2026-04-28T09:24:14Z</time></trkpt><trkpt lat="45.85800686006362" lon="10.920628428861209"><ele>220.0</ele><time>2026-04-28T09:24:17Z</time></trkpt><trkpt lat="45.85795390212157" lon="10.920692271681377"><ele>220.0</ele><time>2026-04-28T09:24:20Z</time></trkpt><trkpt lat="45.857937247686365" lon="10.920796015225124"><ele>220.0</ele><time>2026-04-28T09:24:22Z</time></trkpt><trkpt lat="45.85795283288905" lon="10.920892863420818"><ele>219.99999999999997</ele><time>2026-04-28T09:24:25Z</time></trkpt><trkpt lat="45.857970821661915" lon="10.9209974511796"><ele>220.0</ele><time>2026-04-28T09:24:28Z</time></trkpt><trkpt lat="45.857992964265804" lon="10.921122882641205"><ele>219.42857142857142</ele><time>2026-04-28T09:24:32Z</time></trkpt><trkpt lat="45.85800841537082" lon="10.921215834544237"><ele>218.85714285714286</ele><time>2026-04-28T09:24:35Z</time></trkpt><trkpt lat="45.858021958982775" lon="10.921314801171267"><ele>218.28571428571428</ele><time>2026-04-28T09:24:38Z</time></trkpt><trkpt lat="45.85802528563727" lon="10.921416848975129"><ele>217.71428571428572</ele><time>2026-04-28T09:24:41Z</time></trkpt><trkpt lat="45.85798844246703" lon="10.921493535666398"><ele>217.14285714285714</ele><time>2026-04-28T09:24:44Z</time></trkpt><trkpt lat="45.85791436766139" lon="10.921521298681004"><ele>216.57142857142856</ele><time>2026-04-28T09:24:48Z</time></trkpt><trkpt lat="45.85785008152002" lon="10.921448362934473"><ele>216.0</ele><time>2026-04-28T09:24:52Z</time></trkpt><trkpt lat="45.85782704017909" lon="10.921363056479999"><ele>216.0</ele><time>2026-04-28T09:24:55Z</time></trkpt><trkpt lat="45.8578126203628" lon="10.921262810408628"><ele>216.0</ele><time>2026-04-28T09:24:58Z</time></trkpt><trkpt lat="45.85778476191353" lon="10.921180807978066"><ele>216.0</ele><time>2026-04-28T09:25:01Z</time></trkpt><trkpt lat="45.85771344401787" lon="10.92113413811619"><ele>216.0</ele><time>2026-04-28T09:25:04Z</time></trkpt><trkpt lat="45.85766186479733" lon="10.921186103993158"><ele>216.0</ele><time>2026-04-28T09:25:06Z</time></trkpt><trkpt lat="45.85762869568575" lon="10.921266896742974"><ele>216.0</ele><time>2026-04-28T09:25:09Z</time></trkpt><trkpt lat="45.85759771688422" lon="10.921355237982592"><ele>216.0</ele><time>2026-04-28T09:25:12Z</time></trkpt><trkpt lat="45.857564902697256" lon="10.921460975144418"><ele>217.0</ele><time>2026-04-28T09:25:15Z</time></trkpt><trkpt lat="45.8575379535446" lon="10.92157236234528"><ele>218.0</ele><time>2026-04-28T09:25:19Z</time></trkpt><trkpt lat="45.8575147917645" lon="10.921672652840092"><ele>219.0</ele><time>2026-04-28T09:25:22Z</time></trkpt><trkpt lat="45.857492935171834" lon="10.92176729190082"><ele>220.0</ele><time>2026-04-28T09:25:25Z</time></trkpt><trkpt lat="45.8574699535379" lon="10.921868005655226"><ele>221.0</ele><time>2026-04-28T09:25:28Z</time></trkpt><trkpt lat="45.85743958740844" lon="10.921961653634032"><ele>222.0</ele><time>2026-04-28T09:25:31Z</time></trkpt><trkpt lat="45.85742511391849" lon="10.922068721566177"><ele>223.0</ele><time>2026-04-28T09:25:34Z</time></trkpt><trkpt lat="45.8574033805587" lon="10.922166006725984"><ele>223.0</ele><time>2026-04-28T09:25:37Z</time></trkpt><trkpt lat="45.857381379342435" lon="10.922264490956737"><ele>223.0</ele><time>2026-04-28T09:25:40Z</time></trkpt><trkpt lat="45.857359421908086" lon="10.922362779192847"><ele>223.0</ele><time>2026-04-28T09:25:43Z</time></trkpt><trkpt lat="45.857338216416466" lon="10.922457701477251"><ele>223.0</ele><time>2026-04-28T09:25:46Z</time></trkpt><trkpt lat="45.85731696626724" lon="10.922552823675966"><ele>223.0</ele><time>2026-04-28T09:25:49Z</time></trkpt><trkpt lat="45.8572881582379" lon="10.9226504516044"><ele>223.0</ele><time>2026-04-28T09:25:52Z</time></trkpt><trkpt lat="45.85727156577893" lon="10.92274682215997"><ele>223.0</ele><time>2026-04-28T09:25:55Z</time></trkpt><trkpt lat="45.85724670990258" lon="10.922846883325048"><ele>222.85714285714286</ele><time>2026-04-28T09:25:58Z</time></trkpt><trkpt lat="45.857228172524735" lon="10.922949884815495"><ele>222.71428571428572</ele><time>2026-04-28T09:26:01Z</time></trkpt><trkpt lat="45.857205284219425" lon="10.923050551807988"><ele>222.57142857142856</ele><time>2026-04-28T09:26:04Z</time></trkpt><trkpt lat="45.857182582290115" lon="10.923150399062875"><ele>222.42857142857144</ele><time>2026-04-28T09:26:07Z</time></trkpt><trkpt lat="45.857153929271924" lon="10.92324679232035"><ele>222.2857142857143</ele><time>2026-04-28T09:26:10Z</time></trkpt><trkpt lat="45.85713572482694" lon="10.923356486790063"><ele>222.14285714285714</ele><time>2026-04-28T09:26:13Z</time></trkpt><trkpt lat="45.85711346792919" lon="10.923454376710206"><ele>222.0</ele><time>2026-04-28T09:26:16Z</time></trkpt><trkpt lat="45.85708938618409" lon="10.923560292640499"><ele>222.0</ele><time>2026-04-28T09:26:19Z</time></trkpt><trkpt lat="45.857067390565625" lon="10.923657033383424"><ele>222.0</ele><time>2026-04-28T09:26:22Z</time></trkpt><trkpt lat="45.857044664290385" lon="10.923756987725426"><ele>222.0</ele><time>2026-04-28T09:26:25Z</time></trkpt><trkpt lat="45.857023029861146" lon="10.923852148445334"><ele>222.0</ele><time>2026-04-28T09:26:28Z</time></trkpt><trkpt lat="45.856998320060846" lon="10.923957489485774"><ele>222.0</ele><time>2026-04-28T09:26:31Z</time></trkpt><trkpt lat="45.85697569006012" lon="10.924057030740958"><ele>222.0</ele><time>2026-04-28T09:26:34Z</time></trkpt><trkpt lat="45.85695265951264" lon="10.924156678430172"><ele>222.0</ele><time>2026-04-28T09:26:37Z</time></trkpt><trkpt lat="45.85693115932167" lon="10.924256893649137"><ele>222.0</ele><time>2026-04-28T09:26:40Z</time></trkpt><trkpt lat="45.85691046314976" lon="10.924348072801154"><ele>222.0</ele><time>2026-04-28T09:26:43Z</time></trkpt><trkpt lat="45.856887128349456" lon="10.92445087665683"><ele>222.0</ele><time>2026-04-28T09:26:46Z</time></trkpt><trkpt lat="45.85686338172279" lon="10.924555494891953"><ele>222.0</ele><time>2026-04-28T09:26:49Z</time></trkpt><trkpt lat="45.85684105155089" lon="10.924653872804198"><ele>222.0</ele><time>2026-04-28T09:26:52Z</time></trkpt><trkpt lat="45.85681853990676" lon="10.924753050204211"><ele>222.0</ele><time>2026-04-28T09:26:55Z</time></trkpt><trkpt lat="45.85679676277178" lon="10.924843693415346"><ele>222.0</ele><time>2026-04-28T09:26:58Z</time></trkpt><trkpt lat="45.85677750796778" lon="10.924936824099193"><ele>221.85714285714286</ele><time>2026-04-28T09:27:01Z</time></trkpt><trkpt lat="45.856753004187134" lon="10.92504731797193"><ele>221.71428571428572</ele><time>2026-04-28T09:27:04Z</time></trkpt><trkpt lat="45.856731806612025" lon="10.92514290338487"><ele>221.57142857142858</ele><time>2026-04-28T09:27:07Z</time></trkpt><trkpt lat="45.85671037998384" lon="10.925239521576707"><ele>221.42857142857144</ele><time>2026-04-28T09:27:10Z</time></trkpt><trkpt lat="45.85668923849716" lon="10.925334854016373"><ele>221.28571428571428</ele><time>2026-04-28T09:27:13Z</time></trkpt><trkpt lat="45.8566675160846" lon="10.925432806008812"><ele>221.14285714285717</ele><time>2026-04-28T09:27:16Z</time></trkpt><trkpt lat="45.856641840693165" lon="10.925534481367482"><ele>221.0</ele><time>2026-04-28T09:27:19Z</time></trkpt><trkpt lat="45.856622062745316" lon="10.925635430226237"><ele>221.00000000000003</ele><time>2026-04-28T09:27:22Z</time></trkpt><trkpt lat="45.85659805796258" lon="10.925738845082712"><ele>221.0</ele><time>2026-04-28T09:27:25Z</time></trkpt><trkpt lat="45.85657470374123" lon="10.925839193734445"><ele>221.0</ele><time>2026-04-28T09:27:28Z</time></trkpt><trkpt lat="45.856552514543566" lon="10.925934503826138"><ele>221.0</ele><time>2026-04-28T09:27:31Z</time></trkpt><trkpt lat="45.85652825264866" lon="10.926038716901429"><ele>221.0</ele><time>2026-04-28T09:27:34Z</time></trkpt><trkpt lat="45.8565050576711" lon="10.926138347182576"><ele>221.00000000000003</ele><time>2026-04-28T09:27:37Z</time></trkpt><trkpt lat="45.85648316581497" lon="10.92623238011331"><ele>221.0</ele><time>2026-04-28T09:27:40Z</time></trkpt><trkpt lat="45.85645944128749" lon="10.92633229714808"><ele>221.8571428571429</ele><time>2026-04-28T09:27:43Z</time></trkpt><trkpt lat="45.856436159516875" lon="10.926434288135505"><ele>222.71428571428572</ele><time>2026-04-28T09:27:46Z</time></trkpt><trkpt lat="45.85641514963" lon="10.926524532732913"><ele>223.57142857142858</ele><time>2026-04-28T09:27:49Z</time></trkpt><trkpt lat="45.85639072961198" lon="10.926629425005666"><ele>224.42857142857144</ele><time>2026-04-28T09:27:52Z</time></trkpt><trkpt lat="45.85637002956894" lon="10.926719045438801"><ele>225.2857142857143</ele><time>2026-04-28T09:27:55Z</time></trkpt><trkpt lat="45.856349442212135" lon="10.92680915873588"><ele>226.14285714285717</ele><time>2026-04-28T09:27:58Z</time></trkpt><trkpt lat="45.85632753990158" lon="10.926905027725322"><ele>227.0</ele><time>2026-04-28T09:28:01Z</time></trkpt><trkpt lat="45.85630456325421" lon="10.927005599259148"><ele>227.71428571428572</ele><time>2026-04-28T09:28:04Z</time></trkpt><trkpt lat="45.85628337440463" lon="10.927098348560516"><ele>228.42857142857144</ele><time>2026-04-28T09:28:07Z</time></trkpt><trkpt lat="45.8562619429524" lon="10.927192233345517"><ele>229.14285714285717</ele><time>2026-04-28T09:28:10Z</time></trkpt><trkpt lat="45.8562376248302" lon="10.927298763761435"><ele>229.8571428571429</ele><time>2026-04-28T09:28:13Z</time></trkpt><trkpt lat="45.85621634620126" lon="10.927391978998306"><ele>230.57142857142858</ele><time>2026-04-28T09:28:16Z</time></trkpt><trkpt lat="45.85619500632505" lon="10.927485462614555"><ele>231.28571428571433</ele><time>2026-04-28T09:28:19Z</time></trkpt><trkpt lat="45.856172888784485" lon="10.927584347593676"><ele>232.00000000000003</ele><time>2026-04-28T09:28:22Z</time></trkpt><trkpt lat="45.8561496050655" lon="10.92768906372709"><ele>232.5714285714286</ele><time>2026-04-28T09:28:25Z</time></trkpt><trkpt lat="45.85612683886591" lon="10.92779145238687"><ele>233.14285714285717</ele><time>2026-04-28T09:28:28Z</time></trkpt><trkpt lat="45.856102089978954" lon="10.927892679590624"><ele>233.71428571428572</ele><time>2026-04-28T09:28:31Z</time></trkpt><trkpt lat="45.85608156286732" lon="10.92799283406821"><ele>234.2857142857143</ele><time>2026-04-28T09:28:34Z</time></trkpt><trkpt lat="45.85606194847971" lon="10.928083290263576"><ele>234.8571428571429</ele><time>2026-04-28T09:28:37Z</time></trkpt><trkpt lat="45.8560406279998" lon="10.928184073851058"><ele>235.42857142857142</ele><time>2026-04-28T09:28:40Z</time></trkpt><trkpt lat="45.85602239004257" lon="10.928283549863906"><ele>236.0</ele><time>2026-04-28T09:28:43Z</time></trkpt><trkpt lat="45.85600476720977" lon="10.928387539530597"><ele>236.85714285714283</ele><time>2026-04-28T09:28:46Z</time></trkpt><trkpt lat="45.855986828430346" lon="10.928486061783245"><ele>237.71428571428572</ele><time>2026-04-28T09:28:49Z</time></trkpt><trkpt lat="45.85596542491568" lon="10.92858894716498"><ele>238.57142857142856</ele><time>2026-04-28T09:28:52Z</time></trkpt><trkpt lat="45.85594502963341" lon="10.928682079806613"><ele>239.42857142857142</ele><time>2026-04-28T09:28:55Z</time></trkpt><trkpt lat="45.8559188006469" lon="10.928780236631875"><ele>240.28571428571428</ele><time>2026-04-28T09:28:58Z</time></trkpt><trkpt lat="45.855900841237364" lon="10.928882446633823"><ele>241.14285714285714</ele><time>2026-04-28T09:29:01Z</time></trkpt><trkpt lat="45.85587900786553" lon="10.928983560158759"><ele>242.0</ele><time>2026-04-28T09:29:04Z</time></trkpt><trkpt lat="45.855856423888774" lon="10.929080737647837"><ele>239.7142857142857</ele><time>2026-04-28T09:29:07Z</time></trkpt><trkpt lat="45.855826933211624" lon="10.929178474528355"><ele>237.4285714285714</ele><time>2026-04-28T09:29:10Z</time></trkpt><trkpt lat="45.85580643712534" lon="10.929274466103777"><ele>235.14285714285714</ele><time>2026-04-28T09:29:13Z</time></trkpt><trkpt lat="45.855784797459506" lon="10.92937103511344"><ele>232.85714285714283</ele><time>2026-04-28T09:29:16Z</time></trkpt><trkpt lat="45.85576331067622" lon="10.929469229797924"><ele>230.57142857142856</ele><time>2026-04-28T09:29:19Z</time></trkpt><trkpt lat="45.85574625525117" lon="10.929590256987913"><ele>228.28571428571428</ele><time>2026-04-28T09:29:23Z</time></trkpt><trkpt lat="45.855725178055685" lon="10.929686579854941"><ele>226.0</ele><time>2026-04-28T09:29:26Z</time></trkpt><trkpt lat="45.85570597440257" lon="10.929774340648835"><ele>226.0</ele><time>2026-04-28T09:29:29Z</time></trkpt><trkpt lat="45.85568425936827" lon="10.929873578432478"><ele>226.0</ele><time>2026-04-28T09:29:32Z</time></trkpt><trkpt lat="45.85566536139868" lon="10.92995994224629"><ele>226.0</ele><time>2026-04-28T09:29:35Z</time></trkpt><trkpt lat="45.855643189544686" lon="10.93006313284207"><ele>226.0</ele><time>2026-04-28T09:29:38Z</time></trkpt><trkpt lat="45.85562333369603" lon="10.93015718290161"><ele>226.0</ele><time>2026-04-28T09:29:41Z</time></trkpt><trkpt lat="45.85559571528403" lon="10.930244228086218"><ele>226.0</ele><time>2026-04-28T09:29:44Z</time></trkpt><trkpt lat="45.85556177009361" lon="10.930344231060097"><ele>226.0</ele><time>2026-04-28T09:29:47Z</time></trkpt><trkpt lat="45.8555185738287" lon="10.930455258736485"><ele>226.57142857142858</ele><time>2026-04-28T09:29:51Z</time></trkpt><trkpt lat="45.85550123241709" lon="10.930575933963109"><ele>227.1428571428571</ele><time>2026-04-28T09:29:55Z</time></trkpt><trkpt lat="45.8554811196011" lon="10.93066885310718"><ele>227.7142857142857</ele><time>2026-04-28T09:29:58Z</time></trkpt><trkpt lat="45.85546080898607" lon="10.930757872544175"><ele>228.28571428571428</ele><time>2026-04-28T09:30:01Z</time></trkpt><trkpt lat="45.85543827954139" lon="10.930854868004504"><ele>228.85714285714283</ele><time>2026-04-28T09:30:04Z</time></trkpt><trkpt lat="45.8553967734852" lon="10.930947899893447"><ele>229.4285714285714</ele><time>2026-04-28T09:30:08Z</time></trkpt><trkpt lat="45.85533682441652" lon="10.931013737995238"><ele>229.99999999999997</ele><time>2026-04-28T09:30:11Z</time></trkpt><trkpt lat="45.85526841072102" lon="10.93106412912495"><ele>229.99999999999997</ele><time>2026-04-28T09:30:15Z</time></trkpt><trkpt lat="45.855198686285895" lon="10.931148014031816"><ele>230.0</ele><time>2026-04-28T09:30:18Z</time></trkpt><trkpt lat="45.85514412251844" lon="10.93121966017364"><ele>229.99999999999997</ele><time>2026-04-28T09:30:22Z</time></trkpt><trkpt lat="45.85510149300681" lon="10.931290318862008"><ele>229.99999999999997</ele><time>2026-04-28T09:30:25Z</time></trkpt><trkpt lat="45.855053704061106" lon="10.931352739159042"><ele>230.0</ele><time>2026-04-28T09:30:28Z</time></trkpt><trkpt lat="45.855004886738236" lon="10.931420825544159"><ele>229.99999999999997</ele><time>2026-04-28T09:30:31Z</time></trkpt><trkpt lat="45.85495472450507" lon="10.931494056643343"><ele>229.99999999999997</ele><time>2026-04-28T09:30:34Z</time></trkpt><trkpt lat="45.8549041634275" lon="10.931587911506044"><ele>229.71428571428567</ele><time>2026-04-28T09:30:38Z</time></trkpt><trkpt lat="45.85488213387093" lon="10.93169884325073"><ele>229.42857142857142</ele><time>2026-04-28T09:30:41Z</time></trkpt><trkpt lat="45.854860021923656" lon="10.931788486939794"><ele>229.1428571428571</ele><time>2026-04-28T09:30:44Z</time></trkpt><trkpt lat="45.85483599408347" lon="10.931895598593664"><ele>228.85714285714283</ele><time>2026-04-28T09:30:47Z</time></trkpt><trkpt lat="45.854824140822636" lon="10.93198494727437"><ele>228.57142857142856</ele><time>2026-04-28T09:30:50Z</time></trkpt><trkpt lat="45.854834908906724" lon="10.932097366803525"><ele>228.28571428571428</ele><time>2026-04-28T09:30:54Z</time></trkpt><trkpt lat="45.85486317307393" lon="10.932189880279497"><ele>228.0</ele><time>2026-04-28T09:30:57Z</time></trkpt><trkpt lat="45.85489428457854" lon="10.932304520734133"><ele>228.0</ele><time>2026-04-28T09:31:01Z</time></trkpt><trkpt lat="45.854910914899975" lon="10.932405583186798"><ele>227.99999999999997</ele><time>2026-04-28T09:31:04Z</time></trkpt><trkpt lat="45.85490615223648" lon="10.932498399044448"><ele>228.0</ele><time>2026-04-28T09:31:07Z</time></trkpt><trkpt lat="45.8548980569859" lon="10.932595930535758"><ele>228.0</ele><time>2026-04-28T09:31:10Z</time></trkpt><trkpt lat="45.85487871026184" lon="10.932714818308547"><ele>227.99999999999997</ele><time>2026-04-28T09:31:14Z</time></trkpt><trkpt lat="45.85485838861013" lon="10.93280886371337"><ele>228.0</ele><time>2026-04-28T09:31:17Z</time></trkpt><trkpt lat="45.85483586541105" lon="10.932912542169449"><ele>228.0</ele><time>2026-04-28T09:31:20Z</time></trkpt><trkpt lat="45.854813143616056" lon="10.933015544039607"><ele>228.0</ele><time>2026-04-28T09:31:23Z</time></trkpt><trkpt lat="45.85479156464451" lon="10.933112415859329"><ele>227.99999999999997</ele><time>2026-04-28T09:31:26Z</time></trkpt><trkpt lat="45.854769712041715" lon="10.933210515475755"><ele>228.0</ele><time>2026-04-28T09:31:29Z</time></trkpt><trkpt lat="45.85474734689355" lon="10.933310238853236"><ele>228.0</ele><time>2026-04-28T09:31:32Z</time></trkpt><trkpt lat="45.854726232406925" lon="10.93340261458963"><ele>227.99999999999997</ele><time>2026-04-28T09:31:35Z</time></trkpt><trkpt lat="45.85470280265584" lon="10.933505119820898"><ele>228.0</ele><time>2026-04-28T09:31:38Z</time></trkpt><trkpt lat="45.85468072565071" lon="10.93360170671555"><ele>228.0</ele><time>2026-04-28T09:31:41Z</time></trkpt><trkpt lat="45.85465838234021" lon="10.93369945869905"><ele>228.0</ele><time>2026-04-28T09:31:44Z</time></trkpt><trkpt lat="45.85463716101019" lon="10.933792302061606"><ele>227.99999999999997</ele><time>2026-04-28T09:31:47Z</time></trkpt><trkpt lat="45.854615423075664" lon="10.933892405261599"><ele>228.0</ele><time>2026-04-28T09:31:50Z</time></trkpt><trkpt lat="45.85459407022154" lon="10.933990892397636"><ele>228.0</ele><time>2026-04-28T09:31:53Z</time></trkpt><trkpt lat="45.85457159951799" lon="10.934094535530042"><ele>227.99999999999997</ele><time>2026-04-28T09:31:56Z</time></trkpt><trkpt lat="45.854549959422314" lon="10.934195697700881"><ele>228.0</ele><time>2026-04-28T09:31:59Z</time></trkpt><trkpt lat="45.85452993557775" lon="10.934289390547137"><ele>228.0</ele><time>2026-04-28T09:32:02Z</time></trkpt><trkpt lat="45.854507248573064" lon="10.934379279199055"><ele>228.0</ele><time>2026-04-28T09:32:05Z</time></trkpt><trkpt lat="45.85447567989785" lon="10.934470922745598"><ele>228.0</ele><time>2026-04-28T09:32:08Z</time></trkpt><trkpt lat="45.85440654473021" lon="10.934494776456289"><ele>228.0</ele><time>2026-04-28T09:32:14Z</time></trkpt><trkpt lat="45.854250941670436" lon="10.934451837301143"><ele>228.0</ele><time>2026-04-28T09:32:17Z</time></trkpt><trkpt lat="45.854181803943405" lon="10.934419292822728"><ele>228.0</ele><time>2026-04-28T09:32:20Z</time></trkpt><trkpt lat="45.854091947725415" lon="10.934409958169336"><ele>227.28571428571428</ele><time>2026-04-28T09:32:24Z</time></trkpt><trkpt lat="45.85402925011545" lon="10.934401285990628"><ele>226.57142857142856</ele><time>2026-04-28T09:32:27Z</time></trkpt><trkpt lat="45.853959973576856" lon="10.934384200305916"><ele>225.85714285714283</ele><time>2026-04-28T09:32:30Z</time></trkpt><trkpt lat="45.853886799607636" lon="10.934358957466014"><ele>225.14285714285714</ele><time>2026-04-28T09:32:33Z</time></trkpt><trkpt lat="45.853818044170765" lon="10.9343525233867"><ele>224.42857142857142</ele><time>2026-04-28T09:32:36Z</time></trkpt><trkpt lat="45.853738047971845" lon="10.934340041500993"><ele>223.71428571428572</ele><time>2026-04-28T09:32:40Z</time></trkpt><trkpt lat="45.8536605903255" lon="10.934345516937492"><ele>223.0</ele><time>2026-04-28T09:32:43Z</time></trkpt><trkpt lat="45.853590821696805" lon="10.934323753823431"><ele>222.99999999999997</ele><time>2026-04-28T09:32:46Z</time></trkpt><trkpt lat="45.853504381754135" lon="10.934341222625132"><ele>223.0</ele><time>2026-04-28T09:32:49Z</time></trkpt><trkpt lat="45.853440134406235" lon="10.934318350604354"><ele>223.0</ele><time>2026-04-28T09:32:52Z</time></trkpt><trkpt lat="45.85335582007508" lon="10.93429809733392"><ele>223.0</ele><time>2026-04-28T09:32:56Z</time></trkpt><trkpt lat="45.853290531855265" lon="10.934275763816569"><ele>222.99999999999997</ele><time>2026-04-28T09:32:59Z</time></trkpt><trkpt lat="45.85321790615204" lon="10.934264492854055"><ele>223.0</ele><time>2026-04-28T09:33:02Z</time></trkpt><trkpt lat="45.8531481712444" lon="10.934244158902715"><ele>222.71428571428572</ele><time>2026-04-28T09:33:05Z</time></trkpt><trkpt lat="45.853078065999725" lon="10.934234515458742"><ele>222.42857142857142</ele><time>2026-04-28T09:33:08Z</time></trkpt><trkpt lat="45.85300345922232" lon="10.934222549494416"><ele>222.14285714285717</ele><time>2026-04-28T09:33:11Z</time></trkpt><trkpt lat="45.85293007469987" lon="10.934199535024945"><ele>221.85714285714286</ele><time>2026-04-28T09:33:14Z</time></trkpt><trkpt lat="45.85286287869875" lon="10.934183233703937"><ele>221.57142857142858</ele><time>2026-04-28T09:33:17Z</time></trkpt><trkpt lat="45.85278673336179" lon="10.934164917336977"><ele>221.2857142857143</ele><time>2026-04-28T09:33:20Z</time></trkpt><trkpt lat="45.85271798072557" lon="10.934152705888428"><ele>221.0</ele><time>2026-04-28T09:33:23Z</time></trkpt><trkpt lat="45.85264283529647" lon="10.934125459954554"><ele>220.42857142857144</ele><time>2026-04-28T09:33:26Z</time></trkpt><trkpt lat="45.852571899745044" lon="10.934110492453847"><ele>219.85714285714286</ele><time>2026-04-28T09:33:29Z</time></trkpt><trkpt lat="45.85250156145824" lon="10.934098928637516"><ele>219.28571428571428</ele><time>2026-04-28T09:33:32Z</time></trkpt><trkpt lat="45.852426161440206" lon="10.934068066031584"><ele>218.71428571428572</ele><time>2026-04-28T09:33:35Z</time></trkpt><trkpt lat="45.85235724783971" lon="10.93406044916669"><ele>218.14285714285714</ele><time>2026-04-28T09:33:38Z</time></trkpt><trkpt lat="45.8522792525378" lon="10.934030311977208"><ele>217.57142857142858</ele><time>2026-04-28T09:33:41Z</time></trkpt><trkpt lat="45.8522096680912" lon="10.934010340601647"><ele>217.0</ele><time>2026-04-28T09:33:44Z</time></trkpt><trkpt lat="45.85213585220352" lon="10.933990329160384"><ele>217.0</ele><time>2026-04-28T09:33:47Z</time></trkpt><trkpt lat="45.852058243473124" lon="10.933964862995328"><ele>217.0</ele><time>2026-04-28T09:33:50Z</time></trkpt><trkpt lat="45.85198942884304" lon="10.93394514619073"><ele>217.0</ele><time>2026-04-28T09:33:53Z</time></trkpt><trkpt lat="45.85191662859368" lon="10.93391035044254"><ele>217.0</ele><time>2026-04-28T09:33:56Z</time></trkpt><trkpt lat="45.85184490069727" lon="10.933899904133307"><ele>217.0</ele><time>2026-04-28T09:33:59Z</time></trkpt><trkpt lat="45.85177536096046" lon="10.933864568711568"><ele>217.0</ele><time>2026-04-28T09:34:02Z</time></trkpt><trkpt lat="45.85170539699848" lon="10.933851421982734"><ele>217.0</ele><time>2026-04-28T09:34:05Z</time></trkpt><trkpt lat="45.85163569154982" lon="10.933822603963018"><ele>216.57142857142858</ele><time>2026-04-28T09:34:08Z</time></trkpt><trkpt lat="45.8515628974861" lon="10.93379853745509"><ele>216.14285714285714</ele><time>2026-04-28T09:34:11Z</time></trkpt><trkpt lat="45.85149339503517" lon="10.93378176958884"><ele>215.71428571428572</ele><time>2026-04-28T09:34:14Z</time></trkpt><trkpt lat="45.85142239162743" lon="10.933755571318134"><ele>215.28571428571428</ele><time>2026-04-28T09:34:17Z</time></trkpt><trkpt lat="45.851358020032606" lon="10.933725608886295"><ele>214.85714285714286</ele><time>2026-04-28T09:34:20Z</time></trkpt><trkpt lat="45.851290464411825" lon="10.933710428283824"><ele>214.42857142857144</ele><time>2026-04-28T09:34:23Z</time></trkpt><trkpt lat="45.85121962261134" lon="10.933678755293169"><ele>214.0</ele><time>2026-04-28T09:34:26Z</time></trkpt><trkpt lat="45.851152880356274" lon="10.933660217478296"><ele>214.00000000000003</ele><time>2026-04-28T09:34:29Z</time></trkpt><trkpt lat="45.85108117298647" lon="10.933633148406779"><ele>214.0</ele><time>2026-04-28T09:34:32Z</time></trkpt><trkpt lat="45.851014377625" lon="10.933617458637732"><ele>214.0</ele><time>2026-04-28T09:34:35Z</time></trkpt><trkpt lat="45.850947941114384" lon="10.933579817552891"><ele>214.0</ele><time>2026-04-28T09:34:38Z</time></trkpt><trkpt lat="45.85087954112776" lon="10.933570035324466"><ele>214.0</ele><time>2026-04-28T09:34:41Z</time></trkpt><trkpt lat="45.85081083702086" lon="10.933541559356978"><ele>214.00000000000003</ele><time>2026-04-28T09:34:44Z</time></trkpt><trkpt lat="45.85074623062651" lon="10.933511131709269"><ele>214.0</ele><time>2026-04-28T09:34:47Z</time></trkpt><trkpt lat="45.85082452050363" lon="10.93356222410272"><ele>214.00000000000003</ele><time>2026-04-28T09:34:52Z</time></trkpt><trkpt lat="45.850910115206496" lon="10.933578305249245"><ele>214.0</ele><time>2026-04-28T09:34:56Z</time></trkpt><trkpt lat="45.850974177405725" lon="10.93359871068605"><ele>214.0</ele><time>2026-04-28T09:34:59Z</time></trkpt><trkpt lat="45.85105580222947" lon="10.933628770489223"><ele>214.0</ele><time>2026-04-28T09:35:03Z</time></trkpt><trkpt lat="45.85112760970695" lon="10.933653191875003"><ele>214.0</ele><time>2026-04-28T09:35:06Z</time></trkpt><trkpt lat="45.85119810789619" lon="10.933674830269807"><ele>214.00000000000003</ele><time>2026-04-28T09:35:09Z</time></trkpt><trkpt lat="45.85125836398398" lon="10.933701403760658"><ele>214.0</ele><time>2026-04-28T09:35:12Z</time></trkpt><trkpt lat="45.85132589739321" lon="10.93372380600816"><ele>214.00000000000003</ele><time>2026-04-28T09:35:15Z</time></trkpt><trkpt lat="45.85139525326597" lon="10.933746203468184"><ele>214.0</ele><time>2026-04-28T09:35:18Z</time></trkpt><trkpt lat="45.85146337850998" lon="10.933767372063908"><ele>214.0</ele><time>2026-04-28T09:35:21Z</time></trkpt><trkpt lat="45.851533465584076" lon="10.933790506997191"><ele>214.0</ele><time>2026-04-28T09:35:24Z</time></trkpt><trkpt lat="45.85159933626519" lon="10.933816661505467"><ele>214.0</ele><time>2026-04-28T09:35:27Z</time></trkpt><trkpt lat="45.851663219645985" lon="10.933845397365438"><ele>214.00000000000003</ele><time>2026-04-28T09:35:30Z</time></trkpt><trkpt lat="45.85172862017852" lon="10.93386496568529"><ele>214.0</ele><time>2026-04-28T09:35:33Z</time></trkpt><trkpt lat="45.85179589246572" lon="10.933881207880457"><ele>214.42857142857144</ele><time>2026-04-28T09:35:36Z</time></trkpt><trkpt lat="45.851855885628545" lon="10.933911367343931"><ele>214.85714285714286</ele><time>2026-04-28T09:35:39Z</time></trkpt><trkpt lat="45.85192382959472" lon="10.933928109086347"><ele>215.28571428571428</ele><time>2026-04-28T09:35:42Z</time></trkpt><trkpt lat="45.8519889560273" lon="10.933947771482371"><ele>215.71428571428572</ele><time>2026-04-28T09:35:45Z</time></trkpt><trkpt lat="45.85205256856248" lon="10.933967842680234"><ele>216.14285714285714</ele><time>2026-04-28T09:35:48Z</time></trkpt><trkpt lat="45.85211779124044" lon="10.93399578440955"><ele>216.57142857142858</ele><time>2026-04-28T09:35:51Z</time></trkpt><trkpt lat="45.85218571404517" lon="10.934012022110853"><ele>217.0</ele><time>2026-04-28T09:35:54Z</time></trkpt><trkpt lat="45.85225243825687" lon="10.934042127442938"><ele>217.0</ele><time>2026-04-28T09:35:57Z</time></trkpt><trkpt lat="45.85231939773969" lon="10.934059450524733"><ele>217.0</ele><time>2026-04-28T09:36:00Z</time></trkpt><trkpt lat="45.85238803066124" lon="10.934085215965615"><ele>217.0</ele><time>2026-04-28T09:36:03Z</time></trkpt><trkpt lat="45.85247237922404" lon="10.93410362377119"><ele>217.0</ele><time>2026-04-28T09:36:07Z</time></trkpt><trkpt lat="45.852543291927105" lon="10.93412105257612"><ele>217.0</ele><time>2026-04-28T09:36:10Z</time></trkpt><trkpt lat="45.85260975097321" lon="10.93413083587417"><ele>217.0</ele><time>2026-04-28T09:36:13Z</time></trkpt><trkpt lat="45.85267589800966" lon="10.93414393506083"><ele>217.0</ele><time>2026-04-28T09:36:16Z</time></trkpt><trkpt lat="45.85274224742316" lon="10.934158297790177"><ele>217.42857142857142</ele><time>2026-04-28T09:36:19Z</time></trkpt><trkpt lat="45.85280918562243" lon="10.934177988956984"><ele>217.85714285714286</ele><time>2026-04-28T09:36:22Z</time></trkpt><trkpt lat="45.85288101734882" lon="10.934192842377149"><ele>218.28571428571428</ele><time>2026-04-28T09:36:25Z</time></trkpt><trkpt lat="45.85296126380301" lon="10.934201629851731"><ele>218.71428571428572</ele><time>2026-04-28T09:36:28Z</time></trkpt><trkpt lat="45.85304187296197" lon="10.934210533212482"><ele>219.14285714285714</ele><time>2026-04-28T09:36:32Z</time></trkpt><trkpt lat="45.85310687149366" lon="10.934232057353304"><ele>219.57142857142856</ele><time>2026-04-28T09:36:35Z</time></trkpt><trkpt lat="45.85317277956496" lon="10.934244201125473"><ele>220.0</ele><time>2026-04-28T09:36:38Z</time></trkpt><trkpt lat="45.85324207147696" lon="10.934258037679346"><ele>219.99999999999997</ele><time>2026-04-28T09:36:41Z</time></trkpt><trkpt lat="45.85330854626229" lon="10.934269178778319"><ele>220.0</ele><time>2026-04-28T09:36:44Z</time></trkpt><trkpt lat="45.853373968196735" lon="10.93428265372501"><ele>220.0</ele><time>2026-04-28T09:36:47Z</time></trkpt><trkpt lat="45.853443451033016" lon="10.934290493731172"><ele>220.0</ele><time>2026-04-28T09:36:50Z</time></trkpt><trkpt lat="45.85351062703167" lon="10.934300331182541"><ele>220.0</ele><time>2026-04-28T09:36:53Z</time></trkpt><trkpt lat="45.85358030137984" lon="10.934325937626973"><ele>219.99999999999997</ele><time>2026-04-28T09:36:56Z</time></trkpt><trkpt lat="45.85364466039737" lon="10.934336352853688"><ele>220.0</ele><time>2026-04-28T09:36:59Z</time></trkpt><trkpt lat="45.85372899111877" lon="10.934357671049506"><ele>220.42857142857142</ele><time>2026-04-28T09:37:03Z</time></trkpt><trkpt lat="45.85379306150152" lon="10.934373492732936"><ele>220.85714285714286</ele><time>2026-04-28T09:37:06Z</time></trkpt><trkpt lat="45.85386304521925" lon="10.93438176537751"><ele>221.28571428571428</ele><time>2026-04-28T09:37:09Z</time></trkpt><trkpt lat="45.85392981477322" lon="10.934403168787371"><ele>221.71428571428572</ele><time>2026-04-28T09:37:12Z</time></trkpt><trkpt lat="45.854007357185196" lon="10.934407330209908"><ele>222.14285714285714</ele><time>2026-04-28T09:37:15Z</time></trkpt><trkpt lat="45.85407429517236" lon="10.934411221721776"><ele>222.57142857142856</ele><time>2026-04-28T09:37:18Z</time></trkpt><trkpt lat="45.8541374817809" lon="10.934417887498117"><ele>223.0</ele><time>2026-04-28T09:37:21Z</time></trkpt><trkpt lat="45.85420782704894" lon="10.934434235524341"><ele>223.0</ele><time>2026-04-28T09:37:24Z</time></trkpt><trkpt lat="45.85427553970652" lon="10.934462561123055"><ele>223.0</ele><time>2026-04-28T09:37:27Z</time></trkpt><trkpt lat="45.854345941500554" lon="10.934493818372447"><ele>223.0</ele><time>2026-04-28T09:37:30Z</time></trkpt><trkpt lat="45.85441020970981" lon="10.93452943054624"><ele>223.0</ele><time>2026-04-28T09:37:33Z</time></trkpt><trkpt lat="45.85447182005615" lon="10.934579123121715"><ele>223.0</ele><time>2026-04-28T09:37:36Z</time></trkpt><trkpt lat="45.854443034102395" lon="10.934680203017106"><ele>223.0</ele><time>2026-04-28T09:37:39Z</time></trkpt><trkpt lat="45.85442361561386" lon="10.934780617492764"><ele>223.0</ele><time>2026-04-28T09:37:42Z</time></trkpt><trkpt lat="45.854404840471496" lon="10.934867434142033"><ele>223.0</ele><time>2026-04-28T09:37:45Z</time></trkpt><trkpt lat="45.854383205566094" lon="10.934967474291003"><ele>223.0</ele><time>2026-04-28T09:37:48Z</time></trkpt><trkpt lat="45.85436139303255" lon="10.93506807800039"><ele>223.0</ele><time>2026-04-28T09:37:51Z</time></trkpt><trkpt lat="45.85434080339758" lon="10.935163069865498"><ele>223.0</ele><time>2026-04-28T09:37:54Z</time></trkpt><trkpt lat="45.854320694840936" lon="10.935255842218725"><ele>223.0</ele><time>2026-04-28T09:37:57Z</time></trkpt><trkpt lat="45.85429818144218" lon="10.935359709555545"><ele>223.0</ele><time>2026-04-28T09:38:00Z</time></trkpt><trkpt lat="45.85427752394573" lon="10.935455014500548"><ele>223.0</ele><time>2026-04-28T09:38:03Z</time></trkpt><trkpt lat="45.854256524979014" lon="10.935551894855282"><ele>222.85714285714286</ele><time>2026-04-28T09:38:06Z</time></trkpt><trkpt lat="45.854235403523994" lon="10.935649340320738"><ele>222.71428571428572</ele><time>2026-04-28T09:38:09Z</time></trkpt><trkpt lat="45.85421434432252" lon="10.93574858982906"><ele>222.57142857142856</ele><time>2026-04-28T09:38:12Z</time></trkpt><trkpt lat="45.85419381850638" lon="10.935845600974575"><ele>222.42857142857144</ele><time>2026-04-28T09:38:15Z</time></trkpt><trkpt lat="45.85417217740427" lon="10.93594788305063"><ele>222.2857142857143</ele><time>2026-04-28T09:38:18Z</time></trkpt><trkpt lat="45.85415177771887" lon="10.93604635390504"><ele>222.14285714285714</ele><time>2026-04-28T09:38:21Z</time></trkpt><trkpt lat="45.85413315200242" lon="10.93613960342133"><ele>222.0</ele><time>2026-04-28T09:38:24Z</time></trkpt><trkpt lat="45.854114485498826" lon="10.9362447767322"><ele>221.7142857142857</ele><time>2026-04-28T09:38:27Z</time></trkpt><trkpt lat="45.85409879916056" lon="10.936347254243152"><ele>221.42857142857144</ele><time>2026-04-28T09:38:30Z</time></trkpt><trkpt lat="45.85409397216086" lon="10.936459029247997"><ele>221.14285714285714</ele><time>2026-04-28T09:38:33Z</time></trkpt><trkpt lat="45.85409923051504" lon="10.936550418594955"><ele>220.85714285714283</ele><time>2026-04-28T09:38:36Z</time></trkpt><trkpt lat="45.85410698007357" lon="10.936659332435992"><ele>220.57142857142856</ele><time>2026-04-28T09:38:39Z</time></trkpt><trkpt lat="45.85410739134352" lon="10.936763204345482"><ele>220.28571428571428</ele><time>2026-04-28T09:38:42Z</time></trkpt><trkpt lat="45.85410266309809" lon="10.936861991071078"><ele>220.0</ele><time>2026-04-28T09:38:45Z</time></trkpt><trkpt lat="45.85409665902072" lon="10.936970464697644"><ele>219.7142857142857</ele><time>2026-04-28T09:38:48Z</time></trkpt><trkpt lat="45.85408814014967" lon="10.937070296978275"><ele>219.42857142857142</ele><time>2026-04-28T09:38:51Z</time></trkpt><trkpt lat="45.85407974521098" lon="10.937173311515386"><ele>219.14285714285714</ele><time>2026-04-28T09:38:54Z</time></trkpt><trkpt lat="45.85407736596252" lon="10.937275940725447"><ele>218.85714285714283</ele><time>2026-04-28T09:38:57Z</time></trkpt><trkpt lat="45.854075114791925" lon="10.937373044914874"><ele>218.57142857142858</ele><time>2026-04-28T09:39:00Z</time></trkpt><trkpt lat="45.85411255008606" lon="10.937483579653172"><ele>218.28571428571428</ele><time>2026-04-28T09:39:03Z</time></trkpt><trkpt lat="45.854167860462795" lon="10.937569277970676"><ele>218.0</ele><time>2026-04-28T09:39:06Z</time></trkpt><trkpt lat="45.85420053166025" lon="10.937654953908071"><ele>218.14285714285714</ele><time>2026-04-28T09:39:09Z</time></trkpt><trkpt lat="45.854226575259794" lon="10.93774899351436"><ele>218.28571428571428</ele><time>2026-04-28T09:39:12Z</time></trkpt><trkpt lat="45.854263633994336" lon="10.937832868889192"><ele>218.42857142857144</ele><time>2026-04-28T09:39:15Z</time></trkpt><trkpt lat="45.85429439429866" lon="10.93793039667907"><ele>218.57142857142856</ele><time>2026-04-28T09:39:18Z</time></trkpt><trkpt lat="45.85432917475554" lon="10.938019296151637"><ele>218.7142857142857</ele><time>2026-04-28T09:39:21Z</time></trkpt><trkpt lat="45.85435980960578" lon="10.938107380051528"><ele>218.85714285714286</ele><time>2026-04-28T09:39:24Z</time></trkpt><trkpt lat="45.85439080782632" lon="10.93820347234506"><ele>219.0</ele><time>2026-04-28T09:39:27Z</time></trkpt><trkpt lat="45.854426248856875" lon="10.938295320402792"><ele>218.85714285714286</ele><time>2026-04-28T09:39:30Z</time></trkpt><trkpt lat="45.85445554310471" lon="10.938390401272038"><ele>218.7142857142857</ele><time>2026-04-28T09:39:33Z</time></trkpt><trkpt lat="45.85448252197928" lon="10.938488811256219"><ele>218.57142857142856</ele><time>2026-04-28T09:39:36Z</time></trkpt><trkpt lat="45.85451291883222" lon="10.938576968032867"><ele>218.42857142857144</ele><time>2026-04-28T09:39:39Z</time></trkpt><trkpt lat="45.85453437504607" lon="10.938680157682839"><ele>218.28571428571428</ele><time>2026-04-28T09:39:42Z</time></trkpt><trkpt lat="45.85456397051775" lon="10.938769333724467"><ele>218.14285714285714</ele><time>2026-04-28T09:39:45Z</time></trkpt><trkpt lat="45.85459359305863" lon="10.938871670076459"><ele>218.0</ele><time>2026-04-28T09:39:48Z</time></trkpt><trkpt lat="45.854615936043764" lon="10.938967826437086"><ele>218.0</ele><time>2026-04-28T09:39:51Z</time></trkpt><trkpt lat="45.854623221780955" lon="10.939064820994306"><ele>218.0</ele><time>2026-04-28T09:39:54Z</time></trkpt><trkpt lat="45.85461602469172" lon="10.93917551519944"><ele>218.0</ele><time>2026-04-28T09:39:57Z</time></trkpt><trkpt lat="45.85460492166639" lon="10.939275837184375"><ele>218.0</ele><time>2026-04-28T09:40:00Z</time></trkpt><trkpt lat="45.85459665472429" lon="10.939375825060468"><ele>218.0</ele><time>2026-04-28T09:40:03Z</time></trkpt><trkpt lat="45.854579592211365" lon="10.939472891090182"><ele>218.0</ele><time>2026-04-28T09:40:06Z</time></trkpt><trkpt lat="45.854575002817825" lon="10.939563078655631"><ele>218.0</ele><time>2026-04-28T09:40:09Z</time></trkpt><trkpt lat="45.85455682982288" lon="10.939666379754302"><ele>218.14285714285714</ele><time>2026-04-28T09:40:12Z</time></trkpt><trkpt lat="45.8545328302246" lon="10.9397683497826"><ele>218.28571428571428</ele><time>2026-04-28T09:40:15Z</time></trkpt><trkpt lat="45.85450428952254" lon="10.939861845306316"><ele>218.42857142857144</ele><time>2026-04-28T09:40:18Z</time></trkpt><trkpt lat="45.85447803254154" lon="10.939954828117184"><ele>218.57142857142856</ele><time>2026-04-28T09:40:21Z</time></trkpt><trkpt lat="45.85445400478358" lon="10.940051882239626"><ele>218.7142857142857</ele><time>2026-04-28T09:40:24Z</time></trkpt><trkpt lat="45.85443353533338" lon="10.940143339780608"><ele>218.85714285714286</ele><time>2026-04-28T09:40:27Z</time></trkpt><trkpt lat="45.85441249272342" lon="10.940242029843253"><ele>219.0</ele><time>2026-04-28T09:40:30Z</time></trkpt><trkpt lat="45.8543895263533" lon="10.94033792752337"><ele>218.16666666666666</ele><time>2026-04-28T09:40:33Z</time></trkpt><trkpt lat="45.85437070883559" lon="10.940428789874339"><ele>217.33333333333331</ele><time>2026-04-28T09:40:36Z</time></trkpt><trkpt lat="45.8543477006898" lon="10.940530631873314"><ele>216.5</ele><time>2026-04-28T09:40:39Z</time></trkpt><trkpt lat="45.854339552313476" lon="10.94063953923865"><ele>215.66666666666666</ele><time>2026-04-28T09:40:42Z</time></trkpt><trkpt lat="45.85430695409654" lon="10.940745095472835"><ele>214.83333333333331</ele><time>2026-04-28T09:40:46Z</time></trkpt><trkpt lat="45.854284714669674" lon="10.940850766729836"><ele>214.0</ele><time>2026-04-28T09:40:49Z</time></trkpt><trkpt lat="45.85425970935269" lon="10.94095493021221"><ele>213.2857142857143</ele><time>2026-04-28T09:40:52Z</time></trkpt><trkpt lat="45.85424115482726" lon="10.941051993303454"><ele>212.57142857142858</ele><time>2026-04-28T09:40:55Z</time></trkpt><trkpt lat="45.85421945207257" lon="10.941158636388208"><ele>211.85714285714286</ele><time>2026-04-28T09:40:58Z</time></trkpt><trkpt lat="45.854200780904506" lon="10.941254568365947"><ele>211.14285714285717</ele><time>2026-04-28T09:41:01Z</time></trkpt><trkpt lat="45.854175472913134" lon="10.941350331985289"><ele>210.42857142857142</ele><time>2026-04-28T09:41:04Z</time></trkpt><trkpt lat="45.85415680328199" lon="10.941451489266418"><ele>209.71428571428572</ele><time>2026-04-28T09:41:07Z</time></trkpt><trkpt lat="45.85413124215743" lon="10.941548307883817"><ele>209.0</ele><time>2026-04-28T09:41:10Z</time></trkpt><trkpt lat="45.85410515455081" lon="10.94164586087676"><ele>209.0</ele><time>2026-04-28T09:41:13Z</time></trkpt><trkpt lat="45.85408190273607" lon="10.941743067595624"><ele>209.0</ele><time>2026-04-28T09:41:16Z</time></trkpt><trkpt lat="45.85405677302303" lon="10.941844824429753"><ele>209.0</ele><time>2026-04-28T09:41:19Z</time></trkpt><trkpt lat="45.85403316096058" lon="10.941945820906513"><ele>209.0</ele><time>2026-04-28T09:41:22Z</time></trkpt><trkpt lat="45.85401481041172" lon="10.942048948799835"><ele>209.0</ele><time>2026-04-28T09:41:25Z</time></trkpt><trkpt lat="45.853999458198174" lon="10.942137040977634"><ele>209.0</ele><time>2026-04-28T09:41:28Z</time></trkpt><trkpt lat="45.85398471984801" lon="10.94223931172421"><ele>209.0</ele><time>2026-04-28T09:41:31Z</time></trkpt><trkpt lat="45.85397663242949" lon="10.942342303967795"><ele>209.0</ele><time>2026-04-28T09:41:34Z</time></trkpt><trkpt lat="45.853960271431646" lon="10.942442697444001"><ele>209.0</ele><time>2026-04-28T09:41:37Z</time></trkpt><trkpt lat="45.853955759555625" lon="10.942536315613628"><ele>209.0</ele><time>2026-04-28T09:41:40Z</time></trkpt><trkpt lat="45.85394479186242" lon="10.942636139464703"><ele>209.0</ele><time>2026-04-28T09:41:43Z</time></trkpt><trkpt lat="45.853929706220676" lon="10.942765905940066"><ele>209.0</ele><time>2026-04-28T09:41:47Z</time></trkpt><trkpt lat="45.85391953188769" lon="10.942863469200695"><ele>209.0</ele><time>2026-04-28T09:41:50Z</time></trkpt><trkpt lat="45.85392558283802" lon="10.94297394499758"><ele>209.0</ele><time>2026-04-28T09:41:53Z</time></trkpt><trkpt lat="45.85391511445312" lon="10.943071544811378"><ele>208.85714285714286</ele><time>2026-04-28T09:41:56Z</time></trkpt><trkpt lat="45.85389943249317" lon="10.943167326413327"><ele>208.71428571428572</ele><time>2026-04-28T09:41:59Z</time></trkpt><trkpt lat="45.85388390581579" lon="10.943264109894235"><ele>208.57142857142856</ele><time>2026-04-28T09:42:02Z</time></trkpt><trkpt lat="45.85387491239849" lon="10.943366864970024"><ele>208.42857142857144</ele><time>2026-04-28T09:42:05Z</time></trkpt><trkpt lat="45.85386299333284" lon="10.943471726338691"><ele>208.2857142857143</ele><time>2026-04-28T09:42:08Z</time></trkpt><trkpt lat="45.8538692106078" lon="10.943578543393642"><ele>208.14285714285714</ele><time>2026-04-28T09:42:11Z</time></trkpt><trkpt lat="45.853865538881294" lon="10.943675741583657"><ele>208.0</ele><time>2026-04-28T09:42:14Z</time></trkpt><trkpt lat="45.85386294997428" lon="10.943780332846444"><ele>207.85714285714286</ele><time>2026-04-28T09:42:17Z</time></trkpt><trkpt lat="45.85386211895198" lon="10.9438838863294"><ele>207.71428571428572</ele><time>2026-04-28T09:42:20Z</time></trkpt><trkpt lat="45.85386413727571" lon="10.94398261786486"><ele>207.57142857142858</ele><time>2026-04-28T09:42:23Z</time></trkpt><trkpt lat="45.85386779547535" lon="10.944083294571083"><ele>207.42857142857144</ele><time>2026-04-28T09:42:26Z</time></trkpt><trkpt lat="45.853869467527666" lon="10.944183822262588"><ele>207.28571428571428</ele><time>2026-04-28T09:42:29Z</time></trkpt><trkpt lat="45.853869407196754" lon="10.944284537088286"><ele>207.14285714285717</ele><time>2026-04-28T09:42:32Z</time></trkpt><trkpt lat="45.853876236570464" lon="10.944387170724609"><ele>207.0</ele><time>2026-04-28T09:42:35Z</time></trkpt><trkpt lat="45.85387289177221" lon="10.94449479364506"><ele>206.85714285714286</ele><time>2026-04-28T09:42:38Z</time></trkpt><trkpt lat="45.85387412778276" lon="10.94459707185024"><ele>206.71428571428572</ele><time>2026-04-28T09:42:41Z</time></trkpt><trkpt lat="45.853879992438074" lon="10.944696168382622"><ele>206.57142857142856</ele><time>2026-04-28T09:42:44Z</time></trkpt><trkpt lat="45.85387848240067" lon="10.944798298785326"><ele>206.42857142857144</ele><time>2026-04-28T09:42:47Z</time></trkpt><trkpt lat="45.8538730924862" lon="10.944895027018932"><ele>206.28571428571428</ele><time>2026-04-28T09:42:50Z</time></trkpt><trkpt lat="45.85388429808945" lon="10.945003221611623"><ele>206.14285714285714</ele><time>2026-04-28T09:42:53Z</time></trkpt><trkpt lat="45.85389760752681" lon="10.945104808427855"><ele>206.0</ele><time>2026-04-28T09:42:56Z</time></trkpt><trkpt lat="45.85388818000608" lon="10.945206371339976"><ele>206.28571428571428</ele><time>2026-04-28T09:42:59Z</time></trkpt><trkpt lat="45.85388901447808" lon="10.945308327390352"><ele>206.57142857142856</ele><time>2026-04-28T09:43:02Z</time></trkpt><trkpt lat="45.853894669265706" lon="10.94540500875735"><ele>206.85714285714283</ele><time>2026-04-28T09:43:05Z</time></trkpt><trkpt lat="45.85390513398716" lon="10.945507347764416"><ele>207.14285714285714</ele><time>2026-04-28T09:43:08Z</time></trkpt><trkpt lat="45.853906519378334" lon="10.945600268781899"><ele>207.42857142857144</ele><time>2026-04-28T09:43:11Z</time></trkpt><trkpt lat="45.853910586193976" lon="10.94570336876251"><ele>207.7142857142857</ele><time>2026-04-28T09:43:14Z</time></trkpt><trkpt lat="45.8539236181613" lon="10.945800067941809"><ele>208.0</ele><time>2026-04-28T09:43:17Z</time></trkpt><trkpt lat="45.85392009797611" lon="10.945903145465268"><ele>208.28571428571428</ele><time>2026-04-28T09:43:20Z</time></trkpt><trkpt lat="45.85391981210038" lon="10.945998795733907"><ele>208.57142857142858</ele><time>2026-04-28T09:43:23Z</time></trkpt><trkpt lat="45.85392569523608" lon="10.9460897927743"><ele>208.85714285714286</ele><time>2026-04-28T09:43:26Z</time></trkpt><trkpt lat="45.85393810067442" lon="10.946186342604161"><ele>209.14285714285714</ele><time>2026-04-28T09:43:29Z</time></trkpt><trkpt lat="45.853947839762625" lon="10.94628973350526"><ele>209.42857142857144</ele><time>2026-04-28T09:43:32Z</time></trkpt><trkpt lat="45.853963107941716" lon="10.946413089587987"><ele>209.71428571428572</ele><time>2026-04-28T09:43:36Z</time></trkpt><trkpt lat="45.853969136132164" lon="10.946508013169595"><ele>210.0</ele><time>2026-04-28T09:43:39Z</time></trkpt><trkpt lat="45.8539785145641" lon="10.946612009233373"><ele>210.0</ele><time>2026-04-28T09:43:42Z</time></trkpt><trkpt lat="45.85398199399395" lon="10.94671068019077"><ele>210.0</ele><time>2026-04-28T09:43:45Z</time></trkpt><trkpt lat="45.853993599977095" lon="10.946808179783806"><ele>210.0</ele><time>2026-04-28T09:43:48Z</time></trkpt><trkpt lat="45.85400224321313" lon="10.946902195506391"><ele>210.0</ele><time>2026-04-28T09:43:51Z</time></trkpt><trkpt lat="45.854017803097335" lon="10.946996239268413"><ele>210.0</ele><time>2026-04-28T09:43:54Z</time></trkpt><trkpt lat="45.85402042150468" lon="10.947090982847437"><ele>210.0</ele><time>2026-04-28T09:43:57Z</time></trkpt><trkpt lat="45.85403171704746" lon="10.947183912402176"><ele>210.0</ele><time>2026-04-28T09:44:00Z</time></trkpt><trkpt lat="45.85404035540611" lon="10.947275828626474"><ele>209.71428571428572</ele><time>2026-04-28T09:44:03Z</time></trkpt><trkpt lat="45.854054455395406" lon="10.947365011460688"><ele>209.42857142857144</ele><time>2026-04-28T09:44:06Z</time></trkpt><trkpt lat="45.85406461991873" lon="10.947458217935825"><ele>209.14285714285714</ele><time>2026-04-28T09:44:09Z</time></trkpt><trkpt lat="45.85406778661683" lon="10.947559667917519"><ele>208.85714285714286</ele><time>2026-04-28T09:44:12Z</time></trkpt><trkpt lat="45.8540727489154" lon="10.947675680098223"><ele>208.57142857142858</ele><time>2026-04-28T09:44:16Z</time></trkpt><trkpt lat="45.854075863109856" lon="10.947770059233028"><ele>208.28571428571428</ele><time>2026-04-28T09:44:19Z</time></trkpt><trkpt lat="45.85408291119353" lon="10.947870240635664"><ele>208.0</ele><time>2026-04-28T09:44:22Z</time></trkpt><trkpt lat="45.85409236585347" lon="10.947964992114123"><ele>208.0</ele><time>2026-04-28T09:44:25Z</time></trkpt><trkpt lat="45.85410559454034" lon="10.948058725722065"><ele>208.0</ele><time>2026-04-28T09:44:28Z</time></trkpt><trkpt lat="45.85411131560067" lon="10.948152936777994"><ele>208.0</ele><time>2026-04-28T09:44:31Z</time></trkpt><trkpt lat="45.85411340338989" lon="10.94827765132142"><ele>208.0</ele><time>2026-04-28T09:44:35Z</time></trkpt><trkpt lat="45.85411609629298" lon="10.948370760470606"><ele>208.0</ele><time>2026-04-28T09:44:38Z</time></trkpt><trkpt lat="45.854115522783395" lon="10.948464602218587"><ele>208.0</ele><time>2026-04-28T09:44:42Z</time></trkpt><trkpt lat="45.854097243850276" lon="10.948560898214547"><ele>208.0</ele><time>2026-04-28T09:44:45Z</time></trkpt><trkpt lat="45.85409032773679" lon="10.948664166289861"><ele>207.99999999999997</ele><time>2026-04-28T09:44:48Z</time></trkpt><trkpt lat="45.85408268403759" lon="10.948764770608358"><ele>208.0</ele><time>2026-04-28T09:44:51Z</time></trkpt><trkpt lat="45.85406981480405" lon="10.948864077202238"><ele>208.0</ele><time>2026-04-28T09:44:54Z</time></trkpt><trkpt lat="45.85406387476438" lon="10.94896136303803"><ele>208.0</ele><time>2026-04-28T09:44:57Z</time></trkpt><trkpt lat="45.854046921072396" lon="10.949079633749777"><ele>207.99999999999997</ele><time>2026-04-28T09:45:01Z</time></trkpt><trkpt lat="45.854041550048535" lon="10.949182991283443"><ele>208.0</ele><time>2026-04-28T09:45:04Z</time></trkpt><trkpt lat="45.854027746943714" lon="10.94930327316317"><ele>208.14285714285714</ele><time>2026-04-28T09:45:08Z</time></trkpt><trkpt lat="45.85401761266643" lon="10.949395586422307"><ele>208.2857142857143</ele><time>2026-04-28T09:45:11Z</time></trkpt><trkpt lat="45.854016263445494" lon="10.949487247805774"><ele>208.42857142857144</ele><time>2026-04-28T09:45:14Z</time></trkpt><trkpt lat="45.854012028967105" lon="10.949586863945726"><ele>208.57142857142856</ele><time>2026-04-28T09:45:17Z</time></trkpt><trkpt lat="45.85400204279177" lon="10.949692699937494"><ele>208.71428571428572</ele><time>2026-04-28T09:45:20Z</time></trkpt><trkpt lat="45.853993717959376" lon="10.949798838539664"><ele>208.85714285714286</ele><time>2026-04-28T09:45:23Z</time></trkpt><trkpt lat="45.85398345595015" lon="10.949900925159024"><ele>209.0</ele><time>2026-04-28T09:45:26Z</time></trkpt><trkpt lat="45.853973180040086" lon="10.949995035071817"><ele>208.71428571428572</ele><time>2026-04-28T09:45:29Z</time></trkpt><trkpt lat="45.853952495317436" lon="10.950087317568046"><ele>208.42857142857142</ele><time>2026-04-28T09:45:32Z</time></trkpt><trkpt lat="45.853950109079385" lon="10.950202669516564"><ele>208.14285714285717</ele><time>2026-04-28T09:45:35Z</time></trkpt><trkpt lat="45.85393806350331" lon="10.950303909699754"><ele>207.85714285714286</ele><time>2026-04-28T09:45:38Z</time></trkpt><trkpt lat="45.85392916248544" lon="10.950402181768089"><ele>207.57142857142858</ele><time>2026-04-28T09:45:41Z</time></trkpt><trkpt lat="45.853919075944994" lon="10.95050102393914"><ele>207.2857142857143</ele><time>2026-04-28T09:45:44Z</time></trkpt><trkpt lat="45.85391337296187" lon="10.9506111943311"><ele>207.0</ele><time>2026-04-28T09:45:47Z</time></trkpt><trkpt lat="45.85389975252821" lon="10.95070164892101"><ele>207.00000000000003</ele><time>2026-04-28T09:45:50Z</time></trkpt><trkpt lat="45.85389101969553" lon="10.950801354606874"><ele>207.0</ele><time>2026-04-28T09:45:53Z</time></trkpt><trkpt lat="45.85387783917695" lon="10.950908860037982"><ele>207.0</ele><time>2026-04-28T09:45:56Z</time></trkpt><trkpt lat="45.85387056412897" lon="10.951006059730107"><ele>207.0</ele><time>2026-04-28T09:45:59Z</time></trkpt><trkpt lat="45.85386000530599" lon="10.951105727275259"><ele>207.0</ele><time>2026-04-28T09:46:02Z</time></trkpt><trkpt lat="45.853844096803165" lon="10.951209608634944"><ele>207.00000000000003</ele><time>2026-04-28T09:46:05Z</time></trkpt><trkpt lat="45.85384373393786" lon="10.95130594245725"><ele>207.0</ele><time>2026-04-28T09:46:08Z</time></trkpt><trkpt lat="45.85383520620001" lon="10.951402203723385"><ele>207.14285714285717</ele><time>2026-04-28T09:46:11Z</time></trkpt><trkpt lat="45.85382176302393" lon="10.951495838034996"><ele>207.28571428571428</ele><time>2026-04-28T09:46:14Z</time></trkpt><trkpt lat="45.85380724411117" lon="10.951598501055594"><ele>207.42857142857144</ele><time>2026-04-28T09:46:17Z</time></trkpt><trkpt lat="45.85379354591386" lon="10.951698462566576"><ele>207.57142857142858</ele><time>2026-04-28T09:46:20Z</time></trkpt><trkpt lat="45.853770418028574" lon="10.951796944381606"><ele>207.71428571428572</ele><time>2026-04-28T09:46:23Z</time></trkpt><trkpt lat="45.85374914067134" lon="10.951896118060418"><ele>207.85714285714286</ele><time>2026-04-28T09:46:26Z</time></trkpt><trkpt lat="45.85373234598711" lon="10.95199083544847"><ele>208.0</ele><time>2026-04-28T09:46:29Z</time></trkpt><trkpt lat="45.853703037939226" lon="10.952088716585603"><ele>208.0</ele><time>2026-04-28T09:46:32Z</time></trkpt><trkpt lat="45.85368949156376" lon="10.952183525347557"><ele>208.0</ele><time>2026-04-28T09:46:35Z</time></trkpt><trkpt lat="45.85367927066619" lon="10.952282680292464"><ele>208.0</ele><time>2026-04-28T09:46:38Z</time></trkpt><trkpt lat="45.85365885828645" lon="10.952374733857514"><ele>208.0</ele><time>2026-04-28T09:46:41Z</time></trkpt><trkpt lat="45.85363223765689" lon="10.952473859291805"><ele>208.0</ele><time>2026-04-28T09:46:44Z</time></trkpt><trkpt lat="45.85359495766027" lon="10.952588453624184"><ele>208.0</ele><time>2026-04-28T09:46:48Z</time></trkpt><trkpt lat="45.853564828857095" lon="10.952679683173832"><ele>208.0</ele><time>2026-04-28T09:46:51Z</time></trkpt><trkpt lat="45.853522479573" lon="10.952762564134293"><ele>208.0</ele><time>2026-04-28T09:46:54Z</time></trkpt><trkpt lat="45.85348774643917" lon="10.952844577879441"><ele>208.0</ele><time>2026-04-28T09:46:57Z</time></trkpt><trkpt lat="45.853456962978974" lon="10.952942474301652"><ele>208.0</ele><time>2026-04-28T09:47:00Z</time></trkpt><trkpt lat="45.85338809250245" lon="10.953016052645085"><ele>208.0</ele><time>2026-04-28T09:47:04Z</time></trkpt><trkpt lat="45.85333494921146" lon="10.953086048444451"><ele>208.0</ele><time>2026-04-28T09:47:07Z</time></trkpt><trkpt lat="45.85327956292725" lon="10.953145532324937"><ele>208.0</ele><time>2026-04-28T09:47:10Z</time></trkpt><trkpt lat="45.853225705511385" lon="10.953214235895372"><ele>208.0</ele><time>2026-04-28T09:47:13Z</time></trkpt><trkpt lat="45.85318324864699" lon="10.953282755461862"><ele>207.28571428571428</ele><time>2026-04-28T09:47:16Z</time></trkpt><trkpt lat="45.853131709017475" lon="10.953355247588746"><ele>206.57142857142858</ele><time>2026-04-28T09:47:19Z</time></trkpt><trkpt lat="45.853084448108554" lon="10.953427063737664"><ele>205.85714285714286</ele><time>2026-04-28T09:47:22Z</time></trkpt><trkpt lat="45.8530496056484" lon="10.953513164258146"><ele>205.14285714285714</ele><time>2026-04-28T09:47:25Z</time></trkpt><trkpt lat="45.852998963071954" lon="10.953610444765442"><ele>204.42857142857144</ele><time>2026-04-28T09:47:29Z</time></trkpt><trkpt lat="45.8529629309977" lon="10.953697245739786"><ele>203.71428571428572</ele><time>2026-04-28T09:47:32Z</time></trkpt><trkpt lat="45.85292812830168" lon="10.953788589342915"><ele>203.0</ele><time>2026-04-28T09:47:35Z</time></trkpt><trkpt lat="45.852894257623326" lon="10.953874297402942"><ele>203.0</ele><time>2026-04-28T09:47:38Z</time></trkpt><trkpt lat="45.85285546950419" lon="10.953950578399429"><ele>203.0</ele><time>2026-04-28T09:47:41Z</time></trkpt><trkpt lat="45.85284377619805" lon="10.954048502848087"><ele>203.0</ele><time>2026-04-28T09:47:44Z</time></trkpt><trkpt lat="45.852783566503085" lon="10.95412069656969"><ele>203.0</ele><time>2026-04-28T09:47:47Z</time></trkpt><trkpt lat="45.85273502105059" lon="10.954227814004993"><ele>203.0</ele><time>2026-04-28T09:47:51Z</time></trkpt><trkpt lat="45.85270007805026" lon="10.954310716365828"><ele>203.0</ele><time>2026-04-28T09:47:54Z</time></trkpt><trkpt lat="45.8526673173303" lon="10.954396286553393"><ele>203.0</ele><time>2026-04-28T09:47:57Z</time></trkpt><trkpt lat="45.85263426599458" lon="10.95448154162808"><ele>202.71428571428572</ele><time>2026-04-28T09:48:00Z</time></trkpt><trkpt lat="45.852609997657915" lon="10.95456981994415"><ele>202.42857142857144</ele><time>2026-04-28T09:48:03Z</time></trkpt><trkpt lat="45.85258326062723" lon="10.954663079319296"><ele>202.14285714285714</ele><time>2026-04-28T09:48:06Z</time></trkpt><trkpt lat="45.852568890342134" lon="10.95475810887364"><ele>201.85714285714286</ele><time>2026-04-28T09:48:09Z</time></trkpt><trkpt lat="45.852558702956266" lon="10.954858541633348"><ele>201.57142857142858</ele><time>2026-04-28T09:48:12Z</time></trkpt><trkpt lat="45.85255691049745" lon="10.95495263296988"><ele>201.28571428571428</ele><time>2026-04-28T09:48:15Z</time></trkpt><trkpt lat="45.85255571488241" lon="10.955045938874118"><ele>201.0</ele><time>2026-04-28T09:48:18Z</time></trkpt><trkpt lat="45.8525531606245" lon="10.95514066808533"><ele>201.0</ele><time>2026-04-28T09:48:21Z</time></trkpt><trkpt lat="45.852560331614946" lon="10.955242376472041"><ele>201.0</ele><time>2026-04-28T09:48:24Z</time></trkpt><trkpt lat="45.852567929752965" lon="10.95534238588709"><ele>201.0</ele><time>2026-04-28T09:48:27Z</time></trkpt><trkpt lat="45.85255534131258" lon="10.955437413451184"><ele>201.0</ele><time>2026-04-28T09:48:30Z</time></trkpt><trkpt lat="45.85255016861845" lon="10.955536493407639"><ele>201.0</ele><time>2026-04-28T09:48:33Z</time></trkpt><trkpt lat="45.852539011351325" lon="10.955639728261364"><ele>201.0</ele><time>2026-04-28T09:48:36Z</time></trkpt><trkpt lat="45.85253436833518" lon="10.95573309134471"><ele>201.0</ele><time>2026-04-28T09:48:39Z</time></trkpt><trkpt lat="45.852537351011115" lon="10.9558418217181"><ele>201.14285714285714</ele><time>2026-04-28T09:48:42Z</time></trkpt><trkpt lat="45.852509386453626" lon="10.95594422775153"><ele>201.2857142857143</ele><time>2026-04-28T09:48:45Z</time></trkpt><trkpt lat="45.8525089789195" lon="10.956035735290993"><ele>201.42857142857144</ele><time>2026-04-28T09:48:48Z</time></trkpt><trkpt lat="45.852513904999284" lon="10.95615245338958"><ele>201.57142857142856</ele><time>2026-04-28T09:48:51Z</time></trkpt><trkpt lat="45.85250956746417" lon="10.95624820227728"><ele>201.71428571428572</ele><time>2026-04-28T09:48:54Z</time></trkpt><trkpt lat="45.85250499259802" lon="10.956351703491203"><ele>201.85714285714286</ele><time>2026-04-28T09:48:57Z</time></trkpt><trkpt lat="45.85250103725351" lon="10.956448214422055"><ele>202.0</ele><time>2026-04-28T09:49:00Z</time></trkpt><trkpt lat="45.85249097163634" lon="10.956556066844906"><ele>202.0</ele><time>2026-04-28T09:49:03Z</time></trkpt><trkpt lat="45.85247067964675" lon="10.95665802605893"><ele>202.0</ele><time>2026-04-28T09:49:06Z</time></trkpt><trkpt lat="45.852470909077326" lon="10.956759502158496"><ele>202.0</ele><time>2026-04-28T09:49:09Z</time></trkpt><trkpt lat="45.85246156061931" lon="10.956860713533139"><ele>202.0</ele><time>2026-04-28T09:49:12Z</time></trkpt><trkpt lat="45.85245990451413" lon="10.956958016660934"><ele>202.0</ele><time>2026-04-28T09:49:15Z</time></trkpt><trkpt lat="45.85245453057264" lon="10.957056669189697"><ele>202.0</ele><time>2026-04-28T09:49:18Z</time></trkpt><trkpt lat="45.85244565365539" lon="10.957162981510466"><ele>202.0</ele><time>2026-04-28T09:49:21Z</time></trkpt><trkpt lat="45.852441880569884" lon="10.95725870701035"><ele>202.0</ele><time>2026-04-28T09:49:24Z</time></trkpt><trkpt lat="45.85243119748167" lon="10.957364063940911"><ele>202.0</ele><time>2026-04-28T09:49:27Z</time></trkpt><trkpt lat="45.85242628340436" lon="10.957466113266275"><ele>202.0</ele><time>2026-04-28T09:49:30Z</time></trkpt><trkpt lat="45.852419646586696" lon="10.957568262198832"><ele>202.0</ele><time>2026-04-28T09:49:33Z</time></trkpt><trkpt lat="45.85241489284128" lon="10.957666092092111"><ele>202.0</ele><time>2026-04-28T09:49:36Z</time></trkpt><trkpt lat="45.8524091131302" lon="10.957762941962768"><ele>202.0</ele><time>2026-04-28T09:49:39Z</time></trkpt><trkpt lat="45.85240535310548" lon="10.957859194628837"><ele>202.0</ele><time>2026-04-28T09:49:42Z</time></trkpt><trkpt lat="45.85239776824751" lon="10.95796134611142"><ele>201.85714285714286</ele><time>2026-04-28T09:49:45Z</time></trkpt><trkpt lat="45.852387713057034" lon="10.958058826654648"><ele>201.71428571428572</ele><time>2026-04-28T09:49:48Z</time></trkpt><trkpt lat="45.85236315491147" lon="10.958159508442805"><ele>201.57142857142856</ele><time>2026-04-28T09:49:51Z</time></trkpt><trkpt lat="45.85236081640029" lon="10.958261556196137"><ele>201.42857142857144</ele><time>2026-04-28T09:49:54Z</time></trkpt><trkpt lat="45.85235583558471" lon="10.958369752840458"><ele>201.2857142857143</ele><time>2026-04-28T09:49:57Z</time></trkpt><trkpt lat="45.85235118900841" lon="10.958467013450873"><ele>201.14285714285714</ele><time>2026-04-28T09:50:00Z</time></trkpt><trkpt lat="45.85235294537233" lon="10.958564592617032"><ele>201.0</ele><time>2026-04-28T09:50:03Z</time></trkpt><trkpt lat="45.85233569720318" lon="10.95866369565716"><ele>201.0</ele><time>2026-04-28T09:50:06Z</time></trkpt><trkpt lat="45.85233633924724" lon="10.95876569695345"><ele>201.0</ele><time>2026-04-28T09:50:09Z</time></trkpt><trkpt lat="45.85234301860368" lon="10.958867263027733"><ele>201.0</ele><time>2026-04-28T09:50:12Z</time></trkpt><trkpt lat="45.852344619016485" lon="10.958973235966566"><ele>201.0</ele><time>2026-04-28T09:50:15Z</time></trkpt><trkpt lat="45.85233107482345" lon="10.959075434924344"><ele>201.0</ele><time>2026-04-28T09:50:18Z</time></trkpt><trkpt lat="45.85231601004661" lon="10.959176348177252"><ele>201.0</ele><time>2026-04-28T09:50:21Z</time></trkpt><trkpt lat="45.85230208118371" lon="10.959264935419176"><ele>201.0</ele><time>2026-04-28T09:50:24Z</time></trkpt><trkpt lat="45.85228308925526" lon="10.959358781064827"><ele>200.83333333333334</ele><time>2026-04-28T09:50:27Z</time></trkpt><trkpt lat="45.852243750685545" lon="10.95944609693255"><ele>200.66666666666669</ele><time>2026-04-28T09:50:30Z</time></trkpt><trkpt lat="45.85219539437516" lon="10.959533331698369"><ele>200.5</ele><time>2026-04-28T09:50:34Z</time></trkpt><trkpt lat="45.852184521929914" lon="10.959640122515111"><ele>200.33333333333334</ele><time>2026-04-28T09:50:38Z</time></trkpt><trkpt lat="45.852108654470236" lon="10.959698914991684"><ele>200.16666666666669</ele><time>2026-04-28T09:50:42Z</time></trkpt><trkpt lat="45.85205347636077" lon="10.959750092804246"><ele>200.0</ele><time>2026-04-28T09:50:44Z</time></trkpt><trkpt lat="45.851976682664485" lon="10.95977450502787"><ele>200.00000000000003</ele><time>2026-04-28T09:50:46Z</time></trkpt><trkpt lat="45.851916787051074" lon="10.959803540606295"><ele>200.0</ele><time>2026-04-28T09:50:48Z</time></trkpt><trkpt lat="45.85185250564378" lon="10.95983992567024"><ele>200.0</ele><time>2026-04-28T09:50:51Z</time></trkpt><trkpt lat="45.85178723466899" lon="10.959870940869441"><ele>200.0</ele><time>2026-04-28T09:50:54Z</time></trkpt><trkpt lat="45.85172262431137" lon="10.959892244953636"><ele>200.0</ele><time>2026-04-28T09:50:57Z</time></trkpt><trkpt lat="45.85165651819479" lon="10.959901044710426"><ele>200.00000000000003</ele><time>2026-04-28T09:51:00Z</time></trkpt><trkpt lat="45.8515896533697" lon="10.95990175922947"><ele>200.0</ele><time>2026-04-28T09:51:03Z</time></trkpt><trkpt lat="45.85152348058122" lon="10.959905701938304"><ele>200.00000000000003</ele><time>2026-04-28T09:51:06Z</time></trkpt><trkpt lat="45.85145706616069" lon="10.959912818189816"><ele>200.0</ele><time>2026-04-28T09:51:09Z</time></trkpt><trkpt lat="45.85138889579412" lon="10.959922551678703"><ele>200.0</ele><time>2026-04-28T09:51:12Z</time></trkpt><trkpt lat="45.85131875668703" lon="10.959946040154778"><ele>200.0</ele><time>2026-04-28T09:51:15Z</time></trkpt><trkpt lat="45.85125443320096" lon="10.959963964820838"><ele>200.0</ele><time>2026-04-28T09:51:18Z</time></trkpt><trkpt lat="45.85119000462167" lon="10.959988728111647"><ele>200.00000000000003</ele><time>2026-04-28T09:51:21Z</time></trkpt><trkpt lat="45.8511278306391" lon="10.960016308653627"><ele>200.0</ele><time>2026-04-28T09:51:24Z</time></trkpt><trkpt lat="45.85105634685724" lon="10.960012614949177"><ele>200.00000000000003</ele><time>2026-04-28T09:51:27Z</time></trkpt><trkpt lat="45.85100233923675" lon="10.959945568137247"><ele>200.0</ele><time>2026-04-28T09:51:30Z</time></trkpt><trkpt lat="45.850978526178" lon="10.9598437214073"><ele>200.0</ele><time>2026-04-28T09:51:33Z</time></trkpt><trkpt lat="45.85097388433876" lon="10.959726554094576"><ele>200.0</ele><time>2026-04-28T09:51:37Z</time></trkpt><trkpt lat="45.850921689587125" lon="10.959665310294548"><ele>200.0</ele><time>2026-04-28T09:51:41Z</time></trkpt><trkpt lat="45.85098347418427" lon="10.959718255321057"><ele>200.00000000000003</ele><time>2026-04-28T09:51:45Z</time></trkpt><trkpt lat="45.85099522522536" lon="10.959820712312762"><ele>200.0</ele><time>2026-04-28T09:51:48Z</time></trkpt><trkpt lat="45.85102862019788" lon="10.959917003813143"><ele>200.00000000000003</ele><time>2026-04-28T09:51:51Z</time></trkpt><trkpt lat="45.85109756128464" lon="10.959977955072254"><ele>200.0</ele><time>2026-04-28T09:51:55Z</time></trkpt><trkpt lat="45.851170070991344" lon="10.959961063460634"><ele>200.0</ele><time>2026-04-28T09:51:58Z</time></trkpt><trkpt lat="45.851231385626036" lon="10.959924117798083"><ele>200.0</ele><time>2026-04-28T09:52:01Z</time></trkpt><trkpt lat="45.851297219277306" lon="10.959907050132209"><ele>200.0</ele><time>2026-04-28T09:52:04Z</time></trkpt><trkpt lat="45.8513608450658" lon="10.959886745207895"><ele>200.00000000000003</ele><time>2026-04-28T09:52:07Z</time></trkpt><trkpt lat="45.85142817869343" lon="10.95987194596145"><ele>200.0</ele><time>2026-04-28T09:52:10Z</time></trkpt><trkpt lat="45.85149405380201" lon="10.959871099453796"><ele>200.00000000000003</ele><time>2026-04-28T09:52:13Z</time></trkpt><trkpt lat="45.851562066528665" lon="10.9598642905569"><ele>200.0</ele><time>2026-04-28T09:52:16Z</time></trkpt><trkpt lat="45.851627599519354" lon="10.959856750980698"><ele>200.0</ele><time>2026-04-28T09:52:19Z</time></trkpt><trkpt lat="45.851697544142674" lon="10.959843728349172"><ele>200.0</ele><time>2026-04-28T09:52:22Z</time></trkpt><trkpt lat="45.85176141729736" lon="10.959830012798484"><ele>200.0</ele><time>2026-04-28T09:52:25Z</time></trkpt><trkpt lat="45.85184306787308" lon="10.959795005023608"><ele>200.00000000000003</ele><time>2026-04-28T09:52:29Z</time></trkpt><trkpt lat="45.85190593960649" lon="10.959769719142711"><ele>200.0</ele><time>2026-04-28T09:52:32Z</time></trkpt><trkpt lat="45.851965193475834" lon="10.959722803301162"><ele>200.00000000000003</ele><time>2026-04-28T09:52:35Z</time></trkpt><trkpt lat="45.852025007816046" lon="10.959673806444119"><ele>200.0</ele><time>2026-04-28T09:52:38Z</time></trkpt><trkpt lat="45.85208667274986" lon="10.959629172068992"><ele>200.0</ele><time>2026-04-28T09:52:41Z</time></trkpt><trkpt lat="45.852144967404" lon="10.959571715608158"><ele>200.0</ele><time>2026-04-28T09:52:44Z</time></trkpt><trkpt lat="45.85218017064426" lon="10.959488427091998"><ele>200.0</ele><time>2026-04-28T09:52:47Z</time></trkpt><trkpt lat="45.852226421384565" lon="10.959426358310756"><ele>200.00000000000003</ele><time>2026-04-28T09:52:50Z</time></trkpt><trkpt lat="45.85227759609862" lon="10.95934825245441"><ele>200.0</ele><time>2026-04-28T09:52:54Z</time></trkpt><trkpt lat="45.85227941609924" lon="10.959244516956597"><ele>200.00000000000003</ele><time>2026-04-28T09:52:57Z</time></trkpt><trkpt lat="45.85233743261195" lon="10.95918885373162"><ele>200.0</ele><time>2026-04-28T09:53:01Z</time></trkpt><trkpt lat="45.85234616617882" lon="10.959311422546442"><ele>200.0</ele><time>2026-04-28T09:53:04Z</time></trkpt><trkpt lat="45.85233550750928" lon="10.959412182186812"><ele>200.0</ele><time>2026-04-28T09:53:07Z</time></trkpt><trkpt lat="45.85232582808329" lon="10.959504696962345"><ele>200.0</ele><time>2026-04-28T09:53:10Z</time></trkpt><trkpt lat="45.85230298529795" lon="10.959600302219965"><ele>200.00000000000003</ele><time>2026-04-28T09:53:13Z</time></trkpt><trkpt lat="45.85226523716066" lon="10.95967799953079"><ele>200.0</ele><time>2026-04-28T09:53:16Z</time></trkpt><trkpt lat="45.852229805213845" lon="10.959763560835949"><ele>200.00000000000003</ele><time>2026-04-28T09:53:19Z</time></trkpt><trkpt lat="45.85217251186116" lon="10.959836320753041"><ele>200.0</ele><time>2026-04-28T09:53:22Z</time></trkpt><trkpt lat="45.85226130747428" lon="10.959919969187647"><ele>200.0</ele><time>2026-04-28T09:53:24Z</time></trkpt><trkpt lat="45.852295836872216" lon="10.960024885547407"><ele>200.0</ele><time>2026-04-28T09:53:25Z</time></trkpt><trkpt lat="45.85230547363664" lon="10.960123847518433"><ele>200.00000000000003</ele><time>2026-04-28T09:53:28Z</time></trkpt><trkpt lat="45.85231451583554" lon="10.960244395032852"><ele>200.0</ele><time>2026-04-28T09:53:32Z</time></trkpt><trkpt lat="45.85231326261475" lon="10.96034349805003"><ele>199.85714285714286</ele><time>2026-04-28T09:53:35Z</time></trkpt><trkpt lat="45.85230155410222" lon="10.960438811032493"><ele>199.71428571428572</ele><time>2026-04-28T09:53:38Z</time></trkpt><trkpt lat="45.85227860745629" lon="10.960533380019857"><ele>199.57142857142856</ele><time>2026-04-28T09:53:41Z</time></trkpt><trkpt lat="45.852302784220704" lon="10.960648966787552"><ele>199.42857142857144</ele><time>2026-04-28T09:53:44Z</time></trkpt><trkpt lat="45.852290470144716" lon="10.960745439513385"><ele>199.28571428571428</ele><time>2026-04-28T09:53:47Z</time></trkpt><trkpt lat="45.852279980037274" lon="10.960845322495608"><ele>199.14285714285714</ele><time>2026-04-28T09:53:50Z</time></trkpt><trkpt lat="45.85227179347525" lon="10.960939603320753"><ele>199.0</ele><time>2026-04-28T09:53:53Z</time></trkpt><trkpt lat="45.85225810780156" lon="10.961040155138269"><ele>198.99999999999997</ele><time>2026-04-28T09:53:56Z</time></trkpt><trkpt lat="45.852248604267665" lon="10.961138436612382"><ele>199.0</ele><time>2026-04-28T09:53:59Z</time></trkpt><trkpt lat="45.85224365238049" lon="10.961239433013267"><ele>199.0</ele><time>2026-04-28T09:54:02Z</time></trkpt><trkpt lat="45.85224204788137" lon="10.96133674726092"><ele>199.0</ele><time>2026-04-28T09:54:05Z</time></trkpt><trkpt lat="45.85224702385105" lon="10.961429714595791"><ele>199.0</ele><time>2026-04-28T09:54:08Z</time></trkpt><trkpt lat="45.85224868409119" lon="10.961523964684138"><ele>198.99999999999997</ele><time>2026-04-28T09:54:11Z</time></trkpt><trkpt lat="45.8522517426271" lon="10.9616224270834"><ele>199.0</ele><time>2026-04-28T09:54:14Z</time></trkpt><trkpt lat="45.852267106671256" lon="10.96171624364882"><ele>198.99999999999997</ele><time>2026-04-28T09:54:17Z</time></trkpt><trkpt lat="45.85226913655097" lon="10.961814087923122"><ele>199.0</ele><time>2026-04-28T09:54:20Z</time></trkpt><trkpt lat="45.85228422304706" lon="10.961910646433857"><ele>199.0</ele><time>2026-04-28T09:54:23Z</time></trkpt><trkpt lat="45.852290432776165" lon="10.962004968343878"><ele>199.0</ele><time>2026-04-28T09:54:26Z</time></trkpt><trkpt lat="45.85229403039767" lon="10.962103321289982"><ele>199.0</ele><time>2026-04-28T09:54:29Z</time></trkpt><trkpt lat="45.852299799966524" lon="10.962206115268152"><ele>198.99999999999997</ele><time>2026-04-28T09:54:32Z</time></trkpt><trkpt lat="45.852307452973285" lon="10.962305715088485"><ele>199.0</ele><time>2026-04-28T09:54:35Z</time></trkpt><trkpt lat="45.85231502584557" lon="10.962398464279126"><ele>198.99999999999997</ele><time>2026-04-28T09:54:38Z</time></trkpt><trkpt lat="45.85231628615682" lon="10.962499985042784"><ele>199.0</ele><time>2026-04-28T09:54:41Z</time></trkpt><trkpt lat="45.852327903553835" lon="10.962598713240103"><ele>199.0</ele><time>2026-04-28T09:54:44Z</time></trkpt><trkpt lat="45.85233251574394" lon="10.962693847427591"><ele>199.0</ele><time>2026-04-28T09:54:47Z</time></trkpt><trkpt lat="45.8523364325503" lon="10.962799883146545"><ele>199.0</ele><time>2026-04-28T09:54:50Z</time></trkpt><trkpt lat="45.8523450908552" lon="10.962890580730852"><ele>198.99999999999997</ele><time>2026-04-28T09:54:53Z</time></trkpt><trkpt lat="45.85235520475378" lon="10.96298281914309"><ele>199.0</ele><time>2026-04-28T09:54:56Z</time></trkpt><trkpt lat="45.85235168143128" lon="10.963084986299515"><ele>198.99999999999997</ele><time>2026-04-28T09:54:59Z</time></trkpt><trkpt lat="45.85236001192354" lon="10.963179661993662"><ele>199.0</ele><time>2026-04-28T09:55:02Z</time></trkpt><trkpt lat="45.85236300066893" lon="10.96327890581023"><ele>199.0</ele><time>2026-04-28T09:55:05Z</time></trkpt><trkpt lat="45.8523735720746" lon="10.963372774396463"><ele>199.0</ele><time>2026-04-28T09:55:08Z</time></trkpt><trkpt lat="45.85238562247254" lon="10.963471462561378"><ele>199.0</ele><time>2026-04-28T09:55:11Z</time></trkpt><trkpt lat="45.85237233073348" lon="10.963577739393884"><ele>198.99999999999997</ele><time>2026-04-28T09:55:14Z</time></trkpt><trkpt lat="45.852373090879965" lon="10.96366989106275"><ele>199.0</ele><time>2026-04-28T09:55:17Z</time></trkpt><trkpt lat="45.85236775250033" lon="10.963776726728232"><ele>198.99999999999997</ele><time>2026-04-28T09:55:20Z</time></trkpt><trkpt lat="45.85237119237471" lon="10.963871587680504"><ele>199.0</ele><time>2026-04-28T09:55:23Z</time></trkpt><trkpt lat="45.852369930446514" lon="10.963976126538633"><ele>199.0</ele><time>2026-04-28T09:55:26Z</time></trkpt><trkpt lat="45.85236759585514" lon="10.964072655285669"><ele>199.0</ele><time>2026-04-28T09:55:29Z</time></trkpt><trkpt lat="45.852366964102515" lon="10.964165744776983"><ele>199.0</ele><time>2026-04-28T09:55:32Z</time></trkpt><trkpt lat="45.85236907257457" lon="10.964269183374192"><ele>198.99999999999997</ele><time>2026-04-28T09:55:35Z</time></trkpt><trkpt lat="45.85236453981878" lon="10.964368051219985"><ele>199.0</ele><time>2026-04-28T09:55:38Z</time></trkpt><trkpt lat="45.852360509175924" lon="10.964469019635942"><ele>198.85714285714283</ele><time>2026-04-28T09:55:41Z</time></trkpt><trkpt lat="45.85236063018005" lon="10.964562120568997"><ele>198.71428571428572</ele><time>2026-04-28T09:55:44Z</time></trkpt><trkpt lat="45.85236315887037" lon="10.964661680220178"><ele>198.57142857142856</ele><time>2026-04-28T09:55:47Z</time></trkpt><trkpt lat="45.85235522142996" lon="10.964762353287878"><ele>198.42857142857142</ele><time>2026-04-28T09:55:50Z</time></trkpt><trkpt lat="45.85235218098051" lon="10.96485599255263"><ele>198.28571428571428</ele><time>2026-04-28T09:55:53Z</time></trkpt><trkpt lat="45.85234704374041" lon="10.96495993925885"><ele>198.14285714285714</ele><time>2026-04-28T09:55:56Z</time></trkpt><trkpt lat="45.852349492297755" lon="10.965053221498588"><ele>198.0</ele><time>2026-04-28T09:55:59Z</time></trkpt><trkpt lat="45.852348182292644" lon="10.96515190317331"><ele>197.85714285714286</ele><time>2026-04-28T09:56:02Z</time></trkpt><trkpt lat="45.852338512190876" lon="10.96524540424189"><ele>197.7142857142857</ele><time>2026-04-28T09:56:05Z</time></trkpt><trkpt lat="45.85234261948853" lon="10.965342908557721"><ele>197.57142857142856</ele><time>2026-04-28T09:56:08Z</time></trkpt><trkpt lat="45.8523333260832" lon="10.965445094038648"><ele>197.42857142857144</ele><time>2026-04-28T09:56:11Z</time></trkpt><trkpt lat="45.85233646261201" lon="10.965539126229086"><ele>197.28571428571428</ele><time>2026-04-28T09:56:14Z</time></trkpt><trkpt lat="45.85233638939687" lon="10.96564500346391"><ele>197.14285714285714</ele><time>2026-04-28T09:56:17Z</time></trkpt><trkpt lat="45.85233887329286" lon="10.96574139434046"><ele>197.0</ele><time>2026-04-28T09:56:20Z</time></trkpt><trkpt lat="45.85234547477574" lon="10.965841008491449"><ele>197.28571428571428</ele><time>2026-04-28T09:56:23Z</time></trkpt><trkpt lat="45.85234538281009" lon="10.965942573684986"><ele>197.57142857142858</ele><time>2026-04-28T09:56:26Z</time></trkpt><trkpt lat="45.85234671969391" lon="10.966041654734925"><ele>197.85714285714283</ele><time>2026-04-28T09:56:29Z</time></trkpt><trkpt lat="45.85234620464357" lon="10.966136330364616"><ele>198.14285714285714</ele><time>2026-04-28T09:56:32Z</time></trkpt><trkpt lat="45.85236186631565" lon="10.966233261010698"><ele>198.42857142857142</ele><time>2026-04-28T09:56:35Z</time></trkpt><trkpt lat="45.85236661286768" lon="10.96634048195803"><ele>198.7142857142857</ele><time>2026-04-28T09:56:38Z</time></trkpt><trkpt lat="45.85237235287329" lon="10.966437792883196"><ele>199.0</ele><time>2026-04-28T09:56:41Z</time></trkpt><trkpt lat="45.85237926857008" lon="10.966529380416365"><ele>198.99999999999997</ele><time>2026-04-28T09:56:44Z</time></trkpt><trkpt lat="45.852387964197796" lon="10.96662824742426"><ele>199.0</ele><time>2026-04-28T09:56:47Z</time></trkpt><trkpt lat="45.85239920901768" lon="10.966721084055859"><ele>199.0</ele><time>2026-04-28T09:56:50Z</time></trkpt><trkpt lat="45.852405315803324" lon="10.96681429397341"><ele>199.0</ele><time>2026-04-28T09:56:53Z</time></trkpt><trkpt lat="45.85240825793347" lon="10.966911663724376"><ele>199.0</ele><time>2026-04-28T09:56:56Z</time></trkpt><trkpt lat="45.85241543842886" lon="10.967008553054287"><ele>198.99999999999997</ele><time>2026-04-28T09:56:59Z</time></trkpt><trkpt lat="45.85241384661102" lon="10.96713622961229"><ele>199.0</ele><time>2026-04-28T09:57:03Z</time></trkpt><trkpt lat="45.85242594187581" lon="10.967236047867864"><ele>199.14285714285714</ele><time>2026-04-28T09:57:06Z</time></trkpt><trkpt lat="45.85244836113622" lon="10.967340809368984"><ele>199.28571428571428</ele><time>2026-04-28T09:57:09Z</time></trkpt><trkpt lat="45.85246133594068" lon="10.9674363542388"><ele>199.42857142857144</ele><time>2026-04-28T09:57:12Z</time></trkpt><trkpt lat="45.852464384624604" lon="10.9675299275934"><ele>199.57142857142856</ele><time>2026-04-28T09:57:15Z</time></trkpt><trkpt lat="45.85248170105436" lon="10.967631230859912"><ele>199.71428571428572</ele><time>2026-04-28T09:57:18Z</time></trkpt><trkpt lat="45.85249377762276" lon="10.967733267678359"><ele>199.85714285714286</ele><time>2026-04-28T09:57:21Z</time></trkpt><trkpt lat="45.85249864014558" lon="10.967825757551878"><ele>200.0</ele><time>2026-04-28T09:57:24Z</time></trkpt><trkpt lat="45.85250794331468" lon="10.96793384202426"><ele>200.00000000000003</ele><time>2026-04-28T09:57:27Z</time></trkpt><trkpt lat="45.85253370390191" lon="10.968030106465076"><ele>200.0</ele><time>2026-04-28T09:57:30Z</time></trkpt><trkpt lat="45.85256454257652" lon="10.96813120411457"><ele>200.0</ele><time>2026-04-28T09:57:34Z</time></trkpt><trkpt lat="45.852641473960304" lon="10.968141749268211"><ele>200.0</ele><time>2026-04-28T09:57:39Z</time></trkpt><trkpt lat="45.85272125404525" lon="10.968137525388233"><ele>200.00000000000003</ele><time>2026-04-28T09:57:40Z</time></trkpt><trkpt lat="45.85279036197983" lon="10.968127329834948"><ele>200.0</ele><time>2026-04-28T09:57:43Z</time></trkpt><trkpt lat="45.85287275695244" lon="10.96811911728238"><ele>200.14285714285717</ele><time>2026-04-28T09:57:46Z</time></trkpt><trkpt lat="45.8529427398772" lon="10.968103398029362"><ele>200.28571428571428</ele><time>2026-04-28T09:57:49Z</time></trkpt><trkpt lat="45.85301160972736" lon="10.968092013658612"><ele>200.42857142857144</ele><time>2026-04-28T09:57:52Z</time></trkpt><trkpt lat="45.85307538641025" lon="10.968097329956132"><ele>200.57142857142858</ele><time>2026-04-28T09:57:55Z</time></trkpt><trkpt lat="45.85314410147884" lon="10.968112279380628"><ele>200.71428571428572</ele><time>2026-04-28T09:57:58Z</time></trkpt><trkpt lat="45.85323225695795" lon="10.968155140398874"><ele>200.85714285714286</ele><time>2026-04-28T09:58:02Z</time></trkpt><trkpt lat="45.85325999465476" lon="10.968262421312316"><ele>201.0</ele><time>2026-04-28T09:58:05Z</time></trkpt><trkpt lat="45.85323832298278" lon="10.968347962126455"><ele>200.83333333333334</ele><time>2026-04-28T09:58:10Z</time></trkpt><trkpt lat="45.85319568687256" lon="10.968488739882078"><ele>200.66666666666669</ele><time>2026-04-28T09:58:12Z</time></trkpt><trkpt lat="45.8531504454524" lon="10.96857840680092"><ele>200.5</ele><time>2026-04-28T09:58:15Z</time></trkpt><trkpt lat="45.85312348035578" lon="10.968662578749338"><ele>200.33333333333334</ele><time>2026-04-28T09:58:18Z</time></trkpt><trkpt lat="45.85308632158056" lon="10.96875004588745"><ele>200.16666666666669</ele><time>2026-04-28T09:58:21Z</time></trkpt><trkpt lat="45.85305329666437" lon="10.968832622064523"><ele>200.0</ele><time>2026-04-28T09:58:24Z</time></trkpt><trkpt lat="45.85301515185138" lon="10.96894381180442"><ele>200.00000000000003</ele><time>2026-04-28T09:58:27Z</time></trkpt><trkpt lat="45.85298236149382" lon="10.969031599259361"><ele>200.0</ele><time>2026-04-28T09:58:30Z</time></trkpt><trkpt lat="45.85295442496204" lon="10.969122002324552"><ele>200.0</ele><time>2026-04-28T09:58:33Z</time></trkpt><trkpt lat="45.85291128566695" lon="10.969205226286222"><ele>200.0</ele><time>2026-04-28T09:58:36Z</time></trkpt><trkpt lat="45.85287232265456" lon="10.969295983452067"><ele>200.0</ele><time>2026-04-28T09:58:40Z</time></trkpt><trkpt lat="45.85284098827864" lon="10.969383426651502"><ele>200.00000000000003</ele><time>2026-04-28T09:58:43Z</time></trkpt><trkpt lat="45.85280753086584" lon="10.969468549176657"><ele>200.0</ele><time>2026-04-28T09:58:46Z</time></trkpt><trkpt lat="45.852781815758426" lon="10.969573988061791"><ele>199.85714285714286</ele><time>2026-04-28T09:58:49Z</time></trkpt><trkpt lat="45.85273670167192" lon="10.969658040807143"><ele>199.71428571428572</ele><time>2026-04-28T09:58:52Z</time></trkpt><trkpt lat="45.852700448546635" lon="10.969746090112691"><ele>199.57142857142856</ele><time>2026-04-28T09:58:55Z</time></trkpt><trkpt lat="45.85266503177113" lon="10.96982237026041"><ele>199.42857142857144</ele><time>2026-04-28T09:58:58Z</time></trkpt><trkpt lat="45.8526407630728" lon="10.969910346395693"><ele>199.28571428571428</ele><time>2026-04-28T09:59:01Z</time></trkpt><trkpt lat="45.852603742530114" lon="10.969992024851056"><ele>199.14285714285714</ele><time>2026-04-28T09:59:04Z</time></trkpt><trkpt lat="45.85253751321483" lon="10.970034778076588"><ele>199.0</ele><time>2026-04-28T09:59:07Z</time></trkpt><trkpt lat="45.85246894931981" lon="10.970076110708884"><ele>199.28571428571428</ele><time>2026-04-28T09:59:12Z</time></trkpt><trkpt lat="45.85243592833802" lon="10.970166493018544"><ele>199.57142857142856</ele><time>2026-04-28T09:59:15Z</time></trkpt><trkpt lat="45.852410706979" lon="10.970257954529849"><ele>199.85714285714283</ele><time>2026-04-28T09:59:18Z</time></trkpt><trkpt lat="45.85239484286856" lon="10.97035206872324"><ele>200.14285714285714</ele><time>2026-04-28T09:59:21Z</time></trkpt><trkpt lat="45.85236443916713" lon="10.970446036666695"><ele>200.42857142857144</ele><time>2026-04-28T09:59:24Z</time></trkpt><trkpt lat="45.85234937621661" lon="10.970534430551496"><ele>200.7142857142857</ele><time>2026-04-28T09:59:27Z</time></trkpt><trkpt lat="45.85232842690981" lon="10.97062553229481"><ele>201.0</ele><time>2026-04-28T09:59:30Z</time></trkpt><trkpt lat="45.8522954850587" lon="10.970712801782227"><ele>201.0</ele><time>2026-04-28T09:59:33Z</time></trkpt><trkpt lat="45.852268834288736" lon="10.970796868652325"><ele>201.0</ele><time>2026-04-28T09:59:36Z</time></trkpt><trkpt lat="45.852229237656076" lon="10.970876581171371"><ele>201.0</ele><time>2026-04-28T09:59:39Z</time></trkpt><trkpt lat="45.85220170152879" lon="10.97097022109801"><ele>201.0</ele><time>2026-04-28T09:59:42Z</time></trkpt><trkpt lat="45.852163853612566" lon="10.971045031447156"><ele>201.0</ele><time>2026-04-28T09:59:45Z</time></trkpt><trkpt lat="45.8521338679208" lon="10.971130556194252"><ele>201.0</ele><time>2026-04-28T09:59:48Z</time></trkpt><trkpt lat="45.85209716195878" lon="10.971210911292271"><ele>201.0</ele><time>2026-04-28T09:59:51Z</time></trkpt><trkpt lat="45.852060527606746" lon="10.97128841688556"><ele>201.0</ele><time>2026-04-28T09:59:54Z</time></trkpt><trkpt lat="45.852034998357155" lon="10.971383812547195"><ele>201.0</ele><time>2026-04-28T09:59:57Z</time></trkpt><trkpt lat="45.85199741311434" lon="10.971463202541763"><ele>201.0</ele><time>2026-04-28T10:00:00Z</time></trkpt><trkpt lat="45.851960102197246" lon="10.971555197844934"><ele>201.0</ele><time>2026-04-28T10:00:03Z</time></trkpt><trkpt lat="45.85190897928277" lon="10.97162000940674"><ele>201.0</ele><time>2026-04-28T10:00:06Z</time></trkpt><trkpt lat="45.8518973627606" lon="10.971710955293211"><ele>201.0</ele><time>2026-04-28T10:00:09Z</time></trkpt><trkpt lat="45.85186720423596" lon="10.971801863818724"><ele>201.0</ele><time>2026-04-28T10:00:12Z</time></trkpt><trkpt lat="45.85183378502193" lon="10.971887272854255"><ele>201.0</ele><time>2026-04-28T10:00:15Z</time></trkpt><trkpt lat="45.85180135793544" lon="10.971974006070312"><ele>201.0</ele><time>2026-04-28T10:00:18Z</time></trkpt><trkpt lat="45.85176333268147" lon="10.972064030204335"><ele>201.0</ele><time>2026-04-28T10:00:21Z</time></trkpt><trkpt lat="45.851725911409396" lon="10.972149660502582"><ele>201.0</ele><time>2026-04-28T10:00:24Z</time></trkpt><trkpt lat="45.85169493555576" lon="10.972242390491129"><ele>201.0</ele><time>2026-04-28T10:00:27Z</time></trkpt><trkpt lat="45.85165927167863" lon="10.972325057814627"><ele>201.0</ele><time>2026-04-28T10:00:30Z</time></trkpt><trkpt lat="45.851615409890854" lon="10.972413534010531"><ele>201.0</ele><time>2026-04-28T10:00:34Z</time></trkpt><trkpt lat="45.851701507539154" lon="10.972444069920002"><ele>201.0</ele><time>2026-04-28T10:00:38Z</time></trkpt><trkpt lat="45.85173354675088" lon="10.972546868481345"><ele>201.0</ele><time>2026-04-28T10:00:41Z</time></trkpt><trkpt lat="45.85176660206576" lon="10.97263740195214"><ele>201.0</ele><time>2026-04-28T10:00:45Z</time></trkpt><trkpt lat="45.85179719394526" lon="10.972728345011546"><ele>201.0</ele><time>2026-04-28T10:00:48Z</time></trkpt><trkpt lat="45.85184969493546" lon="10.972799777005719"><ele>201.0</ele><time>2026-04-28T10:00:51Z</time></trkpt><trkpt lat="45.85190723133649" lon="10.97285038079144"><ele>201.0</ele><time>2026-04-28T10:00:54Z</time></trkpt><trkpt lat="45.851972503626556" lon="10.972876089789736"><ele>201.0</ele><time>2026-04-28T10:00:57Z</time></trkpt><trkpt lat="45.85203071814736" lon="10.972912774088792"><ele>201.0</ele><time>2026-04-28T10:01:00Z</time></trkpt><trkpt lat="45.85209559383265" lon="10.972948919316504"><ele>201.0</ele><time>2026-04-28T10:01:03Z</time></trkpt><trkpt lat="45.85215493395571" lon="10.972993100890397"><ele>201.0</ele><time>2026-04-28T10:01:06Z</time></trkpt><trkpt lat="45.85221705690439" lon="10.973051277764272"><ele>201.0</ele><time>2026-04-28T10:01:09Z</time></trkpt><trkpt lat="45.85224088030136" lon="10.973154752612857"><ele>201.0</ele><time>2026-04-28T10:01:12Z</time></trkpt><trkpt lat="45.85222362528822" lon="10.973262084426294"><ele>201.0</ele><time>2026-04-28T10:01:17Z</time></trkpt><trkpt lat="45.852222578646554" lon="10.973388284540887"><ele>200.85714285714286</ele><time>2026-04-28T10:01:20Z</time></trkpt><trkpt lat="45.852205426801085" lon="10.973495418532677"><ele>200.71428571428572</ele><time>2026-04-28T10:01:22Z</time></trkpt><trkpt lat="45.85220683937767" lon="10.973595912233344"><ele>200.57142857142858</ele><time>2026-04-28T10:01:25Z</time></trkpt><trkpt lat="45.85218434106663" lon="10.97368146793791"><ele>200.42857142857144</ele><time>2026-04-28T10:01:28Z</time></trkpt><trkpt lat="45.852173463977046" lon="10.973782534841247"><ele>200.28571428571428</ele><time>2026-04-28T10:01:31Z</time></trkpt><trkpt lat="45.85216273375883" lon="10.973881485754118"><ele>200.14285714285717</ele><time>2026-04-28T10:01:34Z</time></trkpt><trkpt lat="45.852154956176655" lon="10.973971803798587"><ele>200.0</ele><time>2026-04-28T10:01:37Z</time></trkpt><trkpt lat="45.85212380757955" lon="10.974057049629637"><ele>200.00000000000003</ele><time>2026-04-28T10:01:40Z</time></trkpt><trkpt lat="45.85210629689158" lon="10.974158552885886"><ele>200.0</ele><time>2026-04-28T10:01:43Z</time></trkpt><trkpt lat="45.85209226585845" lon="10.974258205933788"><ele>200.0</ele><time>2026-04-28T10:01:46Z</time></trkpt><trkpt lat="45.852086580422935" lon="10.974360731954498"><ele>200.0</ele><time>2026-04-28T10:01:49Z</time></trkpt><trkpt lat="45.85210523945212" lon="10.974454505554124"><ele>200.0</ele><time>2026-04-28T10:01:52Z</time></trkpt><trkpt lat="45.852096352421505" lon="10.97455469552454"><ele>200.00000000000003</ele><time>2026-04-28T10:01:55Z</time></trkpt><trkpt lat="45.85208679366434" lon="10.974654702191517"><ele>200.0</ele><time>2026-04-28T10:01:58Z</time></trkpt><trkpt lat="45.85208537900811" lon="10.974753258198843"><ele>199.85714285714286</ele><time>2026-04-28T10:02:01Z</time></trkpt><trkpt lat="45.85206681703649" lon="10.974844012786757"><ele>199.71428571428572</ele><time>2026-04-28T10:02:04Z</time></trkpt><trkpt lat="45.85205185206151" lon="10.974939964379441"><ele>199.57142857142856</ele><time>2026-04-28T10:02:07Z</time></trkpt><trkpt lat="45.852044624483526" lon="10.975040335479322"><ele>199.42857142857144</ele><time>2026-04-28T10:02:10Z</time></trkpt><trkpt lat="45.8520359545782" lon="10.975151164398014"><ele>199.28571428571428</ele><time>2026-04-28T10:02:13Z</time></trkpt><trkpt lat="45.85201689822614" lon="10.975250267591912"><ele>199.14285714285714</ele><time>2026-04-28T10:02:16Z</time></trkpt><trkpt lat="45.85199534148427" lon="10.97533973126636"><ele>199.0</ele><time>2026-04-28T10:02:19Z</time></trkpt><trkpt lat="45.851984594570915" lon="10.975444212780785"><ele>199.28571428571428</ele><time>2026-04-28T10:02:22Z</time></trkpt><trkpt lat="45.85196639935334" lon="10.975537496670961"><ele>199.57142857142856</ele><time>2026-04-28T10:02:25Z</time></trkpt><trkpt lat="45.851943191466745" lon="10.975635034139216"><ele>199.85714285714283</ele><time>2026-04-28T10:02:28Z</time></trkpt><trkpt lat="45.85190822139508" lon="10.97573928707105"><ele>200.14285714285714</ele><time>2026-04-28T10:02:32Z</time></trkpt><trkpt lat="45.85190752964515" lon="10.975838960326383"><ele>200.42857142857144</ele><time>2026-04-28T10:02:35Z</time></trkpt><trkpt lat="45.851880850951" lon="10.975932345704486"><ele>200.7142857142857</ele><time>2026-04-28T10:02:38Z</time></trkpt><trkpt lat="45.851869108389366" lon="10.976024774418391"><ele>201.0</ele><time>2026-04-28T10:02:41Z</time></trkpt><trkpt lat="45.851864858131925" lon="10.976125967927238"><ele>201.0</ele><time>2026-04-28T10:02:44Z</time></trkpt><trkpt lat="45.851855565710224" lon="10.976217604771696"><ele>201.0</ele><time>2026-04-28T10:02:47Z</time></trkpt><trkpt lat="45.851846076030476" lon="10.97630747249121"><ele>201.0</ele><time>2026-04-28T10:02:50Z</time></trkpt><trkpt lat="45.851827150050326" lon="10.976403636388174"><ele>201.0</ele><time>2026-04-28T10:02:53Z</time></trkpt><trkpt lat="45.85183125919954" lon="10.976495512046952"><ele>201.0</ele><time>2026-04-28T10:02:56Z</time></trkpt><trkpt lat="45.85182139670648" lon="10.976597264912185"><ele>201.0</ele><time>2026-04-28T10:02:59Z</time></trkpt><trkpt lat="45.85188094102739" lon="10.976650826923352"><ele>201.0</ele><time>2026-04-28T10:03:07Z</time></trkpt><trkpt lat="45.85198562393853" lon="10.976661014929887"><ele>201.0</ele><time>2026-04-28T10:03:09Z</time></trkpt><trkpt lat="45.85206864279441" lon="10.976682911877823"><ele>201.0</ele><time>2026-04-28T10:03:13Z</time></trkpt><trkpt lat="45.85213518242865" lon="10.976696499218972"><ele>201.0</ele><time>2026-04-28T10:03:16Z</time></trkpt><trkpt lat="45.852204160935756" lon="10.976710554460562"><ele>201.0</ele><time>2026-04-28T10:03:19Z</time></trkpt><trkpt lat="45.852278034479276" lon="10.976726085663202"><ele>201.0</ele><time>2026-04-28T10:03:22Z</time></trkpt><trkpt lat="45.85234010446964" lon="10.976742812485787"><ele>201.0</ele><time>2026-04-28T10:03:25Z</time></trkpt><trkpt lat="45.852413258743375" lon="10.976745972788331"><ele>201.0</ele><time>2026-04-28T10:03:28Z</time></trkpt><trkpt lat="45.85248238659431" lon="10.9767696449194"><ele>201.0</ele><time>2026-04-28T10:03:31Z</time></trkpt><trkpt lat="45.85254828597341" lon="10.976725254149702"><ele>201.0</ele><time>2026-04-28T10:03:35Z</time></trkpt><trkpt lat="45.852595218516406" lon="10.976530166144896"><ele>201.0</ele><time>2026-04-28T10:03:39Z</time></trkpt><trkpt lat="45.85261899750649" lon="10.976429512226687"><ele>201.0</ele><time>2026-04-28T10:03:42Z</time></trkpt><trkpt lat="45.85263289245458" lon="10.976339903738296"><ele>201.0</ele><time>2026-04-28T10:03:45Z</time></trkpt><trkpt lat="45.85266009640059" lon="10.976254505591237"><ele>201.0</ele><time>2026-04-28T10:03:48Z</time></trkpt><trkpt lat="45.85268717403005" lon="10.976162288017631"><ele>201.0</ele><time>2026-04-28T10:03:51Z</time></trkpt><trkpt lat="45.85271958674704" lon="10.976080561374982"><ele>201.0</ele><time>2026-04-28T10:03:54Z</time></trkpt><trkpt lat="45.85274913547549" lon="10.975995427793105"><ele>201.0</ele><time>2026-04-28T10:03:57Z</time></trkpt><trkpt lat="45.85278229219702" lon="10.97590468108614"><ele>201.0</ele><time>2026-04-28T10:04:00Z</time></trkpt><trkpt lat="45.852825799069194" lon="10.975818306266198"><ele>201.0</ele><time>2026-04-28T10:04:03Z</time></trkpt><trkpt lat="45.85285046091248" lon="10.975730499574624"><ele>201.0</ele><time>2026-04-28T10:04:06Z</time></trkpt><trkpt lat="45.85288590877954" lon="10.975629219775588"><ele>201.0</ele><time>2026-04-28T10:04:10Z</time></trkpt><trkpt lat="45.85291891531305" lon="10.975534384501913"><ele>201.0</ele><time>2026-04-28T10:04:13Z</time></trkpt><trkpt lat="45.85294821920147" lon="10.975451536712113"><ele>201.0</ele><time>2026-04-28T10:04:16Z</time></trkpt><trkpt lat="45.85299362972202" lon="10.975349128830274"><ele>201.0</ele><time>2026-04-28T10:04:20Z</time></trkpt><trkpt lat="45.85303127234302" lon="10.975262876681796"><ele>201.0</ele><time>2026-04-28T10:04:23Z</time></trkpt><trkpt lat="45.853061577185905" lon="10.97517314869252"><ele>201.0</ele><time>2026-04-28T10:04:26Z</time></trkpt><trkpt lat="45.85307178367586" lon="10.975062118291254"><ele>201.0</ele><time>2026-04-28T10:04:30Z</time></trkpt><trkpt lat="45.85310661522526" lon="10.974965506722441"><ele>201.0</ele><time>2026-04-28T10:04:33Z</time></trkpt><trkpt lat="45.85313673796255" lon="10.974881955873563"><ele>200.85714285714286</ele><time>2026-04-28T10:04:36Z</time></trkpt><trkpt lat="45.853167257683644" lon="10.974797303951085"><ele>200.71428571428572</ele><time>2026-04-28T10:04:39Z</time></trkpt><trkpt lat="45.853200062815155" lon="10.974706267188063"><ele>200.57142857142858</ele><time>2026-04-28T10:04:42Z</time></trkpt><trkpt lat="45.85322951014884" lon="10.97462453616543"><ele>200.42857142857144</ele><time>2026-04-28T10:04:45Z</time></trkpt><trkpt lat="45.8532839504093" lon="10.974561820940368"><ele>200.28571428571428</ele><time>2026-04-28T10:04:48Z</time></trkpt><trkpt lat="45.853305956836294" lon="10.974459411742822"><ele>200.14285714285717</ele><time>2026-04-28T10:04:51Z</time></trkpt><trkpt lat="45.85333620394767" lon="10.974358167681354"><ele>200.0</ele><time>2026-04-28T10:04:54Z</time></trkpt><trkpt lat="45.853372632237495" lon="10.974264693243924"><ele>200.00000000000003</ele><time>2026-04-28T10:04:57Z</time></trkpt><trkpt lat="45.8534073063934" lon="10.974177511306063"><ele>200.0</ele><time>2026-04-28T10:05:00Z</time></trkpt><trkpt lat="45.85344450744521" lon="10.97406947132916"><ele>200.0</ele><time>2026-04-28T10:05:04Z</time></trkpt><trkpt lat="45.85348046856987" lon="10.97397726390539"><ele>200.0</ele><time>2026-04-28T10:05:07Z</time></trkpt><trkpt lat="45.8535203625988" lon="10.973898856224697"><ele>200.0</ele><time>2026-04-28T10:05:10Z</time></trkpt><trkpt lat="45.85355263851981" lon="10.97380526152364"><ele>200.00000000000003</ele><time>2026-04-28T10:05:13Z</time></trkpt><trkpt lat="45.85358913587592" lon="10.973721990966535"><ele>200.0</ele><time>2026-04-28T10:05:16Z</time></trkpt><trkpt lat="45.853656022913796" lon="10.97374025235612"><ele>200.00000000000003</ele><time>2026-04-28T10:05:19Z</time></trkpt><trkpt lat="45.85372110212163" lon="10.97370203439486"><ele>200.0</ele><time>2026-04-28T10:05:25Z</time></trkpt><trkpt lat="45.85374790022004" lon="10.97358694021465"><ele>200.0</ele><time>2026-04-28T10:05:28Z</time></trkpt><trkpt lat="45.85376265098864" lon="10.973428055081888"><ele>200.0</ele><time>2026-04-28T10:05:29Z</time></trkpt><trkpt lat="45.85380098786787" lon="10.973340689025731"><ele>200.00000000000003</ele><time>2026-04-28T10:05:32Z</time></trkpt><trkpt lat="45.853826912796464" lon="10.973250027550538"><ele>200.0</ele><time>2026-04-28T10:05:35Z</time></trkpt><trkpt lat="45.853858825510166" lon="10.973170981990672"><ele>200.00000000000003</ele><time>2026-04-28T10:05:38Z</time></trkpt><trkpt lat="45.85390019947759" lon="10.97309298541456"><ele>200.0</ele><time>2026-04-28T10:05:41Z</time></trkpt><trkpt lat="45.85395911010339" lon="10.973007965313545"><ele>200.0</ele><time>2026-04-28T10:05:45Z</time></trkpt><trkpt lat="45.85402492558322" lon="10.972990775560753"><ele>200.0</ele><time>2026-04-28T10:05:49Z</time></trkpt><trkpt lat="45.85407131351316" lon="10.973083282925927"><ele>200.0</ele><time>2026-04-28T10:05:53Z</time></trkpt><trkpt lat="45.85409850505471" lon="10.973169442987091"><ele>200.00000000000003</ele><time>2026-04-28T10:05:55Z</time></trkpt><trkpt lat="45.85414708706473" lon="10.973252591154266"><ele>200.0</ele><time>2026-04-28T10:05:57Z</time></trkpt><trkpt lat="45.854169054250704" lon="10.973338086591705"><ele>200.33333333333334</ele><time>2026-04-28T10:06:00Z</time></trkpt><trkpt lat="45.8541769722663" lon="10.973433597085858"><ele>200.66666666666669</ele><time>2026-04-28T10:06:03Z</time></trkpt><trkpt lat="45.85419107307644" lon="10.973524062757322"><ele>201.0</ele><time>2026-04-28T10:06:06Z</time></trkpt><trkpt lat="45.854251576727094" lon="10.973634552405342"><ele>201.33333333333331</ele><time>2026-04-28T10:06:10Z</time></trkpt><trkpt lat="45.8542585213403" lon="10.973754735818883"><ele>201.66666666666666</ele><time>2026-04-28T10:06:14Z</time></trkpt><trkpt lat="45.85424267902038" lon="10.973846477440024"><ele>202.0</ele><time>2026-04-28T10:06:17Z</time></trkpt><trkpt lat="45.8542014043269" lon="10.973934681618642"><ele>201.99999999999997</ele><time>2026-04-28T10:06:20Z</time></trkpt><trkpt lat="45.854232649593676" lon="10.974029379927774"><ele>202.0</ele><time>2026-04-28T10:06:22Z</time></trkpt><trkpt lat="45.85428678597551" lon="10.974100133256993"><ele>202.0</ele><time>2026-04-28T10:06:25Z</time></trkpt><trkpt lat="45.854337618861145" lon="10.974204392807486"><ele>202.0</ele><time>2026-04-28T10:06:28Z</time></trkpt><trkpt lat="45.85433138020081" lon="10.974298931964285"><ele>201.99999999999997</ele><time>2026-04-28T10:06:31Z</time></trkpt><trkpt lat="45.854319141511816" lon="10.974416639540397"><ele>202.0</ele><time>2026-04-28T10:06:35Z</time></trkpt><trkpt lat="45.85422963823111" lon="10.97446853758777"><ele>202.0</ele><time>2026-04-28T10:06:37Z</time></trkpt><trkpt lat="45.85420245066101" lon="10.974553703655827"><ele>202.0</ele><time>2026-04-28T10:06:40Z</time></trkpt><trkpt lat="45.854194867607845" lon="10.974646083118353"><ele>202.0</ele><time>2026-04-28T10:06:43Z</time></trkpt><trkpt lat="45.85422656462818" lon="10.974739772411395"><ele>202.0</ele><time>2026-04-28T10:06:46Z</time></trkpt><trkpt lat="45.85424255233021" lon="10.97486781704127"><ele>202.0</ele><time>2026-04-28T10:06:50Z</time></trkpt><trkpt lat="45.854274770815934" lon="10.974957924926093"><ele>202.0</ele><time>2026-04-28T10:06:53Z</time></trkpt><trkpt lat="45.85426775695844" lon="10.975059092277366"><ele>202.0</ele><time>2026-04-28T10:06:56Z</time></trkpt><trkpt lat="45.854264434712164" lon="10.975152557210535"><ele>201.99999999999997</ele><time>2026-04-28T10:06:59Z</time></trkpt><trkpt lat="45.85426934313465" lon="10.975257825455028"><ele>202.0</ele><time>2026-04-28T10:07:02Z</time></trkpt><trkpt lat="45.854282061869284" lon="10.975356587219185"><ele>202.0</ele><time>2026-04-28T10:07:05Z</time></trkpt><trkpt lat="45.85426224285741" lon="10.975482399696327"><ele>202.0</ele><time>2026-04-28T10:07:09Z</time></trkpt><trkpt lat="45.854266498465115" lon="10.975603480153426"><ele>201.99999999999997</ele><time>2026-04-28T10:07:13Z</time></trkpt><trkpt lat="45.85427947048606" lon="10.97570333278655"><ele>202.0</ele><time>2026-04-28T10:07:16Z</time></trkpt><trkpt lat="45.8542818107515" lon="10.975802226487943"><ele>202.42857142857142</ele><time>2026-04-28T10:07:19Z</time></trkpt><trkpt lat="45.85429733813143" lon="10.97590643247101"><ele>202.85714285714283</ele><time>2026-04-28T10:07:23Z</time></trkpt><trkpt lat="45.85426696190112" lon="10.976005327688881"><ele>203.28571428571428</ele><time>2026-04-28T10:07:26Z</time></trkpt><trkpt lat="45.85426397053224" lon="10.976097224155415"><ele>203.71428571428572</ele><time>2026-04-28T10:07:29Z</time></trkpt><trkpt lat="45.85424673911612" lon="10.976196874355635"><ele>204.14285714285714</ele><time>2026-04-28T10:07:32Z</time></trkpt><trkpt lat="45.85421030044634" lon="10.97628925438962"><ele>204.57142857142858</ele><time>2026-04-28T10:07:35Z</time></trkpt><trkpt lat="45.85421758514173" lon="10.976393161669312"><ele>205.0</ele><time>2026-04-28T10:07:38Z</time></trkpt><trkpt lat="45.85421529486823" lon="10.97650256223937"><ele>205.0</ele><time>2026-04-28T10:07:41Z</time></trkpt><trkpt lat="45.854194781525436" lon="10.97659386529464"><ele>205.0</ele><time>2026-04-28T10:07:44Z</time></trkpt><trkpt lat="45.85418709789238" lon="10.976690218431957"><ele>205.0</ele><time>2026-04-28T10:07:47Z</time></trkpt><trkpt lat="45.85419557889618" lon="10.97678567698027"><ele>205.0</ele><time>2026-04-28T10:07:50Z</time></trkpt><trkpt lat="45.8541836656583" lon="10.976884923740156"><ele>205.0</ele><time>2026-04-28T10:07:53Z</time></trkpt><trkpt lat="45.854177068568184" lon="10.976978534917876"><ele>205.0</ele><time>2026-04-28T10:07:56Z</time></trkpt><trkpt lat="45.854153312718424" lon="10.977070146110467"><ele>205.0</ele><time>2026-04-28T10:07:59Z</time></trkpt><trkpt lat="45.8541309994591" lon="10.977161740129064"><ele>205.42857142857144</ele><time>2026-04-28T10:08:02Z</time></trkpt><trkpt lat="45.854112901837155" lon="10.977276022806917"><ele>205.85714285714283</ele><time>2026-04-28T10:08:06Z</time></trkpt><trkpt lat="45.854108727461316" lon="10.977377226620739"><ele>206.28571428571428</ele><time>2026-04-28T10:08:09Z</time></trkpt><trkpt lat="45.854123444562845" lon="10.977478578046838"><ele>206.71428571428572</ele><time>2026-04-28T10:08:12Z</time></trkpt><trkpt lat="45.854113096660384" lon="10.97757157322992"><ele>207.14285714285717</ele><time>2026-04-28T10:08:15Z</time></trkpt><trkpt lat="45.85409208777682" lon="10.97765700573639"><ele>207.57142857142856</ele><time>2026-04-28T10:08:18Z</time></trkpt><trkpt lat="45.85407667758266" lon="10.977750249508254"><ele>208.0</ele><time>2026-04-28T10:08:21Z</time></trkpt><trkpt lat="45.854060798581514" lon="10.977841996215195"><ele>208.0</ele><time>2026-04-28T10:08:24Z</time></trkpt><trkpt lat="45.854050685005994" lon="10.97794165287857"><ele>208.0</ele><time>2026-04-28T10:08:27Z</time></trkpt><trkpt lat="45.854039464593875" lon="10.978030900619869"><ele>208.0</ele><time>2026-04-28T10:08:30Z</time></trkpt><trkpt lat="45.854016726359376" lon="10.978126204519212"><ele>208.0</ele><time>2026-04-28T10:08:33Z</time></trkpt><trkpt lat="45.85399926801973" lon="10.978219569223608"><ele>208.0</ele><time>2026-04-28T10:08:36Z</time></trkpt><trkpt lat="45.85398706837613" lon="10.978319259891842"><ele>208.0</ele><time>2026-04-28T10:08:39Z</time></trkpt><trkpt lat="45.85396907837176" lon="10.978413391690367"><ele>208.0</ele><time>2026-04-28T10:08:42Z</time></trkpt><trkpt lat="45.85395921680224" lon="10.978511624617365"><ele>207.7142857142857</ele><time>2026-04-28T10:08:45Z</time></trkpt><trkpt lat="45.85394460720441" lon="10.978613468296086"><ele>207.42857142857144</ele><time>2026-04-28T10:08:48Z</time></trkpt><trkpt lat="45.853931210401356" lon="10.978713177800964"><ele>207.14285714285714</ele><time>2026-04-28T10:08:51Z</time></trkpt><trkpt lat="45.85393757760289" lon="10.978811689599048"><ele>206.85714285714283</ele><time>2026-04-28T10:08:54Z</time></trkpt><trkpt lat="45.85393035261407" lon="10.978912161412627"><ele>206.57142857142856</ele><time>2026-04-28T10:08:57Z</time></trkpt><trkpt lat="45.8539321176075" lon="10.979007457374207"><ele>206.28571428571428</ele><time>2026-04-28T10:09:00Z</time></trkpt><trkpt lat="45.853922836494725" lon="10.979107535662482"><ele>206.0</ele><time>2026-04-28T10:09:03Z</time></trkpt><trkpt lat="45.853928765213304" lon="10.979203691398551"><ele>205.85714285714283</ele><time>2026-04-28T10:09:06Z</time></trkpt><trkpt lat="45.853925472107676" lon="10.979305808548075"><ele>205.71428571428572</ele><time>2026-04-28T10:09:09Z</time></trkpt><trkpt lat="45.85393652645316" lon="10.97940391112773"><ele>205.57142857142856</ele><time>2026-04-28T10:09:12Z</time></trkpt><trkpt lat="45.85394713550727" lon="10.979513557015977"><ele>205.42857142857142</ele><time>2026-04-28T10:09:15Z</time></trkpt><trkpt lat="45.853968029416876" lon="10.979615265506126"><ele>205.28571428571428</ele><time>2026-04-28T10:09:18Z</time></trkpt><trkpt lat="45.85396973364782" lon="10.979720291866217"><ele>205.14285714285714</ele><time>2026-04-28T10:09:21Z</time></trkpt><trkpt lat="45.85400166329987" lon="10.979807446260693"><ele>205.0</ele><time>2026-04-28T10:09:24Z</time></trkpt><trkpt lat="45.85399879433312" lon="10.979910203179259"><ele>205.0</ele><time>2026-04-28T10:09:27Z</time></trkpt><trkpt lat="45.85406175960025" lon="10.98001469544726"><ele>205.0</ele><time>2026-04-28T10:09:31Z</time></trkpt><trkpt lat="45.854093735743476" lon="10.98010411838361"><ele>205.0</ele><time>2026-04-28T10:09:34Z</time></trkpt><trkpt lat="45.85412731249077" lon="10.980186303771497"><ele>205.0</ele><time>2026-04-28T10:09:37Z</time></trkpt><trkpt lat="45.854164499411375" lon="10.980269385784712"><ele>205.0</ele><time>2026-04-28T10:09:40Z</time></trkpt><trkpt lat="45.85420105565232" lon="10.980354636365128"><ele>205.0</ele><time>2026-04-28T10:09:43Z</time></trkpt><trkpt lat="45.85422564968876" lon="10.980455201684663"><ele>205.0</ele><time>2026-04-28T10:09:46Z</time></trkpt><trkpt lat="45.854237970697376" lon="10.980550794096748"><ele>204.2857142857143</ele><time>2026-04-28T10:09:49Z</time></trkpt><trkpt lat="45.85424358339187" lon="10.98065734335865"><ele>203.57142857142856</ele><time>2026-04-28T10:09:52Z</time></trkpt><trkpt lat="45.854256978254845" lon="10.980748854746192"><ele>202.85714285714286</ele><time>2026-04-28T10:09:55Z</time></trkpt><trkpt lat="45.85426552702195" lon="10.980850490166842"><ele>202.14285714285717</ele><time>2026-04-28T10:09:58Z</time></trkpt><trkpt lat="45.85428313955991" lon="10.980952129964848"><ele>201.42857142857144</ele><time>2026-04-28T10:10:01Z</time></trkpt><trkpt lat="45.854310041374895" lon="10.981041425740196"><ele>200.71428571428572</ele><time>2026-04-28T10:10:04Z</time></trkpt><trkpt lat="45.854357896425924" lon="10.981135995265335"><ele>200.0</ele><time>2026-04-28T10:10:07Z</time></trkpt><trkpt lat="45.85437824011276" lon="10.981249730387104"><ele>201.85714285714286</ele><time>2026-04-28T10:10:11Z</time></trkpt><trkpt lat="45.85439294368523" lon="10.98134761257676"><ele>203.71428571428572</ele><time>2026-04-28T10:10:14Z</time></trkpt><trkpt lat="45.85440172009818" lon="10.981447985819688"><ele>205.57142857142856</ele><time>2026-04-28T10:10:17Z</time></trkpt><trkpt lat="45.85442100427787" lon="10.981538504076884"><ele>207.42857142857144</ele><time>2026-04-28T10:10:20Z</time></trkpt><trkpt lat="45.85443265730482" lon="10.98163745228455"><ele>209.28571428571428</ele><time>2026-04-28T10:10:23Z</time></trkpt><trkpt lat="45.85445147985782" lon="10.98172976084426"><ele>211.14285714285714</ele><time>2026-04-28T10:10:26Z</time></trkpt><trkpt lat="45.854482664410725" lon="10.981823214481606"><ele>213.0</ele><time>2026-04-28T10:10:29Z</time></trkpt><trkpt lat="45.85450003422223" lon="10.981936610705977"><ele>212.99999999999997</ele><time>2026-04-28T10:10:33Z</time></trkpt><trkpt lat="45.85452907586541" lon="10.98203853836447"><ele>213.0</ele><time>2026-04-28T10:10:36Z</time></trkpt><trkpt lat="45.85455829526398" lon="10.982120690594863"><ele>213.0</ele><time>2026-04-28T10:10:39Z</time></trkpt><trkpt lat="45.85454515871655" lon="10.982210744140591"><ele>213.0</ele><time>2026-04-28T10:10:42Z</time></trkpt><trkpt lat="45.85453725986861" lon="10.982305739726355"><ele>213.0</ele><time>2026-04-28T10:10:45Z</time></trkpt><trkpt lat="45.85453094958788" lon="10.982407814224473"><ele>212.99999999999997</ele><time>2026-04-28T10:10:48Z</time></trkpt><trkpt lat="45.85454663736947" lon="10.982503046099971"><ele>213.0</ele><time>2026-04-28T10:10:51Z</time></trkpt><trkpt lat="45.85457265101313" lon="10.982603562439015"><ele>212.14285714285714</ele><time>2026-04-28T10:10:54Z</time></trkpt><trkpt lat="45.85460898173393" lon="10.982679665978104"><ele>211.28571428571428</ele><time>2026-04-28T10:10:57Z</time></trkpt><trkpt lat="45.8546656982593" lon="10.982774065392936"><ele>210.42857142857144</ele><time>2026-04-28T10:11:00Z</time></trkpt><trkpt lat="45.85469678040663" lon="10.982855287546338"><ele>209.57142857142856</ele><time>2026-04-28T10:11:03Z</time></trkpt><trkpt lat="45.8547285099595" lon="10.98295221387124"><ele>208.71428571428572</ele><time>2026-04-28T10:11:06Z</time></trkpt><trkpt lat="45.8547759158479" lon="10.983021506509207"><ele>207.85714285714286</ele><time>2026-04-28T10:11:09Z</time></trkpt><trkpt lat="45.85480467967186" lon="10.983128072111827"><ele>207.0</ele><time>2026-04-28T10:11:12Z</time></trkpt><trkpt lat="45.854819672969235" lon="10.983221466249063"><ele>207.00000000000003</ele><time>2026-04-28T10:11:15Z</time></trkpt><trkpt lat="45.85485732639316" lon="10.98330822216953"><ele>207.0</ele><time>2026-04-28T10:11:18Z</time></trkpt><trkpt lat="45.85488427935853" lon="10.983400484492277"><ele>207.0</ele><time>2026-04-28T10:11:21Z</time></trkpt><trkpt lat="45.854897050257634" lon="10.983491857124223"><ele>207.0</ele><time>2026-04-28T10:11:24Z</time></trkpt><trkpt lat="45.854916566795126" lon="10.983578263903642"><ele>207.0</ele><time>2026-04-28T10:11:27Z</time></trkpt><trkpt lat="45.854917875866605" lon="10.983689450989928"><ele>207.00000000000003</ele><time>2026-04-28T10:11:30Z</time></trkpt><trkpt lat="45.854910980864496" lon="10.983785064595676"><ele>207.0</ele><time>2026-04-28T10:11:33Z</time></trkpt><trkpt lat="45.854932157887816" lon="10.98388198392789"><ele>206.85714285714286</ele><time>2026-04-28T10:11:36Z</time></trkpt><trkpt lat="45.85493545200494" lon="10.983987156112507"><ele>206.71428571428572</ele><time>2026-04-28T10:11:39Z</time></trkpt><trkpt lat="45.85493587901816" lon="10.984098884039692"><ele>206.57142857142856</ele><time>2026-04-28T10:11:43Z</time></trkpt><trkpt lat="45.85496533661683" lon="10.984181436822695"><ele>206.42857142857144</ele><time>2026-04-28T10:11:45Z</time></trkpt><trkpt lat="45.85497788179561" lon="10.984298323404383"><ele>206.28571428571428</ele><time>2026-04-28T10:11:49Z</time></trkpt><trkpt lat="45.854989311724495" lon="10.98438805686103"><ele>206.14285714285714</ele><time>2026-04-28T10:11:52Z</time></trkpt><trkpt lat="45.85500363545455" lon="10.98450418728777"><ele>206.0</ele><time>2026-04-28T10:11:56Z</time></trkpt><trkpt lat="45.85501863814071" lon="10.98460154331149"><ele>205.14285714285714</ele><time>2026-04-28T10:11:59Z</time></trkpt><trkpt lat="45.85501626695729" lon="10.984693803407948"><ele>204.28571428571428</ele><time>2026-04-28T10:12:02Z</time></trkpt><trkpt lat="45.85501886305151" lon="10.984794682896045"><ele>203.42857142857144</ele><time>2026-04-28T10:12:05Z</time></trkpt><trkpt lat="45.85503143012694" lon="10.98488372101859"><ele>202.57142857142856</ele><time>2026-04-28T10:12:08Z</time></trkpt><trkpt lat="45.85507281082099" lon="10.984968402207398"><ele>201.71428571428572</ele><time>2026-04-28T10:12:11Z</time></trkpt><trkpt lat="45.85509004452381" lon="10.985062219537395"><ele>200.85714285714286</ele><time>2026-04-28T10:12:14Z</time></trkpt><trkpt lat="45.85511063967354" lon="10.98515762477395"><ele>200.0</ele><time>2026-04-28T10:12:17Z</time></trkpt><trkpt lat="45.85511129233113" lon="10.985256193520836"><ele>200.85714285714286</ele><time>2026-04-28T10:12:20Z</time></trkpt><trkpt lat="45.855120804371126" lon="10.985360156440807"><ele>201.71428571428572</ele><time>2026-04-28T10:12:23Z</time></trkpt><trkpt lat="45.855132914062644" lon="10.985473676891143"><ele>202.57142857142856</ele><time>2026-04-28T10:12:27Z</time></trkpt><trkpt lat="45.855152273480726" lon="10.985575632731173"><ele>203.42857142857144</ele><time>2026-04-28T10:12:30Z</time></trkpt><trkpt lat="45.85520951654411" lon="10.985620016409086"><ele>204.28571428571428</ele><time>2026-04-28T10:12:33Z</time></trkpt><trkpt lat="45.85523068932903" lon="10.985709363352816"><ele>205.14285714285714</ele><time>2026-04-28T10:12:36Z</time></trkpt><trkpt lat="45.85524096644276" lon="10.985824210324129"><ele>206.0</ele><time>2026-04-28T10:12:39Z</time></trkpt><trkpt lat="45.85524711177082" lon="10.985923443562271"><ele>205.99999999999997</ele><time>2026-04-28T10:12:42Z</time></trkpt><trkpt lat="45.8552813264355" lon="10.986018739031989"><ele>206.0</ele><time>2026-04-28T10:12:45Z</time></trkpt><trkpt lat="45.855286308405965" lon="10.98612030923988"><ele>206.0</ele><time>2026-04-28T10:12:48Z</time></trkpt><trkpt lat="45.85529617025679" lon="10.986224575443652"><ele>206.0</ele><time>2026-04-28T10:12:51Z</time></trkpt><trkpt lat="45.855325985158615" lon="10.986305969207974"><ele>206.0</ele><time>2026-04-28T10:12:54Z</time></trkpt><trkpt lat="45.8553409179186" lon="10.986409975741772"><ele>205.99999999999997</ele><time>2026-04-28T10:12:57Z</time></trkpt><trkpt lat="45.8553502618588" lon="10.986499845298333"><ele>206.0</ele><time>2026-04-28T10:13:00Z</time></trkpt><trkpt lat="45.855354393870314" lon="10.986594205244119"><ele>205.99999999999997</ele><time>2026-04-28T10:13:07Z</time></trkpt><trkpt lat="45.85537193464818" lon="10.986697486220645"><ele>206.0</ele><time>2026-04-28T10:13:14Z</time></trkpt><trkpt lat="45.855305405254946" lon="10.98672858386575"><ele>206.0</ele><time>2026-04-28T10:13:20Z</time></trkpt><trkpt lat="45.85524997067767" lon="10.986680135548935"><ele>206.0</ele><time>2026-04-28T10:13:26Z</time></trkpt><trkpt lat="45.855196891159366" lon="10.986624470870566"><ele>206.0</ele><time>2026-04-28T10:13:33Z</time></trkpt><trkpt lat="45.85513944905735" lon="10.986587150484834"><ele>205.99999999999997</ele><time>2026-04-28T10:13:40Z</time></trkpt><trkpt lat="45.85507335949037" lon="10.986620461156681"><ele>206.0</ele><time>2026-04-28T10:13:45Z</time></trkpt><trkpt lat="45.85500795657533" lon="10.986607998221935"><ele>203.7142857142857</ele><time>2026-04-28T10:13:50Z</time></trkpt><trkpt lat="45.85494018027098" lon="10.98658986403821"><ele>201.42857142857142</ele><time>2026-04-28T10:13:55Z</time></trkpt><trkpt lat="45.85487814481881" lon="10.986551726937302"><ele>199.14285714285714</ele><time>2026-04-28T10:14:00Z</time></trkpt><trkpt lat="45.85482251684459" lon="10.986500829949009"><ele>196.85714285714283</ele><time>2026-04-28T10:14:05Z</time></trkpt><trkpt lat="45.85478568824812" lon="10.98642197719925"><ele>194.57142857142858</ele><time>2026-04-28T10:14:10Z</time></trkpt><trkpt lat="45.85478409870532" lon="10.986315841407746"><ele>192.28571428571428</ele><time>2026-04-28T10:14:35Z</time></trkpt><trkpt lat="45.85476056490133" lon="10.986210204805683"><ele>190.0</ele><time>2026-04-28T10:14:38Z</time></trkpt><trkpt lat="45.85474823651001" lon="10.986101157725273"><ele>190.0</ele><time>2026-04-28T10:14:42Z</time></trkpt><trkpt lat="45.8547366270094" lon="10.985991652814871"><ele>190.0</ele><time>2026-04-28T10:14:46Z</time></trkpt><trkpt lat="45.85471936609012" lon="10.985883150235043"><ele>190.0</ele><time>2026-04-28T10:14:50Z</time></trkpt><trkpt lat="45.85467106829886" lon="10.985812662670934"><ele>190.0</ele><time>2026-04-28T10:14:54Z</time></trkpt><trkpt lat="45.85462612081069" lon="10.985748041181546"><ele>190.0</ele><time>2026-04-28T10:14:57Z</time></trkpt><trkpt lat="45.854624577746016" lon="10.985629343263257"><ele>190.0</ele><time>2026-04-28T10:15:01Z</time></trkpt><trkpt lat="45.85460068777152" lon="10.985545393623568"><ele>190.0</ele><time>2026-04-28T10:15:04Z</time></trkpt><trkpt lat="45.85458166757615" lon="10.985439995568779"><ele>191.33333333333334</ele><time>2026-04-28T10:15:08Z</time></trkpt><trkpt lat="45.85455944701619" lon="10.985321580544625"><ele>192.66666666666669</ele><time>2026-04-28T10:15:12Z</time></trkpt><trkpt lat="45.85454135666688" lon="10.985222932038369"><ele>194.0</ele><time>2026-04-28T10:15:16Z</time></trkpt><trkpt lat="45.85452974972438" lon="10.98511615559506"><ele>195.33333333333334</ele><time>2026-04-28T10:15:20Z</time></trkpt><trkpt lat="45.85450816447584" lon="10.98502204899359"><ele>196.66666666666666</ele><time>2026-04-28T10:15:23Z</time></trkpt><trkpt lat="45.854500141436226" lon="10.9849159448486"><ele>198.0</ele><time>2026-04-28T10:15:27Z</time></trkpt><trkpt lat="45.854493939097516" lon="10.9847963256259"><ele>198.33333333333334</ele><time>2026-04-28T10:15:31Z</time></trkpt><trkpt lat="45.85447290439231" lon="10.984685094330311"><ele>198.66666666666669</ele><time>2026-04-28T10:15:35Z</time></trkpt><trkpt lat="45.854456026089615" lon="10.98457639708916"><ele>199.0</ele><time>2026-04-28T10:15:39Z</time></trkpt><trkpt lat="45.85443772644317" lon="10.984467434170863"><ele>199.33333333333334</ele><time>2026-04-28T10:15:43Z</time></trkpt><trkpt lat="45.854418035586306" lon="10.984360404619567"><ele>199.66666666666669</ele><time>2026-04-28T10:15:47Z</time></trkpt><trkpt lat="45.85439834376769" lon="10.984255662596079"><ele>200.0</ele><time>2026-04-28T10:15:51Z</time></trkpt><trkpt lat="45.85437786091289" lon="10.984146713005355"><ele>200.85714285714286</ele><time>2026-04-28T10:15:55Z</time></trkpt><trkpt lat="45.85435879322722" lon="10.984045290806977"><ele>201.71428571428572</ele><time>2026-04-28T10:15:59Z</time></trkpt><trkpt lat="45.8543398635581" lon="10.983944602719916"><ele>202.57142857142856</ele><time>2026-04-28T10:16:03Z</time></trkpt><trkpt lat="45.854323894569774" lon="10.983855672220626"><ele>203.42857142857144</ele><time>2026-04-28T10:16:06Z</time></trkpt><trkpt lat="45.85430811525438" lon="10.983760104359833"><ele>204.28571428571428</ele><time>2026-04-28T10:16:09Z</time></trkpt><trkpt lat="45.85429528885628" lon="10.983671006712916"><ele>205.14285714285714</ele><time>2026-04-28T10:16:12Z</time></trkpt><trkpt lat="45.854280970527995" lon="10.983573134608761"><ele>206.0</ele><time>2026-04-28T10:16:16Z</time></trkpt><trkpt lat="45.854264586287826" lon="10.983461601500167"><ele>206.14285714285714</ele><time>2026-04-28T10:16:20Z</time></trkpt><trkpt lat="45.85425500164728" lon="10.983366278349708"><ele>206.28571428571428</ele><time>2026-04-28T10:16:24Z</time></trkpt><trkpt lat="45.85426558837568" lon="10.983266474704326"><ele>206.42857142857144</ele><time>2026-04-28T10:16:28Z</time></trkpt><trkpt lat="45.85429692771906" lon="10.983154860988442"><ele>206.57142857142856</ele><time>2026-04-28T10:16:32Z</time></trkpt><trkpt lat="45.8543166945872" lon="10.983058077365692"><ele>206.71428571428572</ele><time>2026-04-28T10:16:36Z</time></trkpt><trkpt lat="45.854284451631635" lon="10.98294318809281"><ele>206.85714285714286</ele><time>2026-04-28T10:16:40Z</time></trkpt><trkpt lat="45.85424760460679" lon="10.982855505671175"><ele>207.0</ele><time>2026-04-28T10:16:44Z</time></trkpt><trkpt lat="45.85422032024514" lon="10.982770418612"><ele>205.0</ele><time>2026-04-28T10:16:47Z</time></trkpt><trkpt lat="45.85418515372927" lon="10.982660653101306"><ele>203.0</ele><time>2026-04-28T10:16:51Z</time></trkpt><trkpt lat="45.85422164615689" lon="10.982561692493046"><ele>201.0</ele><time>2026-04-28T10:16:56Z</time></trkpt><trkpt lat="45.85423784242728" lon="10.982453398520457"><ele>199.0</ele><time>2026-04-28T10:17:03Z</time></trkpt><trkpt lat="45.85419732232191" lon="10.982290571745297"><ele>197.0</ele><time>2026-04-28T10:17:06Z</time></trkpt><trkpt lat="45.85417971761055" lon="10.982180573430218"><ele>195.0</ele><time>2026-04-28T10:17:10Z</time></trkpt><trkpt lat="45.85417380848937" lon="10.982070843656112"><ele>195.0</ele><time>2026-04-28T10:17:14Z</time></trkpt><trkpt lat="45.85416036813895" lon="10.981957845988099"><ele>195.0</ele><time>2026-04-28T10:17:18Z</time></trkpt><trkpt lat="45.85415814456592" lon="10.981854834857435"><ele>195.0</ele><time>2026-04-28T10:17:22Z</time></trkpt><trkpt lat="45.854143141490475" lon="10.981752978562016"><ele>195.0</ele><time>2026-04-28T10:17:26Z</time></trkpt><trkpt lat="45.85413332643448" lon="10.981644709445249"><ele>195.0</ele><time>2026-04-28T10:17:30Z</time></trkpt><trkpt lat="45.85411929822672" lon="10.981536057546748"><ele>195.0</ele><time>2026-04-28T10:17:34Z</time></trkpt><trkpt lat="45.854103973173785" lon="10.981423456214234"><ele>195.5</ele><time>2026-04-28T10:17:38Z</time></trkpt><trkpt lat="45.85406972006143" lon="10.981320083066596"><ele>196.0</ele><time>2026-04-28T10:17:42Z</time></trkpt><trkpt lat="45.85404446861268" lon="10.981230970431442"><ele>196.5</ele><time>2026-04-28T10:17:45Z</time></trkpt><trkpt lat="45.854007071712594" lon="10.981120118331479"><ele>197.0</ele><time>2026-04-28T10:17:49Z</time></trkpt><trkpt lat="45.85398747711416" lon="10.981008306419374"><ele>197.5</ele><time>2026-04-28T10:17:53Z</time></trkpt><trkpt lat="45.85395845074654" lon="10.980927912588733"><ele>198.0</ele><time>2026-04-28T10:17:56Z</time></trkpt><trkpt lat="45.85393048382936" lon="10.980824903106031"><ele>198.2857142857143</ele><time>2026-04-28T10:18:00Z</time></trkpt><trkpt lat="45.85391343093846" lon="10.980711274197382"><ele>198.57142857142856</ele><time>2026-04-28T10:18:04Z</time></trkpt><trkpt lat="45.85389112410134" lon="10.980625165084177"><ele>198.85714285714286</ele><time>2026-04-28T10:18:07Z</time></trkpt><trkpt lat="45.85384973745899" lon="10.980525896239724"><ele>199.14285714285717</ele><time>2026-04-28T10:18:11Z</time></trkpt><trkpt lat="45.85382855968818" lon="10.980438326759607"><ele>199.42857142857144</ele><time>2026-04-28T10:18:14Z</time></trkpt><trkpt lat="45.85380581395169" lon="10.98035088808203"><ele>199.71428571428572</ele><time>2026-04-28T10:18:17Z</time></trkpt><trkpt lat="45.85378103721596" lon="10.98026467751446"><ele>200.0</ele><time>2026-04-28T10:18:20Z</time></trkpt><trkpt lat="45.85375316668332" lon="10.980155363135598"><ele>200.00000000000003</ele><time>2026-04-28T10:18:24Z</time></trkpt><trkpt lat="45.85373490653872" lon="10.980040614499643"><ele>200.0</ele><time>2026-04-28T10:18:28Z</time></trkpt><trkpt lat="45.85367015218153" lon="10.979974079602961"><ele>200.0</ele><time>2026-04-28T10:18:32Z</time></trkpt><trkpt lat="45.853603920067606" lon="10.979932075969197"><ele>200.0</ele><time>2026-04-28T10:18:36Z</time></trkpt><trkpt lat="45.853537754966325" lon="10.979964421272733"><ele>200.00000000000003</ele><time>2026-04-28T10:18:39Z</time></trkpt><trkpt lat="45.85345658508833" lon="10.979964956907203"><ele>200.0</ele><time>2026-04-28T10:18:43Z</time></trkpt><trkpt lat="45.85337379733367" lon="10.979962448287267"><ele>199.85714285714286</ele><time>2026-04-28T10:18:47Z</time></trkpt><trkpt lat="45.85330283897351" lon="10.97996367616769"><ele>199.71428571428572</ele><time>2026-04-28T10:18:50Z</time></trkpt><trkpt lat="45.85321816189237" lon="10.979944546459498"><ele>199.57142857142856</ele><time>2026-04-28T10:18:54Z</time></trkpt><trkpt lat="45.85314356985" lon="10.979924004911588"><ele>199.42857142857144</ele><time>2026-04-28T10:18:57Z</time></trkpt><trkpt lat="45.85306346223409" lon="10.979886651812887"><ele>199.28571428571428</ele><time>2026-04-28T10:19:01Z</time></trkpt><trkpt lat="45.853004800294215" lon="10.979852103145248"><ele>199.14285714285714</ele><time>2026-04-28T10:19:04Z</time></trkpt><trkpt lat="45.8529452862276" lon="10.979811585621768"><ele>199.0</ele><time>2026-04-28T10:19:07Z</time></trkpt><trkpt lat="45.85287445796084" lon="10.979757829753808"><ele>198.99999999999997</ele><time>2026-04-28T10:19:11Z</time></trkpt><trkpt lat="45.85282541513533" lon="10.979694007815938"><ele>199.0</ele><time>2026-04-28T10:19:14Z</time></trkpt><trkpt lat="45.85281350135806" lon="10.979595205299486"><ele>199.0</ele><time>2026-04-28T10:19:17Z</time></trkpt><trkpt lat="45.85275012753049" lon="10.979538608083507"><ele>199.0</ele><time>2026-04-28T10:19:20Z</time></trkpt><trkpt lat="45.85270401957871" lon="10.979621063555875"><ele>199.0</ele><time>2026-04-28T10:19:24Z</time></trkpt><trkpt lat="45.852638538247746" lon="10.979607388908777"><ele>198.99999999999997</ele><time>2026-04-28T10:19:27Z</time></trkpt><trkpt lat="45.85258467961598" lon="10.979554508513523"><ele>199.0</ele><time>2026-04-28T10:19:30Z</time></trkpt><trkpt lat="45.852521731848945" lon="10.979525995281644"><ele>199.33333333333331</ele><time>2026-04-28T10:19:33Z</time></trkpt><trkpt lat="45.85244291300484" lon="10.979490292960477"><ele>199.66666666666666</ele><time>2026-04-28T10:19:37Z</time></trkpt><trkpt lat="45.85236663694996" lon="10.979451844591795"><ele>200.0</ele><time>2026-04-28T10:19:41Z</time></trkpt><trkpt lat="45.85230174513274" lon="10.979403971213095"><ele>200.33333333333331</ele><time>2026-04-28T10:19:45Z</time></trkpt><trkpt lat="45.8522503496954" lon="10.979345267167027"><ele>200.66666666666666</ele><time>2026-04-28T10:19:49Z</time></trkpt><trkpt lat="45.85220184733582" lon="10.979256836454915"><ele>201.0</ele><time>2026-04-28T10:19:53Z</time></trkpt><trkpt lat="45.85224564449531" lon="10.979353852525305"><ele>201.0</ele><time>2026-04-28T10:19:57Z</time></trkpt><trkpt lat="45.85223308875857" lon="10.97946390828755"><ele>201.0</ele><time>2026-04-28T10:20:01Z</time></trkpt><trkpt lat="45.85215486035345" lon="10.979560759808127"><ele>201.0</ele><time>2026-04-28T10:20:03Z</time></trkpt><trkpt lat="45.852118633557616" lon="10.979638414865835"><ele>201.0</ele><time>2026-04-28T10:20:06Z</time></trkpt><trkpt lat="45.85208376340117" lon="10.979716491995909"><ele>201.0</ele><time>2026-04-28T10:20:09.03Z</time></trkpt><trkpt lat="45.852033701157836" lon="10.979800905522533"><ele>201.0</ele><time>2026-04-28T10:20:13Z</time></trkpt><trkpt lat="45.85187745863355" lon="10.979870802886294"><ele>201.0</ele><time>2026-04-28T10:20:16Z</time></trkpt><trkpt lat="45.85185521171703" lon="10.97978285717449"><ele>201.0</ele><time>2026-04-28T10:20:23Z</time></trkpt><trkpt lat="45.85188028248966" lon="10.97966605988337"><ele>201.0</ele><time>2026-04-28T10:20:27Z</time></trkpt><trkpt lat="45.85194272373551" lon="10.97965077996467"><ele>201.0</ele><time>2026-04-28T10:20:31Z</time></trkpt><trkpt lat="45.851989710981634" lon="10.979711517470033"><ele>201.0</ele><time>2026-04-28T10:20:35Z</time></trkpt><trkpt lat="45.85200759675471" lon="10.979811537762306"><ele>201.0</ele><time>2026-04-28T10:20:39Z</time></trkpt><trkpt lat="45.852002392787945" lon="10.979926542406007"><ele>201.0</ele><time>2026-04-28T10:20:43Z</time></trkpt><trkpt lat="45.85199029983237" lon="10.98004372199536"><ele>201.5</ele><time>2026-04-28T10:20:47Z</time></trkpt><trkpt lat="45.85199716248284" lon="10.980137782669399"><ele>202.0</ele><time>2026-04-28T10:20:50Z</time></trkpt><trkpt lat="45.852009367820216" lon="10.980256638648093"><ele>202.5</ele><time>2026-04-28T10:20:54Z</time></trkpt><trkpt lat="45.85202050541556" lon="10.98037390235886"><ele>203.0</ele><time>2026-04-28T10:21:00Z</time></trkpt><trkpt lat="45.85209526909282" lon="10.98041794124408"><ele>203.5</ele><time>2026-04-28T10:21:01Z</time></trkpt><trkpt lat="45.85215866793395" lon="10.980490634211606"><ele>204.0</ele><time>2026-04-28T10:21:06Z</time></trkpt><trkpt lat="45.85221752827764" lon="10.98054192373091"><ele>204.0</ele><time>2026-04-28T10:21:08Z</time></trkpt><trkpt lat="45.852280024202365" lon="10.9806202002851"><ele>204.0</ele><time>2026-04-28T10:21:10Z</time></trkpt><trkpt lat="45.85231190306227" lon="10.980698764304726"><ele>204.0</ele><time>2026-04-28T10:21:13Z</time></trkpt><trkpt lat="45.85235009511104" lon="10.980784966842895"><ele>204.0</ele><time>2026-04-28T10:21:16Z</time></trkpt><trkpt lat="45.85237522952873" lon="10.980868726339647"><ele>204.0</ele><time>2026-04-28T10:21:19Z</time></trkpt><trkpt lat="45.8524117551042" lon="10.980943167021115"><ele>204.0</ele><time>2026-04-28T10:21:22Z</time></trkpt><trkpt lat="45.85245414826711" lon="10.981036399003548"><ele>204.0</ele><time>2026-04-28T10:21:26Z</time></trkpt><trkpt lat="45.85249785794837" lon="10.981112973043231"><ele>204.0</ele><time>2026-04-28T10:21:29Z</time></trkpt><trkpt lat="45.85252296484899" lon="10.981230106906711"><ele>204.0</ele><time>2026-04-28T10:21:33Z</time></trkpt><trkpt lat="45.85255574887856" lon="10.981315247535901"><ele>204.0</ele><time>2026-04-28T10:21:36Z</time></trkpt><trkpt lat="45.8526009903543" lon="10.981409374273271"><ele>204.0</ele><time>2026-04-28T10:21:40Z</time></trkpt><trkpt lat="45.85262802561304" lon="10.981495424203848"><ele>204.0</ele><time>2026-04-28T10:21:43Z</time></trkpt><trkpt lat="45.85266338660598" lon="10.981578110421463"><ele>204.0</ele><time>2026-04-28T10:21:46Z</time></trkpt><trkpt lat="45.85269144558726" lon="10.981663543507972"><ele>204.0</ele><time>2026-04-28T10:21:49Z</time></trkpt><trkpt lat="45.852726925502864" lon="10.981745009588742"><ele>204.14285714285714</ele><time>2026-04-28T10:21:52Z</time></trkpt><trkpt lat="45.852755574381376" lon="10.981830870249382"><ele>204.28571428571428</ele><time>2026-04-28T10:21:55Z</time></trkpt><trkpt lat="45.85276370228395" lon="10.981924860009316"><ele>204.42857142857144</ele><time>2026-04-28T10:21:58Z</time></trkpt><trkpt lat="45.85274188867352" lon="10.982018547671192"><ele>204.57142857142856</ele><time>2026-04-28T10:22:01Z</time></trkpt><trkpt lat="45.852686790964356" lon="10.98208336386188"><ele>204.7142857142857</ele><time>2026-04-28T10:22:07Z</time></trkpt><trkpt lat="45.85261149261157" lon="10.982135875549181"><ele>204.85714285714286</ele><time>2026-04-28T10:22:08Z</time></trkpt><trkpt lat="45.85256070415541" lon="10.98219717131654"><ele>205.0</ele><time>2026-04-28T10:22:11Z</time></trkpt><trkpt lat="45.852504384996664" lon="10.982241729777863"><ele>204.99999999999997</ele><time>2026-04-28T10:22:14Z</time></trkpt><trkpt lat="45.85244246096171" lon="10.982318351527521"><ele>205.0</ele><time>2026-04-28T10:22:17Z</time></trkpt><trkpt lat="45.85237088371458" lon="10.98235051820315"><ele>205.0</ele><time>2026-04-28T10:22:21Z</time></trkpt><trkpt lat="45.85229714009443" lon="10.982407321171543"><ele>205.0</ele><time>2026-04-28T10:22:25Z</time></trkpt><trkpt lat="45.85222660813114" lon="10.982476226502298"><ele>204.99999999999997</ele><time>2026-04-28T10:22:29Z</time></trkpt><trkpt lat="45.852173221774855" lon="10.982529483925168"><ele>205.0</ele><time>2026-04-28T10:22:32Z</time></trkpt><trkpt lat="45.85211781557531" lon="10.982578319674182"><ele>204.99999999999997</ele><time>2026-04-28T10:22:35Z</time></trkpt><trkpt lat="45.85206536529327" lon="10.98263018257839"><ele>205.0</ele><time>2026-04-28T10:22:38Z</time></trkpt><trkpt lat="45.85202290115018" lon="10.98270795443849"><ele>205.0</ele><time>2026-04-28T10:22:41Z</time></trkpt><trkpt lat="45.852016834932876" lon="10.982804028319054"><ele>205.0</ele><time>2026-04-28T10:22:48Z</time></trkpt><trkpt lat="45.8520668266829" lon="10.982899884580728"><ele>204.99999999999997</ele><time>2026-04-28T10:22:51Z</time></trkpt><trkpt lat="45.85211360553879" lon="10.983031039445374"><ele>205.0</ele><time>2026-04-28T10:22:53Z</time></trkpt><trkpt lat="45.85214324295167" lon="10.983143750039542"><ele>205.0</ele><time>2026-04-28T10:22:57Z</time></trkpt><trkpt lat="45.852171899879785" lon="10.983226453371964"><ele>205.0</ele><time>2026-04-28T10:23:00Z</time></trkpt><trkpt lat="45.8522108422155" lon="10.98333144027796"><ele>205.0</ele><time>2026-04-28T10:23:04Z</time></trkpt><trkpt lat="45.85224121420007" lon="10.983412577825906"><ele>205.0</ele><time>2026-04-28T10:23:07Z</time></trkpt><trkpt lat="45.852271233161126" lon="10.983492408100217"><ele>205.0</ele><time>2026-04-28T10:23:10Z</time></trkpt><trkpt lat="45.852304368838084" lon="10.983580526599843"><ele>205.0</ele><time>2026-04-28T10:23:13Z</time></trkpt><trkpt lat="45.85233441144778" lon="10.983660419592786"><ele>205.0</ele><time>2026-04-28T10:23:16Z</time></trkpt><trkpt lat="45.852366017323654" lon="10.983744259091505"><ele>204.71428571428572</ele><time>2026-04-28T10:23:19Z</time></trkpt><trkpt lat="45.852398528195835" lon="10.983830338615768"><ele>204.42857142857142</ele><time>2026-04-28T10:23:22Z</time></trkpt><trkpt lat="45.852437784664765" lon="10.983934278474702"><ele>204.14285714285714</ele><time>2026-04-28T10:23:26Z</time></trkpt><trkpt lat="45.85246388693604" lon="10.984020057615473"><ele>203.85714285714286</ele><time>2026-04-28T10:23:29Z</time></trkpt><trkpt lat="45.852494900218296" lon="10.984105407622124"><ele>203.57142857142856</ele><time>2026-04-28T10:23:32Z</time></trkpt><trkpt lat="45.852508806633374" lon="10.98419726864982"><ele>203.28571428571428</ele><time>2026-04-28T10:23:35Z</time></trkpt><trkpt lat="45.8525216862749" lon="10.98428598273997"><ele>203.0</ele><time>2026-04-28T10:23:38Z</time></trkpt><trkpt lat="45.85254662272317" lon="10.984373989924228"><ele>202.71428571428572</ele><time>2026-04-28T10:23:41Z</time></trkpt><trkpt lat="45.85256060017344" lon="10.984465766159694"><ele>202.42857142857144</ele><time>2026-04-28T10:23:44Z</time></trkpt><trkpt lat="45.85259023337233" lon="10.984557639585596"><ele>202.14285714285714</ele><time>2026-04-28T10:23:47Z</time></trkpt><trkpt lat="45.8526126316469" lon="10.984642708589332"><ele>201.85714285714286</ele><time>2026-04-28T10:23:50Z</time></trkpt><trkpt lat="45.852636645538674" lon="10.984733913901637"><ele>201.57142857142858</ele><time>2026-04-28T10:23:53Z</time></trkpt><trkpt lat="45.852658303038126" lon="10.984821948599453"><ele>201.28571428571428</ele><time>2026-04-28T10:23:56Z</time></trkpt><trkpt lat="45.852687006673435" lon="10.984936855167915"><ele>201.0</ele><time>2026-04-28T10:24:00Z</time></trkpt><trkpt lat="45.852798173771724" lon="10.984974308928424"><ele>199.57142857142856</ele><time>2026-04-28T10:24:04Z</time></trkpt><trkpt lat="45.852862765983986" lon="10.985017870876295"><ele>198.14285714285717</ele><time>2026-04-28T10:24:07Z</time></trkpt><trkpt lat="45.852896676108024" lon="10.985096297699892"><ele>196.71428571428572</ele><time>2026-04-28T10:24:10Z</time></trkpt><trkpt lat="45.85293955148283" lon="10.98516636113159"><ele>195.28571428571428</ele><time>2026-04-28T10:24:13Z</time></trkpt><trkpt lat="45.85299138858897" lon="10.985268216474271"><ele>193.85714285714283</ele><time>2026-04-28T10:24:17Z</time></trkpt><trkpt lat="45.85302405837534" lon="10.98536655053715"><ele>192.42857142857144</ele><time>2026-04-28T10:24:21Z</time></trkpt><trkpt lat="45.853026662904746" lon="10.985465651642919"><ele>191.0</ele><time>2026-04-28T10:24:24Z</time></trkpt><trkpt lat="45.85297642884331" lon="10.985536554047247"><ele>191.0</ele><time>2026-04-28T10:24:27Z</time></trkpt><trkpt lat="45.85290774669109" lon="10.985553840582734"><ele>191.0</ele><time>2026-04-28T10:24:30Z</time></trkpt><trkpt lat="45.85284470587362" lon="10.985525449731606"><ele>191.0</ele><time>2026-04-28T10:24:33Z</time></trkpt><trkpt lat="45.852808656063765" lon="10.985428606436567"><ele>191.0</ele><time>2026-04-28T10:24:37Z</time></trkpt><trkpt lat="45.85277833896794" lon="10.985341214626375"><ele>191.0</ele><time>2026-04-28T10:24:40Z</time></trkpt><trkpt lat="45.85274276310744" lon="10.985264203192207"><ele>191.0</ele><time>2026-04-28T10:24:43Z</time></trkpt><trkpt lat="45.852700523153025" lon="10.985161701861268"><ele>191.0</ele><time>2026-04-28T10:24:47Z</time></trkpt><trkpt lat="45.852662066866195" lon="10.985084569765743"><ele>192.42857142857144</ele><time>2026-04-28T10:24:50Z</time></trkpt><trkpt lat="45.85260784684626" lon="10.985031917780375"><ele>193.85714285714283</ele><time>2026-04-28T10:24:53Z</time></trkpt><trkpt lat="45.85257122501261" lon="10.984951625017006"><ele>195.28571428571428</ele><time>2026-04-28T10:24:56Z</time></trkpt><trkpt lat="45.85253993601293" lon="10.9848379736536"><ele>196.71428571428572</ele><time>2026-04-28T10:25:00Z</time></trkpt><trkpt lat="45.85251639213971" lon="10.984751518616688"><ele>198.14285714285717</ele><time>2026-04-28T10:25:03Z</time></trkpt><trkpt lat="45.85249137663773" lon="10.984666175969972"><ele>199.57142857142856</ele><time>2026-04-28T10:25:06Z</time></trkpt><trkpt lat="45.85246135008835" lon="10.984586278496595"><ele>201.0</ele><time>2026-04-28T10:25:09Z</time></trkpt><trkpt lat="45.85242576774023" lon="10.984489691251156"><ele>201.0</ele><time>2026-04-28T10:25:13Z</time></trkpt><trkpt lat="45.852407436644775" lon="10.984380129660913"><ele>201.0</ele><time>2026-04-28T10:25:17Z</time></trkpt><trkpt lat="45.8524023904903" lon="10.984281964648021"><ele>201.0</ele><time>2026-04-28T10:25:20Z</time></trkpt><trkpt lat="45.852378691435604" lon="10.984186463659894"><ele>201.0</ele><time>2026-04-28T10:25:23Z</time></trkpt><trkpt lat="45.852348821242984" lon="10.984103295678066"><ele>201.0</ele><time>2026-04-28T10:25:26Z</time></trkpt><trkpt lat="45.852317364595" lon="10.984013001917551"><ele>201.0</ele><time>2026-04-28T10:25:29Z</time></trkpt><trkpt lat="45.852285426640236" lon="10.983923800488222"><ele>201.0</ele><time>2026-04-28T10:25:32Z</time></trkpt><trkpt lat="45.85225303705912" lon="10.983838863050545"><ele>201.28571428571428</ele><time>2026-04-28T10:25:35Z</time></trkpt><trkpt lat="45.85221880384739" lon="10.983748878691404"><ele>201.57142857142858</ele><time>2026-04-28T10:25:38Z</time></trkpt><trkpt lat="45.8521873521786" lon="10.983638805213955"><ele>201.85714285714286</ele><time>2026-04-28T10:25:42Z</time></trkpt><trkpt lat="45.85215383738729" lon="10.983550305194706"><ele>202.14285714285714</ele><time>2026-04-28T10:25:45Z</time></trkpt><trkpt lat="45.852117537002854" lon="10.983468516193701"><ele>202.42857142857144</ele><time>2026-04-28T10:25:48Z</time></trkpt><trkpt lat="45.85208074922855" lon="10.983382715419738"><ele>202.71428571428572</ele><time>2026-04-28T10:25:51Z</time></trkpt><trkpt lat="45.85204904625446" lon="10.983296715528047"><ele>203.0</ele><time>2026-04-28T10:25:54Z</time></trkpt><trkpt lat="45.852007732517016" lon="10.983184644743119"><ele>203.16666666666669</ele><time>2026-04-28T10:25:58Z</time></trkpt><trkpt lat="45.851975630287825" lon="10.983097561783707"><ele>203.33333333333334</ele><time>2026-04-28T10:26:01Z</time></trkpt><trkpt lat="45.851941682859106" lon="10.983005473420949"><ele>203.5</ele><time>2026-04-28T10:26:04Z</time></trkpt><trkpt lat="45.851907365886746" lon="10.982916027755307"><ele>203.66666666666669</ele><time>2026-04-28T10:26:07Z</time></trkpt><trkpt lat="45.85183639928172" lon="10.982848972282039"><ele>203.83333333333334</ele><time>2026-04-28T10:26:10Z</time></trkpt><trkpt lat="45.85177266104485" lon="10.982775647133554"><ele>204.0</ele><time>2026-04-28T10:26:14Z</time></trkpt><trkpt lat="45.85173473910462" lon="10.982679108325547"><ele>204.0</ele><time>2026-04-28T10:26:17Z</time></trkpt><trkpt lat="45.85169319457206" lon="10.982569638060204"><ele>204.0</ele><time>2026-04-28T10:26:21Z</time></trkpt><trkpt lat="45.85165912084872" lon="10.98247985350515"><ele>204.0</ele><time>2026-04-28T10:26:24Z</time></trkpt><trkpt lat="45.85162975870232" lon="10.982398097823117"><ele>204.0</ele><time>2026-04-28T10:26:27Z</time></trkpt><trkpt lat="45.85160371343174" lon="10.98231056940783"><ele>204.0</ele><time>2026-04-28T10:26:30Z</time></trkpt><trkpt lat="45.851575340634646" lon="10.982195418266345"><ele>204.0</ele><time>2026-04-28T10:26:34Z</time></trkpt><trkpt lat="45.85154660819523" lon="10.982100180661593"><ele>204.0</ele><time>2026-04-28T10:26:37Z</time></trkpt><trkpt lat="45.851515035118844" lon="10.98200810144014"><ele>203.71428571428572</ele><time>2026-04-28T10:26:40Z</time></trkpt><trkpt lat="45.8514797464751" lon="10.98191330328654"><ele>203.42857142857144</ele><time>2026-04-28T10:26:43Z</time></trkpt><trkpt lat="45.85144270714451" lon="10.981809994728767"><ele>203.14285714285714</ele><time>2026-04-28T10:26:48Z</time></trkpt><trkpt lat="45.85140482417214" lon="10.981703276846755"><ele>202.85714285714286</ele><time>2026-04-28T10:26:52Z</time></trkpt><trkpt lat="45.85137333641772" lon="10.981614574548937"><ele>202.57142857142856</ele><time>2026-04-28T10:26:55Z</time></trkpt><trkpt lat="45.85134398480129" lon="10.981531889825568"><ele>202.28571428571428</ele><time>2026-04-28T10:26:58Z</time></trkpt><trkpt lat="45.851312051038896" lon="10.98144193111277"><ele>202.0</ele><time>2026-04-28T10:27:01Z</time></trkpt><trkpt lat="45.851283677811836" lon="10.981360675599715"><ele>201.83333333333331</ele><time>2026-04-28T10:27:04Z</time></trkpt><trkpt lat="45.85125056191421" lon="10.981252125224914"><ele>201.66666666666666</ele><time>2026-04-28T10:27:08Z</time></trkpt><trkpt lat="45.85126145083481" lon="10.98116205847026"><ele>201.5</ele><time>2026-04-28T10:27:13Z</time></trkpt><trkpt lat="45.85119275285716" lon="10.981134890645484"><ele>201.33333333333331</ele><time>2026-04-28T10:27:17Z</time></trkpt><trkpt lat="45.851131564136566" lon="10.98111352976287"><ele>201.16666666666666</ele><time>2026-04-28T10:27:19Z</time></trkpt><trkpt lat="45.85103824080505" lon="10.981048606542203"><ele>201.0</ele><time>2026-04-28T10:27:20Z</time></trkpt><trkpt lat="45.85097492941219" lon="10.981002150107807"><ele>201.57142857142856</ele><time>2026-04-28T10:27:23Z</time></trkpt><trkpt lat="45.85090895452143" lon="10.980964721956276"><ele>202.14285714285717</ele><time>2026-04-28T10:27:26Z</time></trkpt><trkpt lat="45.85084637726829" lon="10.980930941864774"><ele>202.71428571428572</ele><time>2026-04-28T10:27:29Z</time></trkpt><trkpt lat="45.85078004615039" lon="10.980885272889028"><ele>203.28571428571428</ele><time>2026-04-28T10:27:32Z</time></trkpt><trkpt lat="45.85072254049357" lon="10.980829692683814"><ele>203.85714285714283</ele><time>2026-04-28T10:27:35Z</time></trkpt><trkpt lat="45.85063194900199" lon="10.980798319107501"><ele>204.42857142857144</ele><time>2026-04-28T10:27:39Z</time></trkpt><trkpt lat="45.85057758461759" lon="10.98074053050154"><ele>205.0</ele><time>2026-04-28T10:27:42Z</time></trkpt><trkpt lat="45.85050889339159" lon="10.980691403117335"><ele>204.99999999999997</ele><time>2026-04-28T10:27:45Z</time></trkpt><trkpt lat="45.85046471465768" lon="10.980607657616613"><ele>205.0</ele><time>2026-04-28T10:27:49Z</time></trkpt><trkpt lat="45.85039544388516" lon="10.980544163229476"><ele>205.0</ele><time>2026-04-28T10:27:53Z</time></trkpt><trkpt lat="45.85034260448169" lon="10.980494321176577"><ele>205.0</ele><time>2026-04-28T10:27:56Z</time></trkpt><trkpt lat="45.850308482504516" lon="10.980597555863516"><ele>204.99999999999997</ele><time>2026-04-28T10:28:02Z</time></trkpt><trkpt lat="45.85021171485381" lon="10.980688721955714"><ele>205.0</ele><time>2026-04-28T10:28:05Z</time></trkpt><trkpt lat="45.850156661032095" lon="10.980781173024143"><ele>204.99999999999997</ele><time>2026-04-28T10:28:09Z</time></trkpt><trkpt lat="45.850097797743395" lon="10.980874298083144"><ele>205.0</ele><time>2026-04-28T10:28:13Z</time></trkpt><trkpt lat="45.85004112448188" lon="10.98094605703324"><ele>205.0</ele><time>2026-04-28T10:28:16Z</time></trkpt><trkpt lat="45.85000202893538" lon="10.981033394892703"><ele>205.0</ele><time>2026-04-28T10:28:19Z</time></trkpt><trkpt lat="45.84996137896782" lon="10.981134456209414"><ele>204.99999999999997</ele><time>2026-04-28T10:28:23Z</time></trkpt><trkpt lat="45.84991638598317" lon="10.981205473827167"><ele>205.0</ele><time>2026-04-28T10:28:26Z</time></trkpt><trkpt lat="45.84987246739977" lon="10.981283053166138"><ele>205.0</ele><time>2026-04-28T10:28:29Z</time></trkpt><trkpt lat="45.849807777880045" lon="10.981384692084372"><ele>205.0</ele><time>2026-04-28T10:28:33Z</time></trkpt><trkpt lat="45.849770390918046" lon="10.981459712155036"><ele>205.0</ele><time>2026-04-28T10:28:36Z</time></trkpt><trkpt lat="45.8497173622652" lon="10.981515170444899"><ele>205.0</ele><time>2026-04-28T10:28:39Z</time></trkpt><trkpt lat="45.849671215531245" lon="10.981594952834905"><ele>205.0</ele><time>2026-04-28T10:28:42Z</time></trkpt><trkpt lat="45.8496322476637" lon="10.981666354062249"><ele>205.0</ele><time>2026-04-28T10:28:45Z</time></trkpt><trkpt lat="45.84958939267207" lon="10.981761110636478"><ele>205.0</ele><time>2026-04-28T10:28:48Z</time></trkpt><trkpt lat="45.84954313161895" lon="10.981838520739764"><ele>204.85714285714286</ele><time>2026-04-28T10:28:51Z</time></trkpt><trkpt lat="45.84949207529686" lon="10.981898439773122"><ele>204.7142857142857</ele><time>2026-04-28T10:28:54Z</time></trkpt><trkpt lat="45.849439288860104" lon="10.981972907558951"><ele>204.57142857142856</ele><time>2026-04-28T10:28:58Z</time></trkpt><trkpt lat="45.849388877367375" lon="10.98204080740004"><ele>204.42857142857144</ele><time>2026-04-28T10:29:01Z</time></trkpt><trkpt lat="45.84933925914589" lon="10.982108090555103"><ele>204.28571428571428</ele><time>2026-04-28T10:29:04Z</time></trkpt><trkpt lat="45.84927177741402" lon="10.98216601617593"><ele>204.14285714285714</ele><time>2026-04-28T10:29:08Z</time></trkpt><trkpt lat="45.84921957131955" lon="10.982252289659979"><ele>204.0</ele><time>2026-04-28T10:29:11Z</time></trkpt><trkpt lat="45.849165018490375" lon="10.982310764218482"><ele>203.83333333333334</ele><time>2026-04-28T10:29:14Z</time></trkpt><trkpt lat="45.849110011251426" lon="10.982363628060039"><ele>203.66666666666669</ele><time>2026-04-28T10:29:17Z</time></trkpt><trkpt lat="45.84904855503662" lon="10.98242394214712"><ele>203.5</ele><time>2026-04-28T10:29:20Z</time></trkpt><trkpt lat="45.848997678309395" lon="10.982486584632419"><ele>203.33333333333334</ele><time>2026-04-28T10:29:23Z</time></trkpt><trkpt lat="45.84892856469598" lon="10.982563078810086"><ele>203.16666666666669</ele><time>2026-04-28T10:29:27Z</time></trkpt><trkpt lat="45.8488947232493" lon="10.982673179509922"><ele>203.0</ele><time>2026-04-28T10:29:31Z</time></trkpt><trkpt lat="45.848853924233126" lon="10.982761080514702"><ele>203.0</ele><time>2026-04-28T10:29:34Z</time></trkpt><trkpt lat="45.848779502632105" lon="10.982795421031536"><ele>203.0</ele><time>2026-04-28T10:29:37Z</time></trkpt><trkpt lat="45.84870411104425" lon="10.982822731060262"><ele>203.0</ele><time>2026-04-28T10:29:41Z</time></trkpt><trkpt lat="45.8486532987981" lon="10.982886655645519"><ele>203.0</ele><time>2026-04-28T10:29:44Z</time></trkpt><trkpt lat="45.8486053505024" lon="10.982951829122149"><ele>203.0</ele><time>2026-04-28T10:29:47Z</time></trkpt><trkpt lat="45.84855160280205" lon="10.983013390665882"><ele>203.0</ele><time>2026-04-28T10:29:50Z</time></trkpt><trkpt lat="45.84848924313202" lon="10.983064443307896"><ele>203.0</ele><time>2026-04-28T10:29:53Z</time></trkpt><trkpt lat="45.848436628083824" lon="10.983117200513309"><ele>203.2</ele><time>2026-04-28T10:29:56Z</time></trkpt><trkpt lat="45.84836819983919" lon="10.983184547493119"><ele>203.4</ele><time>2026-04-28T10:30:00Z</time></trkpt><trkpt lat="45.84830058118332" lon="10.983250564328658"><ele>203.6</ele><time>2026-04-28T10:30:04Z</time></trkpt><trkpt lat="45.848164106764216" lon="10.983262958822534"><ele>203.79999999999998</ele><time>2026-04-28T10:30:12Z</time></trkpt><trkpt lat="45.8481723421707" lon="10.983169821354405"><ele>204.0</ele><time>2026-04-28T10:30:17Z</time></trkpt><trkpt lat="45.84824783730316" lon="10.983106173659637"><ele>204.0</ele><time>2026-04-28T10:30:20Z</time></trkpt><trkpt lat="45.84833321315077" lon="10.983014212963187"><ele>204.0</ele><time>2026-04-28T10:30:21Z</time></trkpt><trkpt lat="45.848399206183046" lon="10.982940276788417"><ele>204.0</ele><time>2026-04-28T10:30:25Z</time></trkpt><trkpt lat="45.84846421757239" lon="10.982861107058266"><ele>204.0</ele><time>2026-04-28T10:30:29Z</time></trkpt><trkpt lat="45.84852399067774" lon="10.982793214988304"><ele>204.0</ele><time>2026-04-28T10:30:33Z</time></trkpt><trkpt lat="45.848580414676086" lon="10.98272782949996"><ele>204.0</ele><time>2026-04-28T10:30:36Z</time></trkpt><trkpt lat="45.84863114723582" lon="10.98266407472355"><ele>203.85714285714286</ele><time>2026-04-28T10:30:39Z</time></trkpt><trkpt lat="45.84867798132926" lon="10.98259255983624"><ele>203.71428571428572</ele><time>2026-04-28T10:30:42Z</time></trkpt><trkpt lat="45.848740804943944" lon="10.982514682099946"><ele>203.57142857142856</ele><time>2026-04-28T10:30:46Z</time></trkpt><trkpt lat="45.84881160847718" lon="10.982440883202372"><ele>203.42857142857144</ele><time>2026-04-28T10:30:50Z</time></trkpt><trkpt lat="45.848871402620006" lon="10.982381725803815"><ele>203.28571428571428</ele><time>2026-04-28T10:30:53Z</time></trkpt><trkpt lat="45.84892217228589" lon="10.982324654845794"><ele>203.14285714285714</ele><time>2026-04-28T10:30:56Z</time></trkpt><trkpt lat="45.84898415502502" lon="10.982275823395478"><ele>203.0</ele><time>2026-04-28T10:30:59Z</time></trkpt><trkpt lat="45.84902840523289" lon="10.982206358776118"><ele>203.14285714285714</ele><time>2026-04-28T10:31:02Z</time></trkpt><trkpt lat="45.84908026817978" lon="10.982142237850226"><ele>203.28571428571428</ele><time>2026-04-28T10:31:06Z</time></trkpt><trkpt lat="45.849138237123356" lon="10.982075398080017"><ele>203.42857142857144</ele><time>2026-04-28T10:31:09Z</time></trkpt><trkpt lat="45.84920515172175" lon="10.982026394042489"><ele>203.57142857142856</ele><time>2026-04-28T10:31:12Z</time></trkpt><trkpt lat="45.84926499638968" lon="10.981951665360297"><ele>203.71428571428572</ele><time>2026-04-28T10:31:15Z</time></trkpt><trkpt lat="45.84931445453696" lon="10.981885621583979"><ele>203.85714285714286</ele><time>2026-04-28T10:31:18Z</time></trkpt><trkpt lat="45.84936501051389" lon="10.981827064638866"><ele>204.0</ele><time>2026-04-28T10:31:21Z</time></trkpt><trkpt lat="45.849412511929515" lon="10.981756600941305"><ele>204.16666666666666</ele><time>2026-04-28T10:31:24Z</time></trkpt><trkpt lat="45.8494646330961" lon="10.981661935006711"><ele>204.33333333333331</ele><time>2026-04-28T10:31:27Z</time></trkpt><trkpt lat="45.84951246749879" lon="10.981586865217805"><ele>204.5</ele><time>2026-04-28T10:31:30Z</time></trkpt><trkpt lat="45.84955365169898" lon="10.981497708825309"><ele>204.66666666666666</ele><time>2026-04-28T10:31:33Z</time></trkpt><trkpt lat="45.84960071739644" lon="10.981425568964319"><ele>204.83333333333331</ele><time>2026-04-28T10:31:36Z</time></trkpt><trkpt lat="45.8496535447655" lon="10.981352726990941"><ele>205.0</ele><time>2026-04-28T10:31:39Z</time></trkpt><trkpt lat="45.8497087982658" lon="10.981259609107246"><ele>205.0</ele><time>2026-04-28T10:31:43Z</time></trkpt><trkpt lat="45.84975194900315" lon="10.981176616407607"><ele>205.0</ele><time>2026-04-28T10:31:46Z</time></trkpt><trkpt lat="45.84980844322582" lon="10.981114722420251"><ele>205.0</ele><time>2026-04-28T10:31:49Z</time></trkpt><trkpt lat="45.84988651494189" lon="10.981053468548309"><ele>205.0</ele><time>2026-04-28T10:31:52Z</time></trkpt><trkpt lat="45.849928771628875" lon="10.980967924114175"><ele>205.0</ele><time>2026-04-28T10:31:55Z</time></trkpt><trkpt lat="45.84997450012022" lon="10.980903120216434"><ele>205.0</ele><time>2026-04-28T10:31:58Z</time></trkpt><trkpt lat="45.84993171105581" lon="10.980826303797354"><ele>205.0</ele><time>2026-04-28T10:32:02Z</time></trkpt><trkpt lat="45.849892783720826" lon="10.980746084821941"><ele>204.99999999999997</ele><time>2026-04-28T10:32:07Z</time></trkpt><trkpt lat="45.849824798915286" lon="10.980647381215334"><ele>205.0</ele><time>2026-04-28T10:32:09Z</time></trkpt><trkpt lat="45.84978287907079" lon="10.980568572256372"><ele>205.0</ele><time>2026-04-28T10:32:12Z</time></trkpt><trkpt lat="45.849732679936466" lon="10.980468861637954"><ele>205.0</ele><time>2026-04-28T10:32:16Z</time></trkpt><trkpt lat="45.8496805134184" lon="10.980375222095113"><ele>204.99999999999997</ele><time>2026-04-28T10:32:20Z</time></trkpt><trkpt lat="45.84963022297166" lon="10.980284950139202"><ele>205.0</ele><time>2026-04-28T10:32:24Z</time></trkpt><trkpt lat="45.84958276855821" lon="10.98019717945314"><ele>205.0</ele><time>2026-04-28T10:32:28Z</time></trkpt><trkpt lat="45.84953170871216" lon="10.980102252981096"><ele>205.0</ele><time>2026-04-28T10:32:32Z</time></trkpt><trkpt lat="45.849495448968824" lon="10.980022587009291"><ele>205.0</ele><time>2026-04-28T10:32:35Z</time></trkpt><trkpt lat="45.84945489480061" lon="10.979951740980239"><ele>205.0</ele><time>2026-04-28T10:32:38Z</time></trkpt><trkpt lat="45.849416969180105" lon="10.979879208340998"><ele>205.0</ele><time>2026-04-28T10:32:41Z</time></trkpt><trkpt lat="45.849384057514875" lon="10.979794487377278"><ele>205.0</ele><time>2026-04-28T10:32:44Z</time></trkpt><trkpt lat="45.849345532593794" lon="10.979710868511052"><ele>205.0</ele><time>2026-04-28T10:32:47Z</time></trkpt><trkpt lat="45.849309468076946" lon="10.979632673051121"><ele>204.85714285714286</ele><time>2026-04-28T10:32:50Z</time></trkpt><trkpt lat="45.84926188234243" lon="10.979552869031977"><ele>204.7142857142857</ele><time>2026-04-28T10:32:54Z</time></trkpt><trkpt lat="45.84922454449473" lon="10.979471912585884"><ele>204.57142857142856</ele><time>2026-04-28T10:32:57Z</time></trkpt><trkpt lat="45.84918592957698" lon="10.979388187177644"><ele>204.42857142857144</ele><time>2026-04-28T10:33:00Z</time></trkpt><trkpt lat="45.84913463038586" lon="10.979278800916655"><ele>204.28571428571428</ele><time>2026-04-28T10:33:04Z</time></trkpt><trkpt lat="45.849098170485036" lon="10.979204970639818"><ele>204.14285714285714</ele><time>2026-04-28T10:33:07Z</time></trkpt><trkpt lat="45.849058472440895" lon="10.979125349106367"><ele>204.0</ele><time>2026-04-28T10:33:10Z</time></trkpt><trkpt lat="45.84902587106912" lon="10.979043124875492"><ele>204.28571428571428</ele><time>2026-04-28T10:33:13Z</time></trkpt><trkpt lat="45.84905473451266" lon="10.978930771105606"><ele>204.57142857142858</ele><time>2026-04-28T10:33:16Z</time></trkpt><trkpt lat="45.84906107639313" lon="10.978835609285301"><ele>204.85714285714283</ele><time>2026-04-28T10:33:19Z</time></trkpt><trkpt lat="45.84908315154523" lon="10.978732953931068"><ele>205.14285714285714</ele><time>2026-04-28T10:33:22Z</time></trkpt><trkpt lat="45.849110897700776" lon="10.978614084771236"><ele>205.42857142857142</ele><time>2026-04-28T10:33:26Z</time></trkpt><trkpt lat="45.849105559974944" lon="10.978521915498613"><ele>205.7142857142857</ele><time>2026-04-28T10:33:29Z</time></trkpt><trkpt lat="45.84914779846138" lon="10.978442028029269"><ele>206.0</ele><time>2026-04-28T10:33:33Z</time></trkpt><trkpt lat="45.84921182913941" lon="10.978425773630514"><ele>206.00000000000003</ele><time>2026-04-28T10:33:38Z</time></trkpt><trkpt lat="45.84931953186251" lon="10.978396895554464"><ele>206.0</ele><time>2026-04-28T10:33:40Z</time></trkpt><trkpt lat="45.84938413355104" lon="10.978400691422227"><ele>206.0</ele><time>2026-04-28T10:33:43Z</time></trkpt><trkpt lat="45.84944463352583" lon="10.978456241482888"><ele>206.0</ele><time>2026-04-28T10:33:46Z</time></trkpt><trkpt lat="45.84949721401693" lon="10.978520819914396"><ele>206.00000000000003</ele><time>2026-04-28T10:33:50Z</time></trkpt><trkpt lat="45.84954745242058" lon="10.978658333788735"><ele>206.0</ele><time>2026-04-28T10:33:52Z</time></trkpt><trkpt lat="45.849588044672075" lon="10.978740833928208"><ele>206.00000000000003</ele><time>2026-04-28T10:33:55Z</time></trkpt><trkpt lat="45.84963443842589" lon="10.978822747984838"><ele>206.0</ele><time>2026-04-28T10:33:58Z</time></trkpt><trkpt lat="45.84967809011346" lon="10.978900288272735"><ele>206.0</ele><time>2026-04-28T10:34:01Z</time></trkpt><trkpt lat="45.849730838267114" lon="10.97897328320453"><ele>206.0</ele><time>2026-04-28T10:34:04Z</time></trkpt><trkpt lat="45.84976376794897" lon="10.979083776211773"><ele>206.00000000000003</ele><time>2026-04-28T10:34:07Z</time></trkpt><trkpt lat="45.84980897084804" lon="10.979179405852888"><ele>206.0</ele><time>2026-04-28T10:34:11Z</time></trkpt><trkpt lat="45.84984303859114" lon="10.979271392534859"><ele>205.85714285714283</ele><time>2026-04-28T10:34:14Z</time></trkpt><trkpt lat="45.849882737592964" lon="10.979358647776328"><ele>205.71428571428572</ele><time>2026-04-28T10:34:17Z</time></trkpt><trkpt lat="45.84992025994312" lon="10.979458247862514"><ele>205.57142857142856</ele><time>2026-04-28T10:34:20Z</time></trkpt><trkpt lat="45.84995843048592" lon="10.979536148697665"><ele>205.42857142857142</ele><time>2026-04-28T10:34:23Z</time></trkpt><trkpt lat="45.84999822476821" lon="10.979618160779776"><ele>205.28571428571428</ele><time>2026-04-28T10:34:26Z</time></trkpt><trkpt lat="45.85004838841241" lon="10.97970106099028"><ele>205.14285714285714</ele><time>2026-04-28T10:34:29Z</time></trkpt><trkpt lat="45.85008733612437" lon="10.979800455203936"><ele>205.0</ele><time>2026-04-28T10:34:32Z</time></trkpt><trkpt lat="45.85011911442918" lon="10.979891443688864"><ele>204.99999999999997</ele><time>2026-04-28T10:34:35Z</time></trkpt><trkpt lat="45.85017863508465" lon="10.979961412782561"><ele>205.0</ele><time>2026-04-28T10:34:38Z</time></trkpt><trkpt lat="45.85023707002934" lon="10.98004430007579"><ele>205.0</ele><time>2026-04-28T10:34:42Z</time></trkpt><trkpt lat="45.850264173172256" lon="10.980154565160197"><ele>205.0</ele><time>2026-04-28T10:34:45Z</time></trkpt><trkpt lat="45.850330945657745" lon="10.98021209811134"><ele>204.99999999999997</ele><time>2026-04-28T10:34:48Z</time></trkpt><trkpt lat="45.85036035873605" lon="10.980310475717982"><ele>205.0</ele><time>2026-04-28T10:34:51Z</time></trkpt><trkpt lat="45.85031472363617" lon="10.980376768019008"><ele>205.0</ele><time>2026-04-28T10:34:53Z</time></trkpt><trkpt lat="45.85026546156584" lon="10.980452251139338"><ele>205.0</ele><time>2026-04-28T10:34:56Z</time></trkpt><trkpt lat="45.85020086611279" lon="10.980532571141671"><ele>205.0</ele><time>2026-04-28T10:34:59Z</time></trkpt><trkpt lat="45.85015634913422" lon="10.980608022159805"><ele>205.0</ele><time>2026-04-28T10:35:02Z</time></trkpt><trkpt lat="45.85011343217758" lon="10.980676658410033"><ele>205.0</ele><time>2026-04-28T10:35:05Z</time></trkpt><trkpt lat="45.8500694755408" lon="10.980749172227343"><ele>205.0</ele><time>2026-04-28T10:35:11Z</time></trkpt><trkpt lat="45.85002645529588" lon="10.98083312715293"><ele>205.0</ele><time>2026-04-28T10:35:19Z</time></trkpt><trkpt lat="45.849960054393584" lon="10.980806514714692"><ele>205.0</ele><time>2026-04-28T10:35:28Z</time></trkpt><trkpt lat="45.84993699979562" lon="10.980717889824897"><ele>205.0</ele><time>2026-04-28T10:35:33Z</time></trkpt></trkseg></trk></gpx>